<?xml version="1.0" encoding="UTF-8"?>
<gpx version="1.1" creator="https://www.youtrack.es" xsi:schemaLocation="http://www.topografix.com/GPX/1/1 http://www.topografix.com/GPX/1/1/gpx.xsd http://www.garmin.com/xmlschemas/GpxExtensions/v3 http://www.garmin.com/xmlschemas/GpxExtensionsv3.xsd http://www.garmin.com/xmlschemas/TrackPointExtension/v1 http://www.garmin.com/xmlschemas/TrackPointExtensionv1.xsd" xmlns:gpxtpx="http://www.garmin.com/xmlschemas/TrackPointExtension/v1" xmlns:gpxx="http://www.garmin.com/xmlschemas/GpxExtensions/v3" xmlns:xsi="http://www.w3.org/2001/XMLSchema-instance">
  <metadata>
    <link href="https://www.youtrack.es">
      <text>YouTrack.es</text>
    </link>
    <time>2026-05-09T00:57:40Z</time>
  </metadata>
  <trk>
    <src>https://www.youtrack.es</src>
    <link href="https://www.youtrack.es/ruta/40070-fuente-del-gato--1-">
      <text>YouTrack.es</text>
    </link>
    <trkseg>
      <trkpt lat="39.340082" lon="-0.61283">
        <ele>130.5</ele>
        <time>2023-02-01T13:03:47Z</time>
      </trkpt>
      <trkpt lat="39.340093" lon="-0.612943">
        <ele>131</ele>
        <time>2023-02-01T13:04:07Z</time>
      </trkpt>
      <trkpt lat="39.34016" lon="-0.613527">
        <ele>133.75</ele>
        <time>2023-02-01T13:04:27Z</time>
      </trkpt>
      <trkpt lat="39.341444" lon="-0.613286">
        <ele>133</ele>
        <time>2023-02-01T13:04:47Z</time>
      </trkpt>
      <trkpt lat="39.341941" lon="-0.613189">
        <ele>132.25</ele>
        <time>2023-02-01T13:05:07Z</time>
      </trkpt>
      <trkpt lat="39.342026" lon="-0.613567">
        <ele>134</ele>
        <time>2023-02-01T13:05:27Z</time>
      </trkpt>
      <trkpt lat="39.34217" lon="-0.614213">
        <ele>137.25</ele>
        <time>2023-02-01T13:05:47Z</time>
      </trkpt>
      <trkpt lat="39.342242" lon="-0.614533">
        <ele>138.25</ele>
        <time>2023-02-01T13:06:07Z</time>
      </trkpt>
      <trkpt lat="39.342332" lon="-0.614938">
        <ele>139.5</ele>
        <time>2023-02-01T13:06:27Z</time>
      </trkpt>
      <trkpt lat="39.342414" lon="-0.615305">
        <ele>140.5</ele>
        <time>2023-02-01T13:06:47Z</time>
      </trkpt>
      <trkpt lat="39.342474" lon="-0.615573">
        <ele>141</ele>
        <time>2023-02-01T13:07:07Z</time>
      </trkpt>
      <trkpt lat="39.342623" lon="-0.616241">
        <ele>141.75</ele>
        <time>2023-02-01T13:07:27Z</time>
      </trkpt>
      <trkpt lat="39.342662" lon="-0.616825">
        <ele>143</ele>
        <time>2023-02-01T13:07:47Z</time>
      </trkpt>
      <trkpt lat="39.342938" lon="-0.61708">
        <ele>141.25</ele>
        <time>2023-02-01T13:08:07Z</time>
      </trkpt>
      <trkpt lat="39.34305" lon="-0.617071">
        <ele>140.5</ele>
        <time>2023-02-01T13:08:27Z</time>
      </trkpt>
      <trkpt lat="39.343062" lon="-0.617319">
        <ele>140.5</ele>
        <time>2023-02-01T13:08:47Z</time>
      </trkpt>
      <trkpt lat="39.343099" lon="-0.618242">
        <ele>139</ele>
        <time>2023-02-01T13:09:07Z</time>
      </trkpt>
      <trkpt lat="39.343093" lon="-0.61844">
        <ele>139.5</ele>
        <time>2023-02-01T13:09:27Z</time>
      </trkpt>
      <trkpt lat="39.343052" lon="-0.618544">
        <ele>140.25</ele>
        <time>2023-02-01T13:09:47Z</time>
      </trkpt>
      <trkpt lat="39.342981" lon="-0.618689">
        <ele>141.5</ele>
        <time>2023-02-01T13:10:07Z</time>
      </trkpt>
      <trkpt lat="39.342921" lon="-0.618769">
        <ele>142.5</ele>
        <time>2023-02-01T13:10:27Z</time>
      </trkpt>
      <trkpt lat="39.342936" lon="-0.618981">
        <ele>143.25</ele>
        <time>2023-02-01T13:10:47Z</time>
      </trkpt>
      <trkpt lat="39.342973" lon="-0.619">
        <ele>143.25</ele>
        <time>2023-02-01T13:11:07Z</time>
      </trkpt>
      <trkpt lat="39.343035" lon="-0.619073">
        <ele>143.25</ele>
        <time>2023-02-01T13:11:27Z</time>
      </trkpt>
      <trkpt lat="39.343133" lon="-0.61917">
        <ele>143</ele>
        <time>2023-02-01T13:11:47Z</time>
      </trkpt>
      <trkpt lat="39.343166" lon="-0.619327">
        <ele>143.25</ele>
        <time>2023-02-01T13:12:07Z</time>
      </trkpt>
      <trkpt lat="39.343263" lon="-0.621291">
        <ele>148</ele>
        <time>2023-02-01T13:12:27Z</time>
      </trkpt>
      <trkpt lat="39.343286" lon="-0.621533">
        <ele>148</ele>
        <time>2023-02-01T13:12:47Z</time>
      </trkpt>
      <trkpt lat="39.343307" lon="-0.621661">
        <ele>148</ele>
        <time>2023-02-01T13:13:07Z</time>
      </trkpt>
      <trkpt lat="39.343338" lon="-0.621787">
        <ele>148.25</ele>
        <time>2023-02-01T13:13:27Z</time>
      </trkpt>
      <trkpt lat="39.343456" lon="-0.622106">
        <ele>148.75</ele>
        <time>2023-02-01T13:13:47Z</time>
      </trkpt>
      <trkpt lat="39.343487" lon="-0.622128">
        <ele>148.75</ele>
        <time>2023-02-01T13:14:07Z</time>
      </trkpt>
      <trkpt lat="39.343555" lon="-0.622069">
        <ele>148.5</ele>
        <time>2023-02-01T13:14:27Z</time>
      </trkpt>
      <trkpt lat="39.344974" lon="-0.624295">
        <ele>156.5</ele>
        <time>2023-02-01T13:14:47Z</time>
      </trkpt>
      <trkpt lat="39.345506" lon="-0.62514">
        <ele>160</ele>
        <time>2023-02-01T13:15:07Z</time>
      </trkpt>
      <trkpt lat="39.347157" lon="-0.627694">
        <ele>169</ele>
        <time>2023-02-01T13:15:27Z</time>
      </trkpt>
      <trkpt lat="39.347245" lon="-0.627871">
        <ele>170.5</ele>
        <time>2023-02-01T13:15:47Z</time>
      </trkpt>
      <trkpt lat="39.347373" lon="-0.628298">
        <ele>173.5</ele>
        <time>2023-02-01T13:16:07Z</time>
      </trkpt>
      <trkpt lat="39.347539" lon="-0.629059">
        <ele>176.25</ele>
        <time>2023-02-01T13:16:27Z</time>
      </trkpt>
      <trkpt lat="39.347624" lon="-0.629295">
        <ele>176.75</ele>
        <time>2023-02-01T13:16:47Z</time>
      </trkpt>
      <trkpt lat="39.34779" lon="-0.629518">
        <ele>177</ele>
        <time>2023-02-01T13:17:07Z</time>
      </trkpt>
      <trkpt lat="39.348165" lon="-0.629852">
        <ele>177.5</ele>
        <time>2023-02-01T13:17:27Z</time>
      </trkpt>
      <trkpt lat="39.348621" lon="-0.630272">
        <ele>179</ele>
        <time>2023-02-01T13:17:47Z</time>
      </trkpt>
      <trkpt lat="39.348807" lon="-0.630477">
        <ele>179.75</ele>
        <time>2023-02-01T13:18:07Z</time>
      </trkpt>
      <trkpt lat="39.348827" lon="-0.6305">
        <ele>180</ele>
        <time>2023-02-01T13:18:27Z</time>
      </trkpt>
      <trkpt lat="39.349072" lon="-0.630886">
        <ele>181</ele>
        <time>2023-02-01T13:18:47Z</time>
      </trkpt>
      <trkpt lat="39.349143" lon="-0.631006">
        <ele>181</ele>
        <time>2023-02-01T13:19:07Z</time>
      </trkpt>
      <trkpt lat="39.350339" lon="-0.63302">
        <ele>184.75</ele>
        <time>2023-02-01T13:19:27Z</time>
      </trkpt>
      <trkpt lat="39.350444" lon="-0.633253">
        <ele>185.5</ele>
        <time>2023-02-01T13:19:47Z</time>
      </trkpt>
      <trkpt lat="39.3505" lon="-0.633433">
        <ele>185.75</ele>
        <time>2023-02-01T13:20:07Z</time>
      </trkpt>
      <trkpt lat="39.350564" lon="-0.633661">
        <ele>186</ele>
        <time>2023-02-01T13:20:27Z</time>
      </trkpt>
      <trkpt lat="39.350809" lon="-0.63464">
        <ele>187.75</ele>
        <time>2023-02-01T13:20:47Z</time>
      </trkpt>
      <trkpt lat="39.350863" lon="-0.63483">
        <ele>188.25</ele>
        <time>2023-02-01T13:21:07Z</time>
      </trkpt>
      <trkpt lat="39.350965" lon="-0.635275">
        <ele>187.25</ele>
        <time>2023-02-01T13:21:27Z</time>
      </trkpt>
      <trkpt lat="39.351151" lon="-0.636081">
        <ele>185.75</ele>
        <time>2023-02-01T13:21:47Z</time>
      </trkpt>
      <trkpt lat="39.35121" lon="-0.637025">
        <ele>184.5</ele>
      </trkpt>
      <trkpt lat="39.351193" lon="-0.637755">
        <ele>184.75</ele>
      </trkpt>
      <trkpt lat="39.351126" lon="-0.637959">
        <ele>184.75</ele>
      </trkpt>
      <trkpt lat="39.351143" lon="-0.640029">
        <ele>181.5</ele>
      </trkpt>
      <trkpt lat="39.351293" lon="-0.640533">
        <ele>179.5</ele>
      </trkpt>
      <trkpt lat="39.351649" lon="-0.641156">
        <ele>177.75</ele>
      </trkpt>
      <trkpt lat="39.351541" lon="-0.641799">
        <ele>178.75</ele>
      </trkpt>
      <trkpt lat="39.350861" lon="-0.642969">
        <ele>178</ele>
      </trkpt>
      <trkpt lat="39.350604" lon="-0.644374">
        <ele>175</ele>
      </trkpt>
      <trkpt lat="39.350613" lon="-0.644671">
        <ele>175.25</ele>
      </trkpt>
      <trkpt lat="39.35062" lon="-0.644922">
        <ele>175.25</ele>
      </trkpt>
      <trkpt lat="39.350745" lon="-0.645362">
        <ele>177.25</ele>
      </trkpt>
      <trkpt lat="39.35043" lon="-0.647271">
        <ele>187.25</ele>
      </trkpt>
      <trkpt lat="39.350098" lon="-0.648237">
        <ele>187</ele>
      </trkpt>
      <trkpt lat="39.349807" lon="-0.649245">
        <ele>177.25</ele>
      </trkpt>
      <trkpt lat="39.349807" lon="-0.649567">
        <ele>174.5</ele>
      </trkpt>
      <trkpt lat="39.349907" lon="-0.649846">
        <ele>172.25</ele>
      </trkpt>
      <trkpt lat="39.350314" lon="-0.650468">
        <ele>169.5</ele>
      </trkpt>
      <trkpt lat="39.350936" lon="-0.651155">
        <ele>163.25</ele>
      </trkpt>
      <trkpt lat="39.351077" lon="-0.65183">
        <ele>158.75</ele>
      </trkpt>
      <trkpt lat="39.351201" lon="-0.651915">
        <ele>158.5</ele>
      </trkpt>
      <trkpt lat="39.351608" lon="-0.65183">
        <ele>159.25</ele>
      </trkpt>
      <trkpt lat="39.351808" lon="-0.65209">
        <ele>158.25</ele>
      </trkpt>
      <trkpt lat="39.351906" lon="-0.65286">
        <ele>160</ele>
      </trkpt>
      <trkpt lat="39.351998" lon="-0.653053">
        <ele>162</ele>
      </trkpt>
      <trkpt lat="39.352379" lon="-0.653074">
        <ele>163.25</ele>
      </trkpt>
      <trkpt lat="39.352529" lon="-0.653224">
        <ele>165.75</ele>
      </trkpt>
      <trkpt lat="39.353151" lon="-0.654641">
        <ele>174.5</ele>
      </trkpt>
      <trkpt lat="39.352736" lon="-0.65493">
        <ele>178</ele>
      </trkpt>
      <trkpt lat="39.352587" lon="-0.654909">
        <ele>178.75</ele>
      </trkpt>
      <trkpt lat="39.352529" lon="-0.655392">
        <ele>181.5</ele>
      </trkpt>
      <trkpt lat="39.352413" lon="-0.655681">
        <ele>184</ele>
      </trkpt>
      <trkpt lat="39.352305" lon="-0.655831">
        <ele>186</ele>
      </trkpt>
      <trkpt lat="39.351973" lon="-0.656819">
        <ele>194.5</ele>
      </trkpt>
      <trkpt lat="39.350994" lon="-0.657591">
        <ele>195.5</ele>
      </trkpt>
      <trkpt lat="39.350757" lon="-0.658179">
        <ele>194.25</ele>
      </trkpt>
      <trkpt lat="39.351079" lon="-0.659773">
        <ele>196</ele>
      </trkpt>
      <trkpt lat="39.351422" lon="-0.662038">
        <ele>198.75</ele>
      </trkpt>
      <trkpt lat="39.351027" lon="-0.662265">
        <ele>198.25</ele>
      </trkpt>
      <trkpt lat="39.350816" lon="-0.662265">
        <ele>197.5</ele>
      </trkpt>
      <trkpt lat="39.350728" lon="-0.662312">
        <ele>197.25</ele>
      </trkpt>
      <trkpt lat="39.350589" lon="-0.662576">
        <ele>197.75</ele>
      </trkpt>
      <trkpt lat="39.350355" lon="-0.662576">
        <ele>196.5</ele>
      </trkpt>
      <trkpt lat="39.350289" lon="-0.662671">
        <ele>196.25</ele>
      </trkpt>
      <trkpt lat="39.350282" lon="-0.663635">
        <ele>196.5</ele>
      </trkpt>
      <trkpt lat="39.350326" lon="-0.664017">
        <ele>197.25</ele>
      </trkpt>
      <trkpt lat="39.350691" lon="-0.664613">
        <ele>198.25</ele>
      </trkpt>
      <trkpt lat="39.350889" lon="-0.665057">
        <ele>196.25</ele>
      </trkpt>
      <trkpt lat="39.350881" lon="-0.66517">
        <ele>195.75</ele>
      </trkpt>
      <trkpt lat="39.350626" lon="-0.665435">
        <ele>196.25</ele>
      </trkpt>
      <trkpt lat="39.348843" lon="-0.666814">
        <ele>207.25</ele>
      </trkpt>
      <trkpt lat="39.348034" lon="-0.666924">
        <ele>209.75</ele>
      </trkpt>
      <trkpt lat="39.347641" lon="-0.667359">
        <ele>213.25</ele>
      </trkpt>
      <trkpt lat="39.347439" lon="-0.667693">
        <ele>213.25</ele>
      </trkpt>
      <trkpt lat="39.347383" lon="-0.668174">
        <ele>209.25</ele>
      </trkpt>
      <trkpt lat="39.347411" lon="-0.668573">
        <ele>207.5</ele>
      </trkpt>
      <trkpt lat="39.347192" lon="-0.668885">
        <ele>209.75</ele>
      </trkpt>
      <trkpt lat="39.346985" lon="-0.669095">
        <ele>212.25</ele>
      </trkpt>
      <trkpt lat="39.347237" lon="-0.669762">
        <ele>209</ele>
      </trkpt>
      <trkpt lat="39.347439" lon="-0.670553">
        <ele>208.75</ele>
      </trkpt>
      <trkpt lat="39.34763" lon="-0.670624">
        <ele>206</ele>
      </trkpt>
      <trkpt lat="39.347978" lon="-0.67128">
        <ele>204.25</ele>
      </trkpt>
      <trkpt lat="39.348939" lon="-0.672161">
        <ele>203.5</ele>
      </trkpt>
      <trkpt lat="39.349215" lon="-0.672553">
        <ele>203.75</ele>
      </trkpt>
      <trkpt lat="39.34934" lon="-0.67273">
        <ele>204</ele>
      </trkpt>
      <trkpt lat="39.349567" lon="-0.67273">
        <ele>202</ele>
      </trkpt>
      <trkpt lat="39.349633" lon="-0.673024">
        <ele>200.5</ele>
      </trkpt>
      <trkpt lat="39.350154" lon="-0.673577">
        <ele>195.25</ele>
      </trkpt>
      <trkpt lat="39.350074" lon="-0.673749">
        <ele>196</ele>
      </trkpt>
      <trkpt lat="39.349981" lon="-0.674043">
        <ele>196.75</ele>
      </trkpt>
      <trkpt lat="39.350115" lon="-0.674185">
        <ele>196.25</ele>
      </trkpt>
      <trkpt lat="39.349892" lon="-0.674386">
        <ele>199.25</ele>
      </trkpt>
      <trkpt lat="39.349284" lon="-0.674865">
        <ele>204.25</ele>
      </trkpt>
      <trkpt lat="39.348365" lon="-0.675977">
        <ele>213</ele>
      </trkpt>
      <trkpt lat="39.347861" lon="-0.676408">
        <ele>218</ele>
      </trkpt>
      <trkpt lat="39.347165" lon="-0.676906">
        <ele>224.25</ele>
      </trkpt>
      <trkpt lat="39.346898" lon="-0.677136">
        <ele>227</ele>
      </trkpt>
      <trkpt lat="39.346312" lon="-0.678306">
        <ele>232.5</ele>
      </trkpt>
      <trkpt lat="39.346001" lon="-0.67866">
        <ele>236.25</ele>
      </trkpt>
      <trkpt lat="39.345897" lon="-0.679245">
        <ele>235.25</ele>
      </trkpt>
      <trkpt lat="39.345868" lon="-0.679887">
        <ele>235.5</ele>
      </trkpt>
      <trkpt lat="39.345631" lon="-0.680366">
        <ele>243.25</ele>
      </trkpt>
      <trkpt lat="39.345608" lon="-0.680874">
        <ele>244.5</ele>
      </trkpt>
      <trkpt lat="39.345001" lon="-0.681679">
        <ele>252.75</ele>
      </trkpt>
      <trkpt lat="39.34486" lon="-0.681785">
        <ele>256.75</ele>
      </trkpt>
      <trkpt lat="39.344756" lon="-0.682091">
        <ele>258.5</ele>
      </trkpt>
      <trkpt lat="39.344496" lon="-0.683174">
        <ele>262.25</ele>
      </trkpt>
      <trkpt lat="39.344556" lon="-0.683462">
        <ele>260.5</ele>
      </trkpt>
      <trkpt lat="39.344563" lon="-0.683836">
        <ele>260.25</ele>
      </trkpt>
      <trkpt lat="39.3444" lon="-0.684152">
        <ele>263.75</ele>
      </trkpt>
      <trkpt lat="39.344052" lon="-0.684238">
        <ele>272</ele>
      </trkpt>
      <trkpt lat="39.343777" lon="-0.684171">
        <ele>277</ele>
      </trkpt>
      <trkpt lat="39.343607" lon="-0.684066">
        <ele>280.75</ele>
      </trkpt>
      <trkpt lat="39.343096" lon="-0.684545">
        <ele>287.5</ele>
      </trkpt>
      <trkpt lat="39.342553" lon="-0.685447">
        <ele>291.5</ele>
      </trkpt>
      <trkpt lat="39.341992" lon="-0.685681">
        <ele>292</ele>
      </trkpt>
      <trkpt lat="39.341514" lon="-0.686298">
        <ele>296.5</ele>
      </trkpt>
      <trkpt lat="39.34085" lon="-0.686766">
        <ele>298</ele>
      </trkpt>
      <trkpt lat="39.340198" lon="-0.6875">
        <ele>296.5</ele>
      </trkpt>
      <trkpt lat="39.339604" lon="-0.687917">
        <ele>291.5</ele>
      </trkpt>
      <trkpt lat="39.339114" lon="-0.687892">
        <ele>290.25</ele>
      </trkpt>
      <trkpt lat="39.338578" lon="-0.6879">
        <ele>286.5</ele>
      </trkpt>
      <trkpt lat="39.338454" lon="-0.687991">
        <ele>285.75</ele>
      </trkpt>
      <trkpt lat="39.337959" lon="-0.688351">
        <ele>283</ele>
      </trkpt>
      <trkpt lat="39.337455" lon="-0.68861">
        <ele>281</ele>
      </trkpt>
      <trkpt lat="39.337055" lon="-0.688633">
        <ele>282.25</ele>
      </trkpt>
      <trkpt lat="39.336967" lon="-0.688697">
        <ele>282.5</ele>
      </trkpt>
      <trkpt lat="39.336921" lon="-0.688814">
        <ele>282.75</ele>
      </trkpt>
      <trkpt lat="39.336892" lon="-0.688966">
        <ele>283</ele>
      </trkpt>
      <trkpt lat="39.336865" lon="-0.68955">
        <ele>282.25</ele>
      </trkpt>
      <trkpt lat="39.336868" lon="-0.69">
        <ele>281.5</ele>
      </trkpt>
      <trkpt lat="39.336885" lon="-0.690214">
        <ele>280</ele>
      </trkpt>
      <trkpt lat="39.336909" lon="-0.690375">
        <ele>279</ele>
      </trkpt>
      <trkpt lat="39.336907" lon="-0.690512">
        <ele>278.25</ele>
      </trkpt>
      <trkpt lat="39.336892" lon="-0.69061">
        <ele>277.75</ele>
      </trkpt>
      <trkpt lat="39.336844" lon="-0.69073">
        <ele>277</ele>
      </trkpt>
      <trkpt lat="39.336684" lon="-0.691028">
        <ele>276</ele>
      </trkpt>
      <trkpt lat="39.336536" lon="-0.691355">
        <ele>275.25</ele>
      </trkpt>
      <trkpt lat="39.3364" lon="-0.691581">
        <ele>275.25</ele>
      </trkpt>
      <trkpt lat="39.336258" lon="-0.691739">
        <ele>275.25</ele>
      </trkpt>
      <trkpt lat="39.336047" lon="-0.691811">
        <ele>276</ele>
      </trkpt>
      <trkpt lat="39.335873" lon="-0.691838">
        <ele>277</ele>
      </trkpt>
      <trkpt lat="39.335495" lon="-0.691731">
        <ele>277.5</ele>
      </trkpt>
      <trkpt lat="39.335279" lon="-0.691715">
        <ele>277.25</ele>
      </trkpt>
      <trkpt lat="39.334696" lon="-0.691833">
        <ele>276.75</ele>
      </trkpt>
      <trkpt lat="39.334597" lon="-0.691862">
        <ele>277</ele>
      </trkpt>
      <trkpt lat="39.334487" lon="-0.691948">
        <ele>277.25</ele>
      </trkpt>
      <trkpt lat="39.334337" lon="-0.692128">
        <ele>277.75</ele>
      </trkpt>
      <trkpt lat="39.334227" lon="-0.692326">
        <ele>278.25</ele>
      </trkpt>
      <trkpt lat="39.334173" lon="-0.692466">
        <ele>278.75</ele>
      </trkpt>
      <trkpt lat="39.334144" lon="-0.693002">
        <ele>278.75</ele>
      </trkpt>
      <trkpt lat="39.33413" lon="-0.69315">
        <ele>279</ele>
      </trkpt>
      <trkpt lat="39.334099" lon="-0.693265">
        <ele>279</ele>
      </trkpt>
      <trkpt lat="39.334045" lon="-0.693364">
        <ele>278.75</ele>
      </trkpt>
      <trkpt lat="39.33362" lon="-0.693753">
        <ele>277.5</ele>
      </trkpt>
      <trkpt lat="39.333387" lon="-0.694005">
        <ele>277.25</ele>
      </trkpt>
      <trkpt lat="39.333344" lon="-0.69404">
        <ele>277.25</ele>
      </trkpt>
      <trkpt lat="39.333271" lon="-0.694067">
        <ele>277</ele>
      </trkpt>
      <trkpt lat="39.333196" lon="-0.694051">
        <ele>276.75</ele>
      </trkpt>
      <trkpt lat="39.33307" lon="-0.693979">
        <ele>276.25</ele>
      </trkpt>
      <trkpt lat="39.332952" lon="-0.693936">
        <ele>275.5</ele>
      </trkpt>
      <trkpt lat="39.332879" lon="-0.69396">
        <ele>275.25</ele>
      </trkpt>
      <trkpt lat="39.332823" lon="-0.694013">
        <ele>275</ele>
      </trkpt>
      <trkpt lat="39.332736" lon="-0.694169">
        <ele>274.75</ele>
      </trkpt>
      <trkpt lat="39.332528" lon="-0.694432">
        <ele>273.25</ele>
      </trkpt>
      <trkpt lat="39.332379" lon="-0.694558">
        <ele>272.5</ele>
      </trkpt>
      <trkpt lat="39.332278" lon="-0.694655">
        <ele>271.75</ele>
      </trkpt>
      <trkpt lat="39.332225" lon="-0.695046">
        <ele>271.25</ele>
      </trkpt>
      <trkpt lat="39.332104" lon="-0.695864">
        <ele>274</ele>
      </trkpt>
      <trkpt lat="39.332018" lon="-0.696079">
        <ele>274.5</ele>
      </trkpt>
      <trkpt lat="39.33194" lon="-0.696261">
        <ele>275</ele>
      </trkpt>
      <trkpt lat="39.331739" lon="-0.696634">
        <ele>276.5</ele>
      </trkpt>
      <trkpt lat="39.331602" lon="-0.696938">
        <ele>277.75</ele>
      </trkpt>
      <trkpt lat="39.331614" lon="-0.696987">
        <ele>278.25</ele>
      </trkpt>
      <trkpt lat="39.331619" lon="-0.697085">
        <ele>278.5</ele>
      </trkpt>
      <trkpt lat="39.331613" lon="-0.697146">
        <ele>278.75</ele>
      </trkpt>
      <trkpt lat="39.33157" lon="-0.697373">
        <ele>279.5</ele>
      </trkpt>
      <trkpt lat="39.331459" lon="-0.697875">
        <ele>280.25</ele>
      </trkpt>
      <trkpt lat="39.331223" lon="-0.69877">
        <ele>282.25</ele>
      </trkpt>
      <trkpt lat="39.331207" lon="-0.698858">
        <ele>282.75</ele>
      </trkpt>
      <trkpt lat="39.33119" lon="-0.699167">
        <ele>284.25</ele>
      </trkpt>
      <trkpt lat="39.331179" lon="-0.699252">
        <ele>284.5</ele>
      </trkpt>
      <trkpt lat="39.331089" lon="-0.699642">
        <ele>285.25</ele>
      </trkpt>
      <trkpt lat="39.331057" lon="-0.699845">
        <ele>285.75</ele>
      </trkpt>
      <trkpt lat="39.331044" lon="-0.699965">
        <ele>286.25</ele>
      </trkpt>
      <trkpt lat="39.331045" lon="-0.700241">
        <ele>286</ele>
      </trkpt>
      <trkpt lat="39.33104" lon="-0.700337">
        <ele>286</ele>
      </trkpt>
      <trkpt lat="39.331009" lon="-0.700563">
        <ele>286.25</ele>
      </trkpt>
      <trkpt lat="39.330904" lon="-0.700932">
        <ele>287.75</ele>
      </trkpt>
      <trkpt lat="39.330771" lon="-0.701334">
        <ele>289</ele>
      </trkpt>
      <trkpt lat="39.330756" lon="-0.701386">
        <ele>288.75</ele>
      </trkpt>
      <trkpt lat="39.330748" lon="-0.701441">
        <ele>289</ele>
      </trkpt>
      <trkpt lat="39.330724" lon="-0.701593">
        <ele>289</ele>
      </trkpt>
      <trkpt lat="39.33076" lon="-0.701637">
        <ele>289.5</ele>
      </trkpt>
      <trkpt lat="39.330798" lon="-0.701766">
        <ele>290.25</ele>
      </trkpt>
      <trkpt lat="39.330882" lon="-0.702254">
        <ele>292.5</ele>
      </trkpt>
      <trkpt lat="39.330983" lon="-0.703223">
        <ele>294.5</ele>
      </trkpt>
      <trkpt lat="39.331058" lon="-0.703367">
        <ele>294.5</ele>
      </trkpt>
      <trkpt lat="39.331144" lon="-0.703507">
        <ele>294.5</ele>
      </trkpt>
      <trkpt lat="39.331222" lon="-0.703614">
        <ele>294.75</ele>
      </trkpt>
      <trkpt lat="39.331354" lon="-0.703773">
        <ele>296</ele>
      </trkpt>
      <trkpt lat="39.331458" lon="-0.703919">
        <ele>297.75</ele>
      </trkpt>
      <trkpt lat="39.331507" lon="-0.704003">
        <ele>299</ele>
      </trkpt>
      <trkpt lat="39.331585" lon="-0.704162">
        <ele>301.75</ele>
      </trkpt>
      <trkpt lat="39.331623" lon="-0.704261">
        <ele>302.75</ele>
      </trkpt>
      <trkpt lat="39.331659" lon="-0.704383">
        <ele>303.75</ele>
      </trkpt>
      <trkpt lat="39.33172" lon="-0.704634">
        <ele>304.75</ele>
      </trkpt>
      <trkpt lat="39.331738" lon="-0.704746">
        <ele>305</ele>
      </trkpt>
      <trkpt lat="39.331754" lon="-0.70495">
        <ele>305.75</ele>
      </trkpt>
      <trkpt lat="39.331762" lon="-0.705139">
        <ele>306</ele>
      </trkpt>
      <trkpt lat="39.33176" lon="-0.70572">
        <ele>307.25</ele>
      </trkpt>
      <trkpt lat="39.331751" lon="-0.705997">
        <ele>308.5</ele>
      </trkpt>
      <trkpt lat="39.331755" lon="-0.706152">
        <ele>309.25</ele>
      </trkpt>
      <trkpt lat="39.331797" lon="-0.70636">
        <ele>309.75</ele>
      </trkpt>
      <trkpt lat="39.331842" lon="-0.706498">
        <ele>310</ele>
      </trkpt>
      <trkpt lat="39.331937" lon="-0.706721">
        <ele>309.25</ele>
      </trkpt>
      <trkpt lat="39.332168" lon="-0.707205">
        <ele>307.5</ele>
      </trkpt>
      <trkpt lat="39.33227" lon="-0.707309">
        <ele>308</ele>
      </trkpt>
      <trkpt lat="39.332354" lon="-0.707378">
        <ele>308.75</ele>
      </trkpt>
      <trkpt lat="39.332807" lon="-0.70769">
        <ele>312.25</ele>
      </trkpt>
      <trkpt lat="39.333058" lon="-0.708025">
        <ele>315</ele>
      </trkpt>
      <trkpt lat="39.333229" lon="-0.708184">
        <ele>318.25</ele>
      </trkpt>
      <trkpt lat="39.333617" lon="-0.708523">
        <ele>315.75</ele>
      </trkpt>
      <trkpt lat="39.333993" lon="-0.708916">
        <ele>314.75</ele>
      </trkpt>
      <trkpt lat="39.334348" lon="-0.709335">
        <ele>315.5</ele>
      </trkpt>
      <trkpt lat="39.334426" lon="-0.709427">
        <ele>314.75</ele>
      </trkpt>
      <trkpt lat="39.334489" lon="-0.709488">
        <ele>314.25</ele>
      </trkpt>
      <trkpt lat="39.334559" lon="-0.709577">
        <ele>314.25</ele>
      </trkpt>
      <trkpt lat="39.334616" lon="-0.709663">
        <ele>314.25</ele>
      </trkpt>
      <trkpt lat="39.33482" lon="-0.710099">
        <ele>316</ele>
      </trkpt>
      <trkpt lat="39.334856" lon="-0.710156">
        <ele>316.25</ele>
      </trkpt>
      <trkpt lat="39.334887" lon="-0.71019">
        <ele>316.25</ele>
      </trkpt>
      <trkpt lat="39.335039" lon="-0.710298">
        <ele>316.5</ele>
      </trkpt>
      <trkpt lat="39.335125" lon="-0.710373">
        <ele>316</ele>
      </trkpt>
      <trkpt lat="39.335462" lon="-0.710771">
        <ele>316.25</ele>
      </trkpt>
      <trkpt lat="39.335702" lon="-0.711079">
        <ele>319</ele>
      </trkpt>
      <trkpt lat="39.335781" lon="-0.711198">
        <ele>320</ele>
      </trkpt>
      <trkpt lat="39.336326" lon="-0.712144">
        <ele>329.25</ele>
      </trkpt>
      <trkpt lat="39.336378" lon="-0.712217">
        <ele>330.25</ele>
      </trkpt>
      <trkpt lat="39.336438" lon="-0.712283">
        <ele>331.5</ele>
      </trkpt>
      <trkpt lat="39.336588" lon="-0.712428">
        <ele>334.25</ele>
      </trkpt>
      <trkpt lat="39.336676" lon="-0.712525">
        <ele>336</ele>
      </trkpt>
      <trkpt lat="39.336813" lon="-0.712708">
        <ele>337</ele>
      </trkpt>
      <trkpt lat="39.337117" lon="-0.713147">
        <ele>340.75</ele>
      </trkpt>
      <trkpt lat="39.337247" lon="-0.713307">
        <ele>342.75</ele>
      </trkpt>
      <trkpt lat="39.337382" lon="-0.713439">
        <ele>345.25</ele>
      </trkpt>
      <trkpt lat="39.337414" lon="-0.713478">
        <ele>345.75</ele>
      </trkpt>
      <trkpt lat="39.337438" lon="-0.713521">
        <ele>346.25</ele>
      </trkpt>
      <trkpt lat="39.337456" lon="-0.713571">
        <ele>346.75</ele>
      </trkpt>
      <trkpt lat="39.337462" lon="-0.713629">
        <ele>347.25</ele>
      </trkpt>
      <trkpt lat="39.337457" lon="-0.713744">
        <ele>348</ele>
      </trkpt>
      <trkpt lat="39.33737" lon="-0.71416">
        <ele>349.5</ele>
      </trkpt>
      <trkpt lat="39.337357" lon="-0.714306">
        <ele>349.5</ele>
      </trkpt>
      <trkpt lat="39.337362" lon="-0.714364">
        <ele>349.5</ele>
      </trkpt>
      <trkpt lat="39.337377" lon="-0.714435">
        <ele>349.5</ele>
      </trkpt>
      <trkpt lat="39.337498" lon="-0.714855">
        <ele>349.25</ele>
      </trkpt>
      <trkpt lat="39.337508" lon="-0.714907">
        <ele>349</ele>
      </trkpt>
      <trkpt lat="39.337512" lon="-0.714993">
        <ele>348.75</ele>
      </trkpt>
      <trkpt lat="39.337503" lon="-0.715099">
        <ele>349</ele>
      </trkpt>
      <trkpt lat="39.337391" lon="-0.715466">
        <ele>351.25</ele>
      </trkpt>
      <trkpt lat="39.337242" lon="-0.716266">
        <ele>356.25</ele>
      </trkpt>
      <trkpt lat="39.337193" lon="-0.716357">
        <ele>357.5</ele>
      </trkpt>
      <trkpt lat="39.33714" lon="-0.716414">
        <ele>358.75</ele>
      </trkpt>
      <trkpt lat="39.337026" lon="-0.716499">
        <ele>361.5</ele>
      </trkpt>
      <trkpt lat="39.336993" lon="-0.716532">
        <ele>362.5</ele>
      </trkpt>
      <trkpt lat="39.336773" lon="-0.716793">
        <ele>368.75</ele>
      </trkpt>
      <trkpt lat="39.336496" lon="-0.717202">
        <ele>376</ele>
      </trkpt>
      <trkpt lat="39.336447" lon="-0.717316">
        <ele>377</ele>
      </trkpt>
      <trkpt lat="39.336439" lon="-0.717362">
        <ele>377.25</ele>
      </trkpt>
      <trkpt lat="39.336449" lon="-0.717416">
        <ele>377.5</ele>
      </trkpt>
      <trkpt lat="39.336475" lon="-0.717469">
        <ele>377.25</ele>
      </trkpt>
      <trkpt lat="39.336624" lon="-0.717714">
        <ele>377</ele>
      </trkpt>
      <trkpt lat="39.336647" lon="-0.717784">
        <ele>377.25</ele>
      </trkpt>
      <trkpt lat="39.336678" lon="-0.717914">
        <ele>377.5</ele>
      </trkpt>
      <trkpt lat="39.336691" lon="-0.718066">
        <ele>378.5</ele>
      </trkpt>
      <trkpt lat="39.336686" lon="-0.71818">
        <ele>379.25</ele>
      </trkpt>
      <trkpt lat="39.336655" lon="-0.718438">
        <ele>381.5</ele>
      </trkpt>
      <trkpt lat="39.33665" lon="-0.718487">
        <ele>381.75</ele>
      </trkpt>
      <trkpt lat="39.336654" lon="-0.718567">
        <ele>382</ele>
      </trkpt>
      <trkpt lat="39.33669" lon="-0.718864">
        <ele>383</ele>
      </trkpt>
      <trkpt lat="39.336699" lon="-0.718984">
        <ele>383.5</ele>
      </trkpt>
      <trkpt lat="39.336698" lon="-0.719067">
        <ele>384</ele>
      </trkpt>
      <trkpt lat="39.336683" lon="-0.719193">
        <ele>384.75</ele>
      </trkpt>
      <trkpt lat="39.336599" lon="-0.719685">
        <ele>385.5</ele>
      </trkpt>
      <trkpt lat="39.336584" lon="-0.719844">
        <ele>385.5</ele>
      </trkpt>
      <trkpt lat="39.336591" lon="-0.719966">
        <ele>385.5</ele>
      </trkpt>
      <trkpt lat="39.336619" lon="-0.720073">
        <ele>385.75</ele>
      </trkpt>
      <trkpt lat="39.336643" lon="-0.720121">
        <ele>385.75</ele>
      </trkpt>
      <trkpt lat="39.336682" lon="-0.720172">
        <ele>386</ele>
      </trkpt>
      <trkpt lat="39.336842" lon="-0.720321">
        <ele>386.25</ele>
      </trkpt>
      <trkpt lat="39.336873" lon="-0.72036">
        <ele>386.25</ele>
      </trkpt>
      <trkpt lat="39.336916" lon="-0.720436">
        <ele>386.5</ele>
      </trkpt>
      <trkpt lat="39.336932" lon="-0.720489">
        <ele>386.5</ele>
      </trkpt>
      <trkpt lat="39.336948" lon="-0.720558">
        <ele>386.75</ele>
      </trkpt>
      <trkpt lat="39.336979" lon="-0.720791">
        <ele>387</ele>
      </trkpt>
      <trkpt lat="39.336991" lon="-0.721498">
        <ele>387.5</ele>
      </trkpt>
      <trkpt lat="39.336984" lon="-0.721575">
        <ele>387.5</ele>
      </trkpt>
      <trkpt lat="39.336968" lon="-0.721632">
        <ele>387.5</ele>
      </trkpt>
      <trkpt lat="39.33683" lon="-0.721928">
        <ele>388</ele>
      </trkpt>
      <trkpt lat="39.336788" lon="-0.722034">
        <ele>388.25</ele>
      </trkpt>
      <trkpt lat="39.33664" lon="-0.722484">
        <ele>390.75</ele>
      </trkpt>
      <trkpt lat="39.336519" lon="-0.722891">
        <ele>393.25</ele>
      </trkpt>
      <trkpt lat="39.336498" lon="-0.722997">
        <ele>393.75</ele>
      </trkpt>
      <trkpt lat="39.336487" lon="-0.723107">
        <ele>394.5</ele>
      </trkpt>
      <trkpt lat="39.336487" lon="-0.723285">
        <ele>395.5</ele>
      </trkpt>
      <trkpt lat="39.336556" lon="-0.723905">
        <ele>400</ele>
      </trkpt>
      <trkpt lat="39.336579" lon="-0.723996">
        <ele>400.75</ele>
      </trkpt>
      <trkpt lat="39.336726" lon="-0.7243">
        <ele>402</ele>
      </trkpt>
      <trkpt lat="39.336767" lon="-0.724425">
        <ele>401.75</ele>
      </trkpt>
      <trkpt lat="39.336835" lon="-0.724742">
        <ele>401.5</ele>
      </trkpt>
      <trkpt lat="39.336899" lon="-0.724941">
        <ele>401.5</ele>
      </trkpt>
      <trkpt lat="39.337195" lon="-0.725647">
        <ele>400.75</ele>
      </trkpt>
      <trkpt lat="39.337583" lon="-0.726733">
        <ele>401.25</ele>
      </trkpt>
      <trkpt lat="39.337606" lon="-0.72698">
        <ele>400.75</ele>
      </trkpt>
      <trkpt lat="39.337613" lon="-0.7272">
        <ele>400.5</ele>
      </trkpt>
      <trkpt lat="39.337595" lon="-0.727608">
        <ele>401</ele>
      </trkpt>
      <trkpt lat="39.337556" lon="-0.728072">
        <ele>402.5</ele>
      </trkpt>
      <trkpt lat="39.33748" lon="-0.728292">
        <ele>403.75</ele>
      </trkpt>
      <trkpt lat="39.337234" lon="-0.728912">
        <ele>402.25</ele>
      </trkpt>
      <trkpt lat="39.337131" lon="-0.72912">
        <ele>402</ele>
      </trkpt>
      <trkpt lat="39.336927" lon="-0.72944">
        <ele>401.5</ele>
      </trkpt>
      <trkpt lat="39.336787" lon="-0.729627">
        <ele>402.5</ele>
      </trkpt>
      <trkpt lat="39.336674" lon="-0.729805">
        <ele>404.5</ele>
      </trkpt>
      <trkpt lat="39.336584" lon="-0.729994">
        <ele>405.25</ele>
      </trkpt>
      <trkpt lat="39.336508" lon="-0.730194">
        <ele>405.5</ele>
      </trkpt>
      <trkpt lat="39.336312" lon="-0.730955">
        <ele>407</ele>
      </trkpt>
      <trkpt lat="39.336179" lon="-0.731523">
        <ele>407.25</ele>
      </trkpt>
      <trkpt lat="39.336152" lon="-0.731618">
        <ele>407.5</ele>
      </trkpt>
      <trkpt lat="39.336109" lon="-0.731731">
        <ele>407.5</ele>
      </trkpt>
      <trkpt lat="39.335881" lon="-0.732132">
        <ele>409.75</ele>
      </trkpt>
      <trkpt lat="39.335795" lon="-0.732313">
        <ele>411</ele>
      </trkpt>
      <trkpt lat="39.335684" lon="-0.732583">
        <ele>411.5</ele>
      </trkpt>
      <trkpt lat="39.335617" lon="-0.732784">
        <ele>411</ele>
      </trkpt>
      <trkpt lat="39.335593" lon="-0.732893">
        <ele>410.75</ele>
      </trkpt>
      <trkpt lat="39.335586" lon="-0.733027">
        <ele>410.75</ele>
      </trkpt>
      <trkpt lat="39.335592" lon="-0.733223">
        <ele>410.5</ele>
      </trkpt>
      <trkpt lat="39.335586" lon="-0.733418">
        <ele>410</ele>
      </trkpt>
      <trkpt lat="39.335572" lon="-0.733605">
        <ele>409.5</ele>
      </trkpt>
      <trkpt lat="39.335576" lon="-0.733767">
        <ele>409</ele>
      </trkpt>
      <trkpt lat="39.335593" lon="-0.733895">
        <ele>408.75</ele>
      </trkpt>
      <trkpt lat="39.335625" lon="-0.733994">
        <ele>408.5</ele>
      </trkpt>
      <trkpt lat="39.335772" lon="-0.734236">
        <ele>409</ele>
      </trkpt>
      <trkpt lat="39.335805" lon="-0.734323">
        <ele>409.5</ele>
      </trkpt>
      <trkpt lat="39.335843" lon="-0.734649">
        <ele>411</ele>
      </trkpt>
      <trkpt lat="39.335855" lon="-0.734713">
        <ele>411</ele>
      </trkpt>
      <trkpt lat="39.335915" lon="-0.734887">
        <ele>410.5</ele>
      </trkpt>
      <trkpt lat="39.336114" lon="-0.735227">
        <ele>408</ele>
      </trkpt>
      <trkpt lat="39.336185" lon="-0.735427">
        <ele>408</ele>
      </trkpt>
      <trkpt lat="39.33647" lon="-0.736781">
        <ele>414</ele>
      </trkpt>
      <trkpt lat="39.33656" lon="-0.737122">
        <ele>416.5</ele>
      </trkpt>
      <trkpt lat="39.3366" lon="-0.737956">
        <ele>421.75</ele>
      </trkpt>
      <trkpt lat="39.336624" lon="-0.738264">
        <ele>423.5</ele>
      </trkpt>
      <trkpt lat="39.336618" lon="-0.738369">
        <ele>423.75</ele>
      </trkpt>
      <trkpt lat="39.3366" lon="-0.73846">
        <ele>424</ele>
      </trkpt>
      <trkpt lat="39.336495" lon="-0.738747">
        <ele>424.75</ele>
      </trkpt>
      <trkpt lat="39.336436" lon="-0.738841">
        <ele>425</ele>
      </trkpt>
      <trkpt lat="39.336385" lon="-0.7389">
        <ele>425</ele>
      </trkpt>
      <trkpt lat="39.336318" lon="-0.738955">
        <ele>425.25</ele>
      </trkpt>
      <trkpt lat="39.336229" lon="-0.739007">
        <ele>425.25</ele>
      </trkpt>
      <trkpt lat="39.335994" lon="-0.739108">
        <ele>425.5</ele>
      </trkpt>
      <trkpt lat="39.335914" lon="-0.739155">
        <ele>425.75</ele>
      </trkpt>
      <trkpt lat="39.33577" lon="-0.739273">
        <ele>425.75</ele>
      </trkpt>
      <trkpt lat="39.335714" lon="-0.739348">
        <ele>425.5</ele>
      </trkpt>
      <trkpt lat="39.33565" lon="-0.739479">
        <ele>425.5</ele>
      </trkpt>
      <trkpt lat="39.335585" lon="-0.739647">
        <ele>425.5</ele>
      </trkpt>
      <trkpt lat="39.335457" lon="-0.740153">
        <ele>425.75</ele>
      </trkpt>
      <trkpt lat="39.335186" lon="-0.740743">
        <ele>426.75</ele>
      </trkpt>
      <trkpt lat="39.335158" lon="-0.740824">
        <ele>427.25</ele>
      </trkpt>
      <trkpt lat="39.335053" lon="-0.741197">
        <ele>429.5</ele>
      </trkpt>
      <trkpt lat="39.334897" lon="-0.741676">
        <ele>432.75</ele>
      </trkpt>
      <trkpt lat="39.334855" lon="-0.741761">
        <ele>432.75</ele>
      </trkpt>
      <trkpt lat="39.334812" lon="-0.741829">
        <ele>432.75</ele>
      </trkpt>
      <trkpt lat="39.334712" lon="-0.74193">
        <ele>432.75</ele>
      </trkpt>
      <trkpt lat="39.334522" lon="-0.74209">
        <ele>433.5</ele>
      </trkpt>
      <trkpt lat="39.3343" lon="-0.742264">
        <ele>434.75</ele>
      </trkpt>
      <trkpt lat="39.333926" lon="-0.742519">
        <ele>435.5</ele>
      </trkpt>
      <trkpt lat="39.333744" lon="-0.742675">
        <ele>435</ele>
      </trkpt>
      <trkpt lat="39.333589" lon="-0.742817">
        <ele>434.75</ele>
      </trkpt>
      <trkpt lat="39.332909" lon="-0.743563">
        <ele>440.5</ele>
      </trkpt>
      <trkpt lat="39.332733" lon="-0.743863">
        <ele>443.75</ele>
      </trkpt>
      <trkpt lat="39.332682" lon="-0.743936">
        <ele>445</ele>
      </trkpt>
      <trkpt lat="39.332441" lon="-0.744207">
        <ele>449.75</ele>
      </trkpt>
      <trkpt lat="39.332394" lon="-0.744285">
        <ele>450.25</ele>
      </trkpt>
      <trkpt lat="39.332361" lon="-0.744359">
        <ele>450.75</ele>
      </trkpt>
      <trkpt lat="39.332141" lon="-0.744985">
        <ele>454</ele>
      </trkpt>
      <trkpt lat="39.332089" lon="-0.745093">
        <ele>455</ele>
      </trkpt>
      <trkpt lat="39.332033" lon="-0.745187">
        <ele>456.25</ele>
      </trkpt>
      <trkpt lat="39.331876" lon="-0.74536">
        <ele>458.75</ele>
      </trkpt>
      <trkpt lat="39.331843" lon="-0.74541">
        <ele>459.5</ele>
      </trkpt>
      <trkpt lat="39.33182" lon="-0.745454">
        <ele>459.75</ele>
      </trkpt>
      <trkpt lat="39.331752" lon="-0.745638">
        <ele>461.25</ele>
      </trkpt>
      <trkpt lat="39.331725" lon="-0.745739">
        <ele>461.75</ele>
      </trkpt>
      <trkpt lat="39.331675" lon="-0.745827">
        <ele>462.75</ele>
      </trkpt>
      <trkpt lat="39.331642" lon="-0.745853">
        <ele>463</ele>
      </trkpt>
      <trkpt lat="39.331537" lon="-0.745882">
        <ele>464.25</ele>
      </trkpt>
      <trkpt lat="39.331469" lon="-0.745886">
        <ele>465</ele>
      </trkpt>
      <trkpt lat="39.331396" lon="-0.745873">
        <ele>466</ele>
      </trkpt>
      <trkpt lat="39.331244" lon="-0.745805">
        <ele>468</ele>
      </trkpt>
      <trkpt lat="39.330966" lon="-0.745665">
        <ele>471.5</ele>
      </trkpt>
      <trkpt lat="39.330858" lon="-0.745624">
        <ele>472.75</ele>
      </trkpt>
      <trkpt lat="39.330713" lon="-0.745589">
        <ele>474</ele>
      </trkpt>
      <trkpt lat="39.330633" lon="-0.745589">
        <ele>474.75</ele>
      </trkpt>
      <trkpt lat="39.330545" lon="-0.745607">
        <ele>475.25</ele>
      </trkpt>
      <trkpt lat="39.330408" lon="-0.745665">
        <ele>476.25</ele>
      </trkpt>
      <trkpt lat="39.329768" lon="-0.745983">
        <ele>480.25</ele>
      </trkpt>
      <trkpt lat="39.329709" lon="-0.746027">
        <ele>481</ele>
      </trkpt>
      <trkpt lat="39.32966" lon="-0.746075">
        <ele>481.25</ele>
      </trkpt>
      <trkpt lat="39.329612" lon="-0.746131">
        <ele>481.75</ele>
      </trkpt>
      <trkpt lat="39.329569" lon="-0.746206">
        <ele>482</ele>
      </trkpt>
      <trkpt lat="39.329542" lon="-0.74627">
        <ele>482.25</ele>
      </trkpt>
      <trkpt lat="39.329523" lon="-0.746348">
        <ele>482.5</ele>
      </trkpt>
      <trkpt lat="39.329516" lon="-0.746431">
        <ele>482.5</ele>
      </trkpt>
      <trkpt lat="39.329529" lon="-0.74652">
        <ele>482.75</ele>
      </trkpt>
      <trkpt lat="39.329556" lon="-0.746611">
        <ele>482.75</ele>
      </trkpt>
      <trkpt lat="39.329606" lon="-0.746678">
        <ele>483</ele>
      </trkpt>
      <trkpt lat="39.329661" lon="-0.746727">
        <ele>483.5</ele>
      </trkpt>
      <trkpt lat="39.330205" lon="-0.747121">
        <ele>487.25</ele>
      </trkpt>
      <trkpt lat="39.330257" lon="-0.747176">
        <ele>487.5</ele>
      </trkpt>
      <trkpt lat="39.330386" lon="-0.747337">
        <ele>488.75</ele>
      </trkpt>
      <trkpt lat="39.330532" lon="-0.747445">
        <ele>489</ele>
      </trkpt>
      <trkpt lat="39.330563" lon="-0.747488">
        <ele>489.25</ele>
      </trkpt>
      <trkpt lat="39.330774" lon="-0.747956">
        <ele>492.25</ele>
      </trkpt>
      <trkpt lat="39.330796" lon="-0.748048">
        <ele>493.25</ele>
      </trkpt>
      <trkpt lat="39.330804" lon="-0.748135">
        <ele>494</ele>
      </trkpt>
      <trkpt lat="39.330802" lon="-0.748351">
        <ele>496.25</ele>
      </trkpt>
      <trkpt lat="39.330839" lon="-0.748545">
        <ele>496</ele>
      </trkpt>
      <trkpt lat="39.330835" lon="-0.748604">
        <ele>496.25</ele>
      </trkpt>
      <trkpt lat="39.330795" lon="-0.74869">
        <ele>496.5</ele>
      </trkpt>
      <trkpt lat="39.330451" lon="-0.749109">
        <ele>496.25</ele>
      </trkpt>
      <trkpt lat="39.330372" lon="-0.749242">
        <ele>495.25</ele>
      </trkpt>
      <trkpt lat="39.330286" lon="-0.749462">
        <ele>493</ele>
      </trkpt>
      <trkpt lat="39.330188" lon="-0.749767">
        <ele>489.5</ele>
      </trkpt>
      <trkpt lat="39.330121" lon="-0.750019">
        <ele>486.25</ele>
      </trkpt>
      <trkpt lat="39.330114" lon="-0.750106">
        <ele>485.75</ele>
      </trkpt>
      <trkpt lat="39.330119" lon="-0.750211">
        <ele>485.5</ele>
      </trkpt>
      <trkpt lat="39.330199" lon="-0.75072">
        <ele>484.5</ele>
      </trkpt>
      <trkpt lat="39.3303" lon="-0.751174">
        <ele>484</ele>
      </trkpt>
      <trkpt lat="39.330308" lon="-0.751317">
        <ele>483.5</ele>
      </trkpt>
      <trkpt lat="39.330302" lon="-0.751426">
        <ele>483</ele>
      </trkpt>
      <trkpt lat="39.330286" lon="-0.751524">
        <ele>482.75</ele>
      </trkpt>
      <trkpt lat="39.330212" lon="-0.751725">
        <ele>482.5</ele>
      </trkpt>
      <trkpt lat="39.330156" lon="-0.751833">
        <ele>483.25</ele>
      </trkpt>
      <trkpt lat="39.329902" lon="-0.752206">
        <ele>485.25</ele>
      </trkpt>
      <trkpt lat="39.329841" lon="-0.752316">
        <ele>485.75</ele>
      </trkpt>
      <trkpt lat="39.329761" lon="-0.752491">
        <ele>486.5</ele>
      </trkpt>
      <trkpt lat="39.32974" lon="-0.752566">
        <ele>486.75</ele>
      </trkpt>
      <trkpt lat="39.329734" lon="-0.752641">
        <ele>487.25</ele>
      </trkpt>
      <trkpt lat="39.329737" lon="-0.752835">
        <ele>488</ele>
      </trkpt>
      <trkpt lat="39.329781" lon="-0.753079">
        <ele>489.25</ele>
      </trkpt>
      <trkpt lat="39.329831" lon="-0.753282">
        <ele>490.5</ele>
      </trkpt>
      <trkpt lat="39.329906" lon="-0.753418">
        <ele>491.75</ele>
      </trkpt>
      <trkpt lat="39.329964" lon="-0.753487">
        <ele>492.75</ele>
      </trkpt>
      <trkpt lat="39.330034" lon="-0.753545">
        <ele>493.5</ele>
      </trkpt>
      <trkpt lat="39.330186" lon="-0.753618">
        <ele>495</ele>
      </trkpt>
      <trkpt lat="39.330242" lon="-0.753655">
        <ele>495.75</ele>
      </trkpt>
      <trkpt lat="39.330282" lon="-0.753695">
        <ele>496.25</ele>
      </trkpt>
      <trkpt lat="39.330308" lon="-0.753741">
        <ele>496.75</ele>
      </trkpt>
      <trkpt lat="39.33032" lon="-0.753799">
        <ele>497.5</ele>
      </trkpt>
      <trkpt lat="39.330323" lon="-0.753866">
        <ele>498</ele>
      </trkpt>
      <trkpt lat="39.330298" lon="-0.753996">
        <ele>499.25</ele>
      </trkpt>
      <trkpt lat="39.330293" lon="-0.754077">
        <ele>499.75</ele>
      </trkpt>
      <trkpt lat="39.330298" lon="-0.754145">
        <ele>500.5</ele>
      </trkpt>
      <trkpt lat="39.330314" lon="-0.754219">
        <ele>500.75</ele>
      </trkpt>
      <trkpt lat="39.330333" lon="-0.754264">
        <ele>501</ele>
      </trkpt>
      <trkpt lat="39.330365" lon="-0.754309">
        <ele>501.25</ele>
      </trkpt>
      <trkpt lat="39.330501" lon="-0.754451">
        <ele>502.25</ele>
      </trkpt>
      <trkpt lat="39.33051" lon="-0.75446">
        <ele>502.5</ele>
      </trkpt>
      <trkpt lat="39.330594" lon="-0.754567">
        <ele>503.25</ele>
      </trkpt>
      <trkpt lat="39.330678" lon="-0.754708">
        <ele>504.25</ele>
      </trkpt>
      <trkpt lat="39.330811" lon="-0.754902">
        <ele>505.5</ele>
      </trkpt>
      <trkpt lat="39.330847" lon="-0.754983">
        <ele>506</ele>
      </trkpt>
      <trkpt lat="39.330866" lon="-0.755072">
        <ele>506</ele>
      </trkpt>
      <trkpt lat="39.330871" lon="-0.755146">
        <ele>506</ele>
      </trkpt>
      <trkpt lat="39.330867" lon="-0.755259">
        <ele>505.75</ele>
      </trkpt>
      <trkpt lat="39.330817" lon="-0.755585">
        <ele>505</ele>
      </trkpt>
      <trkpt lat="39.330815" lon="-0.755668">
        <ele>504.75</ele>
      </trkpt>
      <trkpt lat="39.330817" lon="-0.755781">
        <ele>504.75</ele>
      </trkpt>
      <trkpt lat="39.33085" lon="-0.756146">
        <ele>505</ele>
      </trkpt>
      <trkpt lat="39.330887" lon="-0.75636">
        <ele>505</ele>
      </trkpt>
      <trkpt lat="39.330989" lon="-0.756848">
        <ele>505</ele>
      </trkpt>
      <trkpt lat="39.331041" lon="-0.757008">
        <ele>505</ele>
      </trkpt>
      <trkpt lat="39.331127" lon="-0.75724">
        <ele>504.75</ele>
      </trkpt>
      <trkpt lat="39.331232" lon="-0.757485">
        <ele>504.75</ele>
      </trkpt>
      <trkpt lat="39.331312" lon="-0.757696">
        <ele>504.75</ele>
      </trkpt>
      <trkpt lat="39.331347" lon="-0.757798">
        <ele>504.5</ele>
      </trkpt>
      <trkpt lat="39.331362" lon="-0.757869">
        <ele>504.5</ele>
      </trkpt>
      <trkpt lat="39.331383" lon="-0.758032">
        <ele>504.25</ele>
      </trkpt>
      <trkpt lat="39.331399" lon="-0.758292">
        <ele>503.75</ele>
      </trkpt>
      <trkpt lat="39.331372" lon="-0.758995">
        <ele>506</ele>
      </trkpt>
      <trkpt lat="39.331379" lon="-0.759067">
        <ele>506.25</ele>
      </trkpt>
      <trkpt lat="39.33139" lon="-0.759116">
        <ele>506.75</ele>
      </trkpt>
      <trkpt lat="39.331469" lon="-0.759295">
        <ele>508</ele>
      </trkpt>
      <trkpt lat="39.331483" lon="-0.759361">
        <ele>508.5</ele>
      </trkpt>
      <trkpt lat="39.331485" lon="-0.759428">
        <ele>508.5</ele>
      </trkpt>
      <trkpt lat="39.331427" lon="-0.759757">
        <ele>509</ele>
      </trkpt>
      <trkpt lat="39.331349" lon="-0.760441">
        <ele>507.75</ele>
      </trkpt>
      <trkpt lat="39.331291" lon="-0.760726">
        <ele>506.5</ele>
      </trkpt>
      <trkpt lat="39.331286" lon="-0.760814">
        <ele>506.25</ele>
      </trkpt>
      <trkpt lat="39.331334" lon="-0.761289">
        <ele>508.5</ele>
      </trkpt>
      <trkpt lat="39.33133" lon="-0.76141">
        <ele>508.75</ele>
      </trkpt>
      <trkpt lat="39.331298" lon="-0.761653">
        <ele>509.5</ele>
      </trkpt>
      <trkpt lat="39.331275" lon="-0.761776">
        <ele>509.75</ele>
      </trkpt>
      <trkpt lat="39.331235" lon="-0.761914">
        <ele>509.75</ele>
      </trkpt>
      <trkpt lat="39.331011" lon="-0.762492">
        <ele>509.75</ele>
      </trkpt>
      <trkpt lat="39.330949" lon="-0.76271">
        <ele>508.75</ele>
      </trkpt>
      <trkpt lat="39.330916" lon="-0.762931">
        <ele>507.75</ele>
      </trkpt>
      <trkpt lat="39.330912" lon="-0.763226">
        <ele>506.5</ele>
      </trkpt>
      <trkpt lat="39.33089" lon="-0.76346">
        <ele>505.75</ele>
      </trkpt>
      <trkpt lat="39.330847" lon="-0.763724">
        <ele>505</ele>
      </trkpt>
      <trkpt lat="39.330781" lon="-0.764365">
        <ele>502</ele>
      </trkpt>
      <trkpt lat="39.330754" lon="-0.764505">
        <ele>500.75</ele>
      </trkpt>
      <trkpt lat="39.330721" lon="-0.764613">
        <ele>499.75</ele>
      </trkpt>
      <trkpt lat="39.330643" lon="-0.764807">
        <ele>498.25</ele>
      </trkpt>
      <trkpt lat="39.33062" lon="-0.764903">
        <ele>497.75</ele>
      </trkpt>
      <trkpt lat="39.330606" lon="-0.765014">
        <ele>497</ele>
      </trkpt>
      <trkpt lat="39.330603" lon="-0.765213">
        <ele>496.75</ele>
      </trkpt>
      <trkpt lat="39.330579" lon="-0.765313">
        <ele>496.75</ele>
      </trkpt>
      <trkpt lat="39.330485" lon="-0.765607">
        <ele>497</ele>
      </trkpt>
      <trkpt lat="39.33044" lon="-0.765886">
        <ele>497.25</ele>
      </trkpt>
      <trkpt lat="39.330464" lon="-0.766213">
        <ele>498.25</ele>
      </trkpt>
      <trkpt lat="39.330545" lon="-0.766688">
        <ele>499.5</ele>
      </trkpt>
      <trkpt lat="39.330554" lon="-0.766787">
        <ele>500</ele>
      </trkpt>
      <trkpt lat="39.330554" lon="-0.767143">
        <ele>502.5</ele>
      </trkpt>
      <trkpt lat="39.330535" lon="-0.767546">
        <ele>505.25</ele>
      </trkpt>
      <trkpt lat="39.330513" lon="-0.767675">
        <ele>505.75</ele>
      </trkpt>
      <trkpt lat="39.330479" lon="-0.767806">
        <ele>506.25</ele>
      </trkpt>
      <trkpt lat="39.330447" lon="-0.767892">
        <ele>506.75</ele>
      </trkpt>
      <trkpt lat="39.330382" lon="-0.768006">
        <ele>507.75</ele>
      </trkpt>
      <trkpt lat="39.330301" lon="-0.768116">
        <ele>508.75</ele>
      </trkpt>
      <trkpt lat="39.330114" lon="-0.768328">
        <ele>511.5</ele>
      </trkpt>
      <trkpt lat="39.330028" lon="-0.768436">
        <ele>513</ele>
      </trkpt>
      <trkpt lat="39.32999" lon="-0.768541">
        <ele>513.5</ele>
      </trkpt>
      <trkpt lat="39.329966" lon="-0.768655">
        <ele>514</ele>
      </trkpt>
      <trkpt lat="39.329944" lon="-0.768717">
        <ele>514.25</ele>
      </trkpt>
      <trkpt lat="39.329875" lon="-0.768825">
        <ele>514.75</ele>
      </trkpt>
      <trkpt lat="39.329841" lon="-0.76886">
        <ele>514.75</ele>
      </trkpt>
      <trkpt lat="39.329804" lon="-0.768881">
        <ele>514.75</ele>
      </trkpt>
      <trkpt lat="39.329758" lon="-0.768893">
        <ele>515</ele>
      </trkpt>
      <trkpt lat="39.329685" lon="-0.768897">
        <ele>515</ele>
      </trkpt>
      <trkpt lat="39.329503" lon="-0.768897">
        <ele>515</ele>
      </trkpt>
      <trkpt lat="39.329464" lon="-0.768907">
        <ele>515</ele>
      </trkpt>
      <trkpt lat="39.329408" lon="-0.768942">
        <ele>515</ele>
      </trkpt>
      <trkpt lat="39.329387" lon="-0.768979">
        <ele>515.25</ele>
      </trkpt>
      <trkpt lat="39.329103" lon="-0.769791">
        <ele>517.5</ele>
      </trkpt>
      <trkpt lat="39.328977" lon="-0.770126">
        <ele>518</ele>
      </trkpt>
      <trkpt lat="39.328947" lon="-0.770178">
        <ele>518</ele>
      </trkpt>
      <trkpt lat="39.328733" lon="-0.770543">
        <ele>518.25</ele>
      </trkpt>
      <trkpt lat="39.328518" lon="-0.771221">
        <ele>519.5</ele>
      </trkpt>
      <trkpt lat="39.328304" lon="-0.771418">
        <ele>518.75</ele>
      </trkpt>
      <trkpt lat="39.328084" lon="-0.77172">
        <ele>521.75</ele>
      </trkpt>
      <trkpt lat="39.32787" lon="-0.771991">
        <ele>522.75</ele>
      </trkpt>
      <trkpt lat="39.327622" lon="-0.772429">
        <ele>522.25</ele>
      </trkpt>
      <trkpt lat="39.327603" lon="-0.772688">
        <ele>521</ele>
      </trkpt>
      <trkpt lat="39.327493" lon="-0.773169">
        <ele>518</ele>
      </trkpt>
      <trkpt lat="39.327546" lon="-0.773434">
        <ele>516.75</ele>
      </trkpt>
      <trkpt lat="39.32755" lon="-0.77381">
        <ele>515.25</ele>
      </trkpt>
      <trkpt lat="39.327693" lon="-0.77418">
        <ele>513.25</ele>
      </trkpt>
      <trkpt lat="39.327498" lon="-0.77503">
        <ele>511</ele>
      </trkpt>
      <trkpt lat="39.327684" lon="-0.775745">
        <ele>510.25</ele>
      </trkpt>
      <trkpt lat="39.327956" lon="-0.776195">
        <ele>506.5</ele>
      </trkpt>
      <trkpt lat="39.328451" lon="-0.77731">
        <ele>498</ele>
      </trkpt>
      <trkpt lat="39.328504" lon="-0.777575">
        <ele>496.5</ele>
      </trkpt>
      <trkpt lat="39.328494" lon="-0.777791">
        <ele>495.75</ele>
      </trkpt>
      <trkpt lat="39.328468" lon="-0.777929">
        <ele>495.75</ele>
      </trkpt>
      <trkpt lat="39.328441" lon="-0.778017">
        <ele>496</ele>
      </trkpt>
      <trkpt lat="39.32831" lon="-0.778334">
        <ele>497</ele>
      </trkpt>
      <trkpt lat="39.328287" lon="-0.778487">
        <ele>496.75</ele>
      </trkpt>
      <trkpt lat="39.328262" lon="-0.778827">
        <ele>496.25</ele>
      </trkpt>
      <trkpt lat="39.328247" lon="-0.77909">
        <ele>495.5</ele>
      </trkpt>
      <trkpt lat="39.328255" lon="-0.77919">
        <ele>495.25</ele>
      </trkpt>
      <trkpt lat="39.328297" lon="-0.779346">
        <ele>495.75</ele>
      </trkpt>
      <trkpt lat="39.328403" lon="-0.779496">
        <ele>495.75</ele>
      </trkpt>
      <trkpt lat="39.328426" lon="-0.779548">
        <ele>495.75</ele>
      </trkpt>
      <trkpt lat="39.328443" lon="-0.779615">
        <ele>496</ele>
      </trkpt>
      <trkpt lat="39.328443" lon="-0.779727">
        <ele>496.25</ele>
      </trkpt>
      <trkpt lat="39.32843" lon="-0.779868">
        <ele>496.75</ele>
      </trkpt>
      <trkpt lat="39.328439" lon="-0.779975">
        <ele>497</ele>
      </trkpt>
      <trkpt lat="39.328491" lon="-0.780251">
        <ele>498</ele>
      </trkpt>
      <trkpt lat="39.328515" lon="-0.780603">
        <ele>499.5</ele>
      </trkpt>
      <trkpt lat="39.328534" lon="-0.780696">
        <ele>499.75</ele>
      </trkpt>
      <trkpt lat="39.32856" lon="-0.780782">
        <ele>500.25</ele>
      </trkpt>
      <trkpt lat="39.32883" lon="-0.781469">
        <ele>499.5</ele>
      </trkpt>
      <trkpt lat="39.328857" lon="-0.781518">
        <ele>499.25</ele>
      </trkpt>
      <trkpt lat="39.328891" lon="-0.781563">
        <ele>499.5</ele>
      </trkpt>
      <trkpt lat="39.329119" lon="-0.781745">
        <ele>500</ele>
      </trkpt>
      <trkpt lat="39.329142" lon="-0.781769">
        <ele>500</ele>
      </trkpt>
      <trkpt lat="39.329174" lon="-0.781831">
        <ele>499.75</ele>
      </trkpt>
      <trkpt lat="39.329241" lon="-0.781982">
        <ele>498.75</ele>
      </trkpt>
      <trkpt lat="39.329329" lon="-0.782235">
        <ele>497</ele>
      </trkpt>
      <trkpt lat="39.329347" lon="-0.782346">
        <ele>496.25</ele>
      </trkpt>
      <trkpt lat="39.329336" lon="-0.782453">
        <ele>495.5</ele>
      </trkpt>
      <trkpt lat="39.329326" lon="-0.782579">
        <ele>495.25</ele>
      </trkpt>
      <trkpt lat="39.329325" lon="-0.782727">
        <ele>495</ele>
      </trkpt>
      <trkpt lat="39.329376" lon="-0.783332">
        <ele>493.75</ele>
      </trkpt>
      <trkpt lat="39.329305" lon="-0.783763">
        <ele>496.75</ele>
      </trkpt>
      <trkpt lat="39.329128" lon="-0.784995">
        <ele>503.75</ele>
      </trkpt>
      <trkpt lat="39.328938" lon="-0.785211">
        <ele>504.75</ele>
      </trkpt>
      <trkpt lat="39.328699" lon="-0.785254">
        <ele>505</ele>
      </trkpt>
      <trkpt lat="39.328351" lon="-0.785069">
        <ele>504.25</ele>
      </trkpt>
      <trkpt lat="39.328208" lon="-0.78518">
        <ele>503.5</ele>
      </trkpt>
      <trkpt lat="39.327918" lon="-0.78563">
        <ele>503.25</ele>
      </trkpt>
      <trkpt lat="39.327898" lon="-0.786265">
        <ele>503</ele>
      </trkpt>
      <trkpt lat="39.328146" lon="-0.786753">
        <ele>503</ele>
      </trkpt>
      <trkpt lat="39.328918" lon="-0.787714">
        <ele>500.5</ele>
      </trkpt>
      <trkpt lat="39.329037" lon="-0.788004">
        <ele>499.5</ele>
      </trkpt>
      <trkpt lat="39.328971" lon="-0.78939">
        <ele>496</ele>
      </trkpt>
      <trkpt lat="39.329118" lon="-0.789945">
        <ele>496</ele>
      </trkpt>
      <trkpt lat="39.329209" lon="-0.790186">
        <ele>493.75</ele>
      </trkpt>
      <trkpt lat="39.329376" lon="-0.79066">
        <ele>489</ele>
      </trkpt>
      <trkpt lat="39.329457" lon="-0.79119">
        <ele>487.75</ele>
      </trkpt>
      <trkpt lat="39.329705" lon="-0.791689">
        <ele>487.75</ele>
      </trkpt>
      <trkpt lat="39.329724" lon="-0.792028">
        <ele>489.75</ele>
      </trkpt>
      <trkpt lat="39.329781" lon="-0.79217">
        <ele>491</ele>
      </trkpt>
      <trkpt lat="39.329962" lon="-0.792219">
        <ele>491.75</ele>
      </trkpt>
      <trkpt lat="39.330417" lon="-0.79251">
        <ele>483.5</ele>
      </trkpt>
      <trkpt lat="39.330641" lon="-0.793003">
        <ele>486.5</ele>
      </trkpt>
      <trkpt lat="39.330755" lon="-0.793256">
        <ele>487.25</ele>
      </trkpt>
      <trkpt lat="39.330955" lon="-0.793435">
        <ele>484.5</ele>
      </trkpt>
      <trkpt lat="39.331928" lon="-0.794852">
        <ele>486</ele>
      </trkpt>
      <trkpt lat="39.332495" lon="-0.795934">
        <ele>486.5</ele>
      </trkpt>
      <trkpt lat="39.332542" lon="-0.796415">
        <ele>491.75</ele>
      </trkpt>
      <trkpt lat="39.332781" lon="-0.796803">
        <ele>485.5</ele>
      </trkpt>
      <trkpt lat="39.332843" lon="-0.797296">
        <ele>483</ele>
      </trkpt>
      <trkpt lat="39.332681" lon="-0.797635">
        <ele>485</ele>
      </trkpt>
      <trkpt lat="39.332447" lon="-0.79774">
        <ele>490</ele>
      </trkpt>
      <trkpt lat="39.332066" lon="-0.798134">
        <ele>496.5</ele>
      </trkpt>
      <trkpt lat="39.331994" lon="-0.798269">
        <ele>496.75</ele>
      </trkpt>
      <trkpt lat="39.332171" lon="-0.799126">
        <ele>487.75</ele>
      </trkpt>
      <trkpt lat="39.332085" lon="-0.799687">
        <ele>491.5</ele>
      </trkpt>
      <trkpt lat="39.332052" lon="-0.800272">
        <ele>495.25</ele>
      </trkpt>
      <trkpt lat="39.332109" lon="-0.800506">
        <ele>495.75</ele>
      </trkpt>
      <trkpt lat="39.332414" lon="-0.80079">
        <ele>493.75</ele>
      </trkpt>
      <trkpt lat="39.332862" lon="-0.801432">
        <ele>489.25</ele>
      </trkpt>
      <trkpt lat="39.333102" lon="-0.801914">
        <ele>488</ele>
      </trkpt>
      <trkpt lat="39.33326" lon="-0.802413">
        <ele>487.5</ele>
      </trkpt>
      <trkpt lat="39.33331" lon="-0.802832">
        <ele>484.75</ele>
      </trkpt>
      <trkpt lat="39.333347" lon="-0.803213">
        <ele>481.5</ele>
      </trkpt>
      <trkpt lat="39.33331" lon="-0.80362">
        <ele>478.75</ele>
      </trkpt>
      <trkpt lat="39.333181" lon="-0.804028">
        <ele>476</ele>
      </trkpt>
      <trkpt lat="39.333235" lon="-0.804361">
        <ele>472.75</ele>
      </trkpt>
      <trkpt lat="39.333451" lon="-0.804742">
        <ele>468.25</ele>
      </trkpt>
      <trkpt lat="39.333617" lon="-0.805283">
        <ele>462.25</ele>
      </trkpt>
      <trkpt lat="39.333833" lon="-0.805448">
        <ele>459.25</ele>
      </trkpt>
      <trkpt lat="39.334102" lon="-0.80578">
        <ele>456.25</ele>
      </trkpt>
      <trkpt lat="39.334156" lon="-0.806241">
        <ele>454.25</ele>
      </trkpt>
      <trkpt lat="39.334318" lon="-0.806842">
        <ele>447</ele>
      </trkpt>
      <trkpt lat="39.334355" lon="-0.807223">
        <ele>442.25</ele>
      </trkpt>
      <trkpt lat="39.334467" lon="-0.807416">
        <ele>437.5</ele>
      </trkpt>
      <trkpt lat="39.33448" lon="-0.807706">
        <ele>434.25</ele>
      </trkpt>
      <trkpt lat="39.334347" lon="-0.808055">
        <ele>433.25</ele>
      </trkpt>
      <trkpt lat="39.33431" lon="-0.808253">
        <ele>431.5</ele>
      </trkpt>
      <trkpt lat="39.334306" lon="-0.808591">
        <ele>428.5</ele>
      </trkpt>
      <trkpt lat="39.334368" lon="-0.808795">
        <ele>426.5</ele>
      </trkpt>
      <trkpt lat="39.334629" lon="-0.80901">
        <ele>424.25</ele>
      </trkpt>
      <trkpt lat="39.334812" lon="-0.809111">
        <ele>423.75</ele>
      </trkpt>
      <trkpt lat="39.334841" lon="-0.809197">
        <ele>423.5</ele>
      </trkpt>
      <trkpt lat="39.334787" lon="-0.809262">
        <ele>422.75</ele>
      </trkpt>
      <trkpt lat="39.334617" lon="-0.809288">
        <ele>422.25</ele>
      </trkpt>
      <trkpt lat="39.333996" lon="-0.809734">
        <ele>410.5</ele>
      </trkpt>
      <trkpt lat="39.333855" lon="-0.809744">
        <ele>408.5</ele>
      </trkpt>
      <trkpt lat="39.333743" lon="-0.809653">
        <ele>408.5</ele>
      </trkpt>
      <trkpt lat="39.333664" lon="-0.809455">
        <ele>410.25</ele>
      </trkpt>
      <trkpt lat="39.333581" lon="-0.809299">
        <ele>411.25</ele>
      </trkpt>
      <trkpt lat="39.333452" lon="-0.809246">
        <ele>410</ele>
      </trkpt>
      <trkpt lat="39.333079" lon="-0.809305">
        <ele>401.75</ele>
      </trkpt>
      <trkpt lat="39.332917" lon="-0.809267">
        <ele>398.75</ele>
      </trkpt>
      <trkpt lat="39.332763" lon="-0.809138">
        <ele>397</ele>
      </trkpt>
      <trkpt lat="39.332651" lon="-0.808875">
        <ele>397.25</ele>
      </trkpt>
      <trkpt lat="39.332493" lon="-0.808151">
        <ele>401.75</ele>
      </trkpt>
      <trkpt lat="39.332406" lon="-0.808135">
        <ele>401.25</ele>
      </trkpt>
      <trkpt lat="39.332298" lon="-0.808183">
        <ele>399.25</ele>
      </trkpt>
      <trkpt lat="39.332041" lon="-0.808613">
        <ele>390</ele>
      </trkpt>
      <trkpt lat="39.331966" lon="-0.808963">
        <ele>384.75</ele>
      </trkpt>
      <trkpt lat="39.331937" lon="-0.809101">
        <ele>382.75</ele>
      </trkpt>
      <trkpt lat="39.33173" lon="-0.809315">
        <ele>377.5</ele>
      </trkpt>
      <trkpt lat="39.331485" lon="-0.809444">
        <ele>373.25</ele>
      </trkpt>
      <trkpt lat="39.331136" lon="-0.809669">
        <ele>368.25</ele>
      </trkpt>
      <trkpt lat="39.330861" lon="-0.809246">
        <ele>367.75</ele>
      </trkpt>
      <trkpt lat="39.330783" lon="-0.808865">
        <ele>371</ele>
      </trkpt>
      <trkpt lat="39.329529" lon="-0.806853">
        <ele>372.75</ele>
      </trkpt>
      <trkpt lat="39.329148" lon="-0.80641">
        <ele>370.5</ele>
      </trkpt>
      <trkpt lat="39.328429" lon="-0.806494">
        <ele>367.5</ele>
      </trkpt>
      <trkpt lat="39.328252" lon="-0.806424">
        <ele>367.25</ele>
      </trkpt>
      <trkpt lat="39.3281" lon="-0.806326">
        <ele>367.25</ele>
      </trkpt>
      <trkpt lat="39.327985" lon="-0.806321">
        <ele>366.75</ele>
      </trkpt>
      <trkpt lat="39.32762" lon="-0.806634">
        <ele>363.5</ele>
      </trkpt>
      <trkpt lat="39.327269" lon="-0.807125">
        <ele>360.25</ele>
      </trkpt>
      <trkpt lat="39.32674" lon="-0.80775">
        <ele>359</ele>
      </trkpt>
      <trkpt lat="39.326454" lon="-0.807979">
        <ele>359.25</ele>
      </trkpt>
      <trkpt lat="39.326288" lon="-0.808409">
        <ele>358.75</ele>
      </trkpt>
      <trkpt lat="39.32605" lon="-0.809137">
        <ele>361.25</ele>
      </trkpt>
      <trkpt lat="39.325956" lon="-0.809661">
        <ele>363.75</ele>
      </trkpt>
      <trkpt lat="39.326394" lon="-0.811516">
        <ele>363.75</ele>
      </trkpt>
      <trkpt lat="39.326694" lon="-0.81212">
        <ele>361.25</ele>
      </trkpt>
      <trkpt lat="39.326718" lon="-0.812167">
        <ele>361</ele>
      </trkpt>
      <trkpt lat="39.327255" lon="-0.812156">
        <ele>357</ele>
      </trkpt>
      <trkpt lat="39.327396" lon="-0.812153">
        <ele>356</ele>
      </trkpt>
      <trkpt lat="39.327873" lon="-0.81342">
        <ele>352.5</ele>
      </trkpt>
      <trkpt lat="39.328113" lon="-0.813754">
        <ele>351.25</ele>
      </trkpt>
      <trkpt lat="39.328192" lon="-0.813933">
        <ele>350.75</ele>
      </trkpt>
      <trkpt lat="39.328154" lon="-0.814161">
        <ele>351.5</ele>
      </trkpt>
      <trkpt lat="39.32795" lon="-0.815008">
        <ele>353</ele>
      </trkpt>
      <trkpt lat="39.32784" lon="-0.815466">
        <ele>353</ele>
      </trkpt>
      <trkpt lat="39.327874" lon="-0.81599">
        <ele>351.75</ele>
      </trkpt>
      <trkpt lat="39.328094" lon="-0.817245">
        <ele>348.75</ele>
      </trkpt>
      <trkpt lat="39.328173" lon="-0.817284">
        <ele>348.25</ele>
      </trkpt>
      <trkpt lat="39.329087" lon="-0.817903">
        <ele>343.5</ele>
      </trkpt>
      <trkpt lat="39.329702" lon="-0.818332">
        <ele>343.75</ele>
      </trkpt>
      <trkpt lat="39.329703" lon="-0.818481">
        <ele>344.25</ele>
      </trkpt>
      <trkpt lat="39.329873" lon="-0.81906">
        <ele>345.5</ele>
      </trkpt>
      <trkpt lat="39.330063" lon="-0.819807">
        <ele>345</ele>
      </trkpt>
      <trkpt lat="39.330151" lon="-0.820149">
        <ele>344.75</ele>
      </trkpt>
      <trkpt lat="39.330226" lon="-0.820627">
        <ele>345.25</ele>
      </trkpt>
      <trkpt lat="39.330072" lon="-0.821077">
        <ele>345.75</ele>
      </trkpt>
      <trkpt lat="39.329944" lon="-0.821678">
        <ele>344.5</ele>
      </trkpt>
      <trkpt lat="39.329948" lon="-0.822054">
        <ele>344.75</ele>
      </trkpt>
      <trkpt lat="39.330056" lon="-0.822338">
        <ele>345</ele>
      </trkpt>
      <trkpt lat="39.330192" lon="-0.822472">
        <ele>346</ele>
      </trkpt>
      <trkpt lat="39.330226" lon="-0.822794">
        <ele>348.25</ele>
      </trkpt>
      <trkpt lat="39.33023" lon="-0.823497">
        <ele>352</ele>
      </trkpt>
      <trkpt lat="39.330109" lon="-0.824358">
        <ele>351.25</ele>
      </trkpt>
      <trkpt lat="39.330051" lon="-0.825409">
        <ele>352.75</ele>
      </trkpt>
      <trkpt lat="39.330101" lon="-0.825699">
        <ele>354</ele>
      </trkpt>
      <trkpt lat="39.330429" lon="-0.826053">
        <ele>358.5</ele>
      </trkpt>
      <trkpt lat="39.330896" lon="-0.826153">
        <ele>363.5</ele>
      </trkpt>
      <trkpt lat="39.331153" lon="-0.826121">
        <ele>365.75</ele>
      </trkpt>
      <trkpt lat="39.331336" lon="-0.826153">
        <ele>367.25</ele>
      </trkpt>
      <trkpt lat="39.331493" lon="-0.826346">
        <ele>368.25</ele>
      </trkpt>
      <trkpt lat="39.331746" lon="-0.826894">
        <ele>369.75</ele>
      </trkpt>
      <trkpt lat="39.331813" lon="-0.827451">
        <ele>369.25</ele>
      </trkpt>
      <trkpt lat="39.331721" lon="-0.828229">
        <ele>371</ele>
      </trkpt>
      <trkpt lat="39.331705" lon="-0.828771">
        <ele>372</ele>
      </trkpt>
      <trkpt lat="39.331883" lon="-0.82935">
        <ele>370.25</ele>
      </trkpt>
      <trkpt lat="39.332218" lon="-0.830086">
        <ele>366.5</ele>
      </trkpt>
      <trkpt lat="39.332641" lon="-0.831068">
        <ele>363.25</ele>
      </trkpt>
      <trkpt lat="39.332853" lon="-0.831701">
        <ele>363</ele>
      </trkpt>
      <trkpt lat="39.332899" lon="-0.832243">
        <ele>361.25</ele>
      </trkpt>
      <trkpt lat="39.333044" lon="-0.833455">
        <ele>361.25</ele>
      </trkpt>
      <trkpt lat="39.333181" lon="-0.833762">
        <ele>362.25</ele>
      </trkpt>
      <trkpt lat="39.333475" lon="-0.834416">
        <ele>364.75</ele>
      </trkpt>
      <trkpt lat="39.33356" lon="-0.834509">
        <ele>365.5</ele>
      </trkpt>
      <trkpt lat="39.333789" lon="-0.834675">
        <ele>367</ele>
      </trkpt>
      <trkpt lat="39.333441" lon="-0.836006">
        <ele>368.5</ele>
      </trkpt>
      <trkpt lat="39.333227" lon="-0.836771">
        <ele>368.25</ele>
      </trkpt>
      <trkpt lat="39.333231" lon="-0.836915">
        <ele>368.75</ele>
      </trkpt>
      <trkpt lat="39.333232" lon="-0.837221">
        <ele>369.25</ele>
      </trkpt>
      <trkpt lat="39.3333" lon="-0.83724">
        <ele>369.25</ele>
      </trkpt>
      <trkpt lat="39.333336" lon="-0.837279">
        <ele>369.25</ele>
      </trkpt>
      <trkpt lat="39.333578" lon="-0.837674">
        <ele>369</ele>
      </trkpt>
      <trkpt lat="39.333616" lon="-0.837722">
        <ele>369</ele>
      </trkpt>
      <trkpt lat="39.333655" lon="-0.837757">
        <ele>369</ele>
      </trkpt>
      <trkpt lat="39.333746" lon="-0.837818">
        <ele>369</ele>
      </trkpt>
      <trkpt lat="39.333867" lon="-0.837829">
        <ele>368.5</ele>
      </trkpt>
      <trkpt lat="39.33397" lon="-0.83781">
        <ele>367.75</ele>
      </trkpt>
      <trkpt lat="39.334099" lon="-0.837719">
        <ele>366.25</ele>
      </trkpt>
      <trkpt lat="39.334157" lon="-0.837687">
        <ele>365.75</ele>
      </trkpt>
      <trkpt lat="39.334294" lon="-0.837641">
        <ele>364</ele>
      </trkpt>
      <trkpt lat="39.334336" lon="-0.837647">
        <ele>363.75</ele>
      </trkpt>
      <trkpt lat="39.334485" lon="-0.83773">
        <ele>363.25</ele>
      </trkpt>
      <trkpt lat="39.334692" lon="-0.837759">
        <ele>361.75</ele>
      </trkpt>
      <trkpt lat="39.334856" lon="-0.837767">
        <ele>360.25</ele>
      </trkpt>
      <trkpt lat="39.335055" lon="-0.837757">
        <ele>358.5</ele>
      </trkpt>
      <trkpt lat="39.335147" lon="-0.837765">
        <ele>358.25</ele>
      </trkpt>
      <trkpt lat="39.335306" lon="-0.837813">
        <ele>358.25</ele>
      </trkpt>
      <trkpt lat="39.335447" lon="-0.837885">
        <ele>358.5</ele>
      </trkpt>
      <trkpt lat="39.335516" lon="-0.83791">
        <ele>358.5</ele>
      </trkpt>
      <trkpt lat="39.335661" lon="-0.837888">
        <ele>357.5</ele>
      </trkpt>
      <trkpt lat="39.335755" lon="-0.837899">
        <ele>357</ele>
      </trkpt>
      <trkpt lat="39.335862" lon="-0.837942">
        <ele>357</ele>
      </trkpt>
      <trkpt lat="39.336032" lon="-0.838054">
        <ele>357</ele>
      </trkpt>
      <trkpt lat="39.336084" lon="-0.8381">
        <ele>357</ele>
      </trkpt>
      <trkpt lat="39.336205" lon="-0.838245">
        <ele>356.5</ele>
      </trkpt>
      <trkpt lat="39.336356" lon="-0.838366">
        <ele>355.5</ele>
      </trkpt>
      <trkpt lat="39.336734" lon="-0.838564">
        <ele>354.5</ele>
      </trkpt>
      <trkpt lat="39.336925" lon="-0.838677">
        <ele>354.25</ele>
      </trkpt>
      <trkpt lat="39.337024" lon="-0.838709">
        <ele>353.5</ele>
      </trkpt>
      <trkpt lat="39.337236" lon="-0.838754">
        <ele>351</ele>
      </trkpt>
      <trkpt lat="39.337364" lon="-0.838789">
        <ele>349.25</ele>
      </trkpt>
      <trkpt lat="39.337429" lon="-0.838819">
        <ele>348.5</ele>
      </trkpt>
      <trkpt lat="39.337487" lon="-0.838856">
        <ele>347.5</ele>
      </trkpt>
      <trkpt lat="39.337611" lon="-0.838953">
        <ele>348.25</ele>
      </trkpt>
      <trkpt lat="39.337698" lon="-0.838974">
        <ele>348.75</ele>
      </trkpt>
      <trkpt lat="39.337761" lon="-0.838969">
        <ele>348.75</ele>
      </trkpt>
      <trkpt lat="39.338462" lon="-0.838859">
        <ele>348.75</ele>
      </trkpt>
      <trkpt lat="39.338603" lon="-0.838859">
        <ele>348.25</ele>
      </trkpt>
      <trkpt lat="39.338648" lon="-0.838851">
        <ele>348</ele>
      </trkpt>
      <trkpt lat="39.33869" lon="-0.838832">
        <ele>347.5</ele>
      </trkpt>
      <trkpt lat="39.338873" lon="-0.838703">
        <ele>345</ele>
      </trkpt>
      <trkpt lat="39.338918" lon="-0.838698">
        <ele>344.75</ele>
      </trkpt>
      <trkpt lat="39.338951" lon="-0.838701">
        <ele>344.75</ele>
      </trkpt>
      <trkpt lat="39.338989" lon="-0.83872">
        <ele>345</ele>
      </trkpt>
      <trkpt lat="39.339041" lon="-0.838765">
        <ele>345.5</ele>
      </trkpt>
      <trkpt lat="39.339092" lon="-0.838824">
        <ele>346.25</ele>
      </trkpt>
      <trkpt lat="39.339121" lon="-0.838878">
        <ele>346.75</ele>
      </trkpt>
      <trkpt lat="39.339252" lon="-0.839256">
        <ele>351</ele>
      </trkpt>
      <trkpt lat="39.339346" lon="-0.839505">
        <ele>351.75</ele>
      </trkpt>
      <trkpt lat="39.339453" lon="-0.839988">
        <ele>353.25</ele>
      </trkpt>
      <trkpt lat="39.339538" lon="-0.840216">
        <ele>352.75</ele>
      </trkpt>
      <trkpt lat="39.339663" lon="-0.840522">
        <ele>352.25</ele>
      </trkpt>
      <trkpt lat="39.339681" lon="-0.840586">
        <ele>352.25</ele>
      </trkpt>
      <trkpt lat="39.339686" lon="-0.840637">
        <ele>352.25</ele>
      </trkpt>
      <trkpt lat="39.339677" lon="-0.840691">
        <ele>352.5</ele>
      </trkpt>
      <trkpt lat="39.339648" lon="-0.840758">
        <ele>353.25</ele>
      </trkpt>
      <trkpt lat="39.339321" lon="-0.841455">
        <ele>356</ele>
      </trkpt>
      <trkpt lat="39.339312" lon="-0.841504">
        <ele>355.75</ele>
      </trkpt>
      <trkpt lat="39.339312" lon="-0.841678">
        <ele>355.25</ele>
      </trkpt>
      <trkpt lat="39.339302" lon="-0.841764">
        <ele>355</ele>
      </trkpt>
      <trkpt lat="39.339173" lon="-0.842174">
        <ele>353</ele>
      </trkpt>
      <trkpt lat="39.339107" lon="-0.84233">
        <ele>352</ele>
      </trkpt>
      <trkpt lat="39.339059" lon="-0.842518">
        <ele>350.75</ele>
      </trkpt>
      <trkpt lat="39.339051" lon="-0.842601">
        <ele>350</ele>
      </trkpt>
      <trkpt lat="39.339053" lon="-0.842681">
        <ele>349.25</ele>
      </trkpt>
      <trkpt lat="39.339061" lon="-0.842743">
        <ele>348.75</ele>
      </trkpt>
      <trkpt lat="39.339113" lon="-0.842837">
        <ele>348.25</ele>
      </trkpt>
      <trkpt lat="39.339146" lon="-0.842864">
        <ele>348.25</ele>
      </trkpt>
      <trkpt lat="39.339283" lon="-0.842931">
        <ele>350</ele>
      </trkpt>
      <trkpt lat="39.33931" lon="-0.842957">
        <ele>350.25</ele>
      </trkpt>
      <trkpt lat="39.339339" lon="-0.843008">
        <ele>350.5</ele>
      </trkpt>
      <trkpt lat="39.339441" lon="-0.843271">
        <ele>350.25</ele>
      </trkpt>
      <trkpt lat="39.339466" lon="-0.843322">
        <ele>350.5</ele>
      </trkpt>
      <trkpt lat="39.339814" lon="-0.843789">
        <ele>351</ele>
      </trkpt>
      <trkpt lat="39.340165" lon="-0.844181">
        <ele>349.5</ele>
      </trkpt>
      <trkpt lat="39.340202" lon="-0.84424">
        <ele>349.25</ele>
      </trkpt>
      <trkpt lat="39.34037" lon="-0.844556">
        <ele>348.25</ele>
      </trkpt>
      <trkpt lat="39.340418" lon="-0.844671">
        <ele>347.75</ele>
      </trkpt>
      <trkpt lat="39.340462" lon="-0.844733">
        <ele>347.75</ele>
      </trkpt>
      <trkpt lat="39.340509" lon="-0.844776">
        <ele>348</ele>
      </trkpt>
      <trkpt lat="39.3407" lon="-0.844881">
        <ele>349.25</ele>
      </trkpt>
      <trkpt lat="39.340727" lon="-0.84491">
        <ele>349.25</ele>
      </trkpt>
      <trkpt lat="39.340756" lon="-0.844966">
        <ele>349.25</ele>
      </trkpt>
      <trkpt lat="39.340791" lon="-0.845186">
        <ele>348.25</ele>
      </trkpt>
      <trkpt lat="39.340816" lon="-0.845251">
        <ele>348</ele>
      </trkpt>
      <trkpt lat="39.340849" lon="-0.845302">
        <ele>348</ele>
      </trkpt>
      <trkpt lat="39.34109" lon="-0.845581">
        <ele>344.5</ele>
      </trkpt>
      <trkpt lat="39.341107" lon="-0.845624">
        <ele>344</ele>
      </trkpt>
      <trkpt lat="39.341109" lon="-0.845658">
        <ele>343.5</ele>
      </trkpt>
      <trkpt lat="39.3411" lon="-0.845691">
        <ele>343.25</ele>
      </trkpt>
      <trkpt lat="39.341078" lon="-0.845726">
        <ele>343</ele>
      </trkpt>
      <trkpt lat="39.340922" lon="-0.845878">
        <ele>343.25</ele>
      </trkpt>
      <trkpt lat="39.340721" lon="-0.846029">
        <ele>340.5</ele>
      </trkpt>
      <trkpt lat="39.340688" lon="-0.846066">
        <ele>339.75</ele>
      </trkpt>
      <trkpt lat="39.340681" lon="-0.846117">
        <ele>339</ele>
      </trkpt>
      <trkpt lat="39.340684" lon="-0.846412">
        <ele>335.75</ele>
      </trkpt>
      <trkpt lat="39.340659" lon="-0.846683">
        <ele>332.5</ele>
      </trkpt>
      <trkpt lat="39.340605" lon="-0.847061">
        <ele>328.5</ele>
      </trkpt>
      <trkpt lat="39.340582" lon="-0.847118">
        <ele>327.75</ele>
      </trkpt>
      <trkpt lat="39.340557" lon="-0.847161">
        <ele>327.25</ele>
      </trkpt>
      <trkpt lat="39.340536" lon="-0.847284">
        <ele>326</ele>
      </trkpt>
      <trkpt lat="39.340538" lon="-0.847346">
        <ele>325.5</ele>
      </trkpt>
      <trkpt lat="39.340555" lon="-0.847423">
        <ele>325.25</ele>
      </trkpt>
      <trkpt lat="39.340578" lon="-0.84748">
        <ele>325</ele>
      </trkpt>
      <trkpt lat="39.340627" lon="-0.847563">
        <ele>325</ele>
      </trkpt>
      <trkpt lat="39.340742" lon="-0.847708">
        <ele>325.25</ele>
      </trkpt>
      <trkpt lat="39.340791" lon="-0.847751">
        <ele>325.5</ele>
      </trkpt>
      <trkpt lat="39.340833" lon="-0.847772">
        <ele>325.5</ele>
      </trkpt>
      <trkpt lat="39.340874" lon="-0.847775">
        <ele>325.25</ele>
      </trkpt>
      <trkpt lat="39.34093" lon="-0.847743">
        <ele>325.25</ele>
      </trkpt>
      <trkpt lat="39.340957" lon="-0.847708">
        <ele>325.25</ele>
      </trkpt>
      <trkpt lat="39.341084" lon="-0.847343">
        <ele>326.25</ele>
      </trkpt>
      <trkpt lat="39.341136" lon="-0.847262">
        <ele>326.5</ele>
      </trkpt>
      <trkpt lat="39.341206" lon="-0.847177">
        <ele>326.5</ele>
      </trkpt>
      <trkpt lat="39.341258" lon="-0.847123">
        <ele>326.5</ele>
      </trkpt>
      <trkpt lat="39.34132" lon="-0.84708">
        <ele>326.25</ele>
      </trkpt>
      <trkpt lat="39.34165" lon="-0.846927">
        <ele>323.75</ele>
      </trkpt>
      <trkpt lat="39.341679" lon="-0.846906">
        <ele>323.5</ele>
      </trkpt>
      <trkpt lat="39.341704" lon="-0.846874">
        <ele>323.5</ele>
      </trkpt>
      <trkpt lat="39.341725" lon="-0.846774">
        <ele>323.75</ele>
      </trkpt>
      <trkpt lat="39.341746" lon="-0.846731">
        <ele>323.75</ele>
      </trkpt>
      <trkpt lat="39.341789" lon="-0.84671">
        <ele>323.25</ele>
      </trkpt>
      <trkpt lat="39.341812" lon="-0.846726">
        <ele>323</ele>
      </trkpt>
      <trkpt lat="39.341828" lon="-0.846764">
        <ele>322.5</ele>
      </trkpt>
      <trkpt lat="39.341837" lon="-0.846809">
        <ele>322.25</ele>
      </trkpt>
      <trkpt lat="39.341835" lon="-0.846852">
        <ele>322.25</ele>
      </trkpt>
      <trkpt lat="39.341822" lon="-0.846938">
        <ele>322</ele>
      </trkpt>
      <trkpt lat="39.341781" lon="-0.84708">
        <ele>321.75</ele>
      </trkpt>
      <trkpt lat="39.341721" lon="-0.847244">
        <ele>321.75</ele>
      </trkpt>
      <trkpt lat="39.341679" lon="-0.847351">
        <ele>321.5</ele>
      </trkpt>
      <trkpt lat="39.341607" lon="-0.847498">
        <ele>321.25</ele>
      </trkpt>
      <trkpt lat="39.341324" lon="-0.847882">
        <ele>322.5</ele>
      </trkpt>
      <trkpt lat="39.341243" lon="-0.848083">
        <ele>322.5</ele>
      </trkpt>
      <trkpt lat="39.34121" lon="-0.848115">
        <ele>322.5</ele>
      </trkpt>
      <trkpt lat="39.341196" lon="-0.848145">
        <ele>322.5</ele>
      </trkpt>
      <trkpt lat="39.341192" lon="-0.848166">
        <ele>322.5</ele>
      </trkpt>
      <trkpt lat="39.34121" lon="-0.848209">
        <ele>322.25</ele>
      </trkpt>
      <trkpt lat="39.341237" lon="-0.848228">
        <ele>322.25</ele>
      </trkpt>
      <trkpt lat="39.341279" lon="-0.848231">
        <ele>322</ele>
      </trkpt>
      <trkpt lat="39.341327" lon="-0.848228">
        <ele>322</ele>
      </trkpt>
      <trkpt lat="39.341439" lon="-0.848201">
        <ele>321.5</ele>
      </trkpt>
      <trkpt lat="39.341501" lon="-0.848166">
        <ele>321.5</ele>
      </trkpt>
      <trkpt lat="39.341592" lon="-0.848091">
        <ele>321.25</ele>
      </trkpt>
      <trkpt lat="39.342119" lon="-0.847697">
        <ele>319</ele>
      </trkpt>
      <trkpt lat="39.342262" lon="-0.847619">
        <ele>317.75</ele>
      </trkpt>
      <trkpt lat="39.34281" lon="-0.847429">
        <ele>314.5</ele>
      </trkpt>
      <trkpt lat="39.342882" lon="-0.847421">
        <ele>314.25</ele>
      </trkpt>
      <trkpt lat="39.34293" lon="-0.847434">
        <ele>314.25</ele>
      </trkpt>
      <trkpt lat="39.342972" lon="-0.847458">
        <ele>314.25</ele>
      </trkpt>
      <trkpt lat="39.343003" lon="-0.847488">
        <ele>314.25</ele>
      </trkpt>
      <trkpt lat="39.343038" lon="-0.847555">
        <ele>315</ele>
      </trkpt>
      <trkpt lat="39.34314" lon="-0.847936">
        <ele>319.5</ele>
      </trkpt>
      <trkpt lat="39.343247" lon="-0.848196">
        <ele>322.5</ele>
      </trkpt>
      <trkpt lat="39.34327" lon="-0.848282">
        <ele>323.5</ele>
      </trkpt>
      <trkpt lat="39.343272" lon="-0.848349">
        <ele>324.25</ele>
      </trkpt>
      <trkpt lat="39.343249" lon="-0.848472">
        <ele>326.25</ele>
      </trkpt>
      <trkpt lat="39.343229" lon="-0.848512">
        <ele>327</ele>
      </trkpt>
      <trkpt lat="39.343156" lon="-0.848617">
        <ele>329</ele>
      </trkpt>
      <trkpt lat="39.343142" lon="-0.848646">
        <ele>329.5</ele>
      </trkpt>
      <trkpt lat="39.343131" lon="-0.848705">
        <ele>330.5</ele>
      </trkpt>
      <trkpt lat="39.343144" lon="-0.848746">
        <ele>331.25</ele>
      </trkpt>
      <trkpt lat="39.343164" lon="-0.848781">
        <ele>331.5</ele>
      </trkpt>
      <trkpt lat="39.343198" lon="-0.848815">
        <ele>332</ele>
      </trkpt>
      <trkpt lat="39.343778" lon="-0.849076">
        <ele>332.5</ele>
      </trkpt>
      <trkpt lat="39.343861" lon="-0.849116">
        <ele>332.75</ele>
      </trkpt>
      <trkpt lat="39.343959" lon="-0.849207">
        <ele>333.75</ele>
      </trkpt>
      <trkpt lat="39.344052" lon="-0.849309">
        <ele>335.75</ele>
      </trkpt>
      <trkpt lat="39.344108" lon="-0.849341">
        <ele>336.25</ele>
      </trkpt>
      <trkpt lat="39.344326" lon="-0.849406">
        <ele>337.75</ele>
      </trkpt>
      <trkpt lat="39.344403" lon="-0.849438">
        <ele>338.5</ele>
      </trkpt>
      <trkpt lat="39.34461" lon="-0.84955">
        <ele>341.5</ele>
      </trkpt>
      <trkpt lat="39.344739" lon="-0.849604">
        <ele>342.75</ele>
      </trkpt>
      <trkpt lat="39.34505" lon="-0.84966">
        <ele>345</ele>
      </trkpt>
      <trkpt lat="39.345272" lon="-0.849735">
        <ele>348.5</ele>
      </trkpt>
      <trkpt lat="39.345606" lon="-0.849875">
        <ele>353.25</ele>
      </trkpt>
      <trkpt lat="39.345656" lon="-0.849931">
        <ele>354.25</ele>
      </trkpt>
      <trkpt lat="39.345695" lon="-0.849998">
        <ele>355.25</ele>
      </trkpt>
      <trkpt lat="39.345718" lon="-0.850052">
        <ele>355.25</ele>
      </trkpt>
      <trkpt lat="39.345726" lon="-0.850092">
        <ele>355.25</ele>
      </trkpt>
      <trkpt lat="39.345755" lon="-0.850122">
        <ele>355.25</ele>
      </trkpt>
      <trkpt lat="39.345834" lon="-0.850143">
        <ele>355.25</ele>
      </trkpt>
      <trkpt lat="39.346128" lon="-0.850143">
        <ele>359.75</ele>
      </trkpt>
      <trkpt lat="39.346185" lon="-0.850157">
        <ele>360.5</ele>
      </trkpt>
      <trkpt lat="39.346245" lon="-0.850186">
        <ele>361.25</ele>
      </trkpt>
      <trkpt lat="39.346782" lon="-0.850602">
        <ele>366.75</ele>
      </trkpt>
      <trkpt lat="39.346815" lon="-0.850637">
        <ele>367</ele>
      </trkpt>
      <trkpt lat="39.346846" lon="-0.85069">
        <ele>367.25</ele>
      </trkpt>
      <trkpt lat="39.346977" lon="-0.850975">
        <ele>368</ele>
      </trkpt>
      <trkpt lat="39.347018" lon="-0.850999">
        <ele>368.5</ele>
      </trkpt>
      <trkpt lat="39.34706" lon="-0.851133">
        <ele>368.5</ele>
      </trkpt>
      <trkpt lat="39.347232" lon="-0.85168">
        <ele>366.25</ele>
      </trkpt>
      <trkpt lat="39.347246" lon="-0.851741">
        <ele>366.5</ele>
      </trkpt>
      <trkpt lat="39.347356" lon="-0.852351">
        <ele>368.25</ele>
      </trkpt>
      <trkpt lat="39.347377" lon="-0.852442">
        <ele>368.25</ele>
      </trkpt>
      <trkpt lat="39.347394" lon="-0.852501">
        <ele>368.25</ele>
      </trkpt>
      <trkpt lat="39.347551" lon="-0.852731">
        <ele>370.5</ele>
      </trkpt>
      <trkpt lat="39.347574" lon="-0.852801">
        <ele>371</ele>
      </trkpt>
      <trkpt lat="39.347587" lon="-0.852882">
        <ele>371.5</ele>
      </trkpt>
      <trkpt lat="39.347587" lon="-0.852951">
        <ele>371.5</ele>
      </trkpt>
      <trkpt lat="39.347564" lon="-0.853134">
        <ele>371.25</ele>
      </trkpt>
      <trkpt lat="39.3474" lon="-0.853914">
        <ele>373.5</ele>
      </trkpt>
      <trkpt lat="39.347383" lon="-0.853971">
        <ele>374</ele>
      </trkpt>
      <trkpt lat="39.34728" lon="-0.854212">
        <ele>375.75</ele>
      </trkpt>
      <trkpt lat="39.347259" lon="-0.854271">
        <ele>376</ele>
      </trkpt>
      <trkpt lat="39.347244" lon="-0.854338">
        <ele>376</ele>
      </trkpt>
      <trkpt lat="39.347207" lon="-0.854832">
        <ele>376.75</ele>
      </trkpt>
      <trkpt lat="39.347035" lon="-0.856285">
        <ele>374.5</ele>
      </trkpt>
      <trkpt lat="39.34701" lon="-0.856436">
        <ele>374.5</ele>
      </trkpt>
      <trkpt lat="39.346983" lon="-0.856543">
        <ele>374.5</ele>
      </trkpt>
      <trkpt lat="39.346944" lon="-0.856664">
        <ele>374.25</ele>
      </trkpt>
      <trkpt lat="39.346921" lon="-0.856843">
        <ele>375.5</ele>
      </trkpt>
      <trkpt lat="39.346906" lon="-0.857211">
        <ele>378.5</ele>
      </trkpt>
      <trkpt lat="39.346902" lon="-0.857694">
        <ele>383.75</ele>
      </trkpt>
      <trkpt lat="39.346919" lon="-0.858158">
        <ele>390.5</ele>
      </trkpt>
      <trkpt lat="39.346888" lon="-0.85831">
        <ele>391.75</ele>
      </trkpt>
      <trkpt lat="39.346844" lon="-0.858442">
        <ele>391.75</ele>
      </trkpt>
      <trkpt lat="39.346819" lon="-0.858538">
        <ele>391.75</ele>
      </trkpt>
      <trkpt lat="39.346811" lon="-0.858611">
        <ele>392</ele>
      </trkpt>
      <trkpt lat="39.346811" lon="-0.858697">
        <ele>392.25</ele>
      </trkpt>
      <trkpt lat="39.346826" lon="-0.858793">
        <ele>393.25</ele>
      </trkpt>
      <trkpt lat="39.346944" lon="-0.859131">
        <ele>396.75</ele>
      </trkpt>
      <trkpt lat="39.346969" lon="-0.859209">
        <ele>397.5</ele>
      </trkpt>
      <trkpt lat="39.346981" lon="-0.859271">
        <ele>398</ele>
      </trkpt>
      <trkpt lat="39.346979" lon="-0.85933">
        <ele>398.25</ele>
      </trkpt>
      <trkpt lat="39.346964" lon="-0.859405">
        <ele>398.25</ele>
      </trkpt>
      <trkpt lat="39.346925" lon="-0.859523">
        <ele>398.25</ele>
      </trkpt>
      <trkpt lat="39.346902" lon="-0.859641">
        <ele>398.75</ele>
      </trkpt>
      <trkpt lat="39.34689" lon="-0.859743">
        <ele>399</ele>
      </trkpt>
      <trkpt lat="39.346875" lon="-0.859925">
        <ele>399.75</ele>
      </trkpt>
      <trkpt lat="39.346871" lon="-0.860057">
        <ele>400.5</ele>
      </trkpt>
      <trkpt lat="39.346875" lon="-0.860196">
        <ele>401.5</ele>
      </trkpt>
      <trkpt lat="39.346894" lon="-0.860357">
        <ele>402.75</ele>
      </trkpt>
      <trkpt lat="39.346935" lon="-0.860588">
        <ele>404.75</ele>
      </trkpt>
      <trkpt lat="39.346962" lon="-0.860706">
        <ele>405.75</ele>
      </trkpt>
      <trkpt lat="39.347066" lon="-0.860971">
        <ele>406.75</ele>
      </trkpt>
      <trkpt lat="39.347079" lon="-0.861044">
        <ele>406.25</ele>
      </trkpt>
      <trkpt lat="39.347076" lon="-0.861081">
        <ele>406</ele>
      </trkpt>
      <trkpt lat="39.347066" lon="-0.861121">
        <ele>405.75</ele>
      </trkpt>
      <trkpt lat="39.347047" lon="-0.861156">
        <ele>405.25</ele>
      </trkpt>
      <trkpt lat="39.347018" lon="-0.861175">
        <ele>405</ele>
      </trkpt>
      <trkpt lat="39.346977" lon="-0.861183">
        <ele>404.5</ele>
      </trkpt>
      <trkpt lat="39.346933" lon="-0.86118">
        <ele>404.25</ele>
      </trkpt>
      <trkpt lat="39.346732" lon="-0.861151">
        <ele>402.75</ele>
      </trkpt>
      <trkpt lat="39.346276" lon="-0.861013">
        <ele>402.5</ele>
      </trkpt>
      <trkpt lat="39.346245" lon="-0.861003">
        <ele>402.5</ele>
      </trkpt>
      <trkpt lat="39.346039" lon="-0.860907">
        <ele>403</ele>
      </trkpt>
      <trkpt lat="39.345981" lon="-0.860872">
        <ele>403.5</ele>
      </trkpt>
      <trkpt lat="39.345936" lon="-0.860861">
        <ele>403.5</ele>
      </trkpt>
      <trkpt lat="39.345886" lon="-0.860859">
        <ele>403.5</ele>
      </trkpt>
      <trkpt lat="39.345834" lon="-0.860872">
        <ele>403.5</ele>
      </trkpt>
      <trkpt lat="39.345772" lon="-0.860901">
        <ele>402.25</ele>
      </trkpt>
      <trkpt lat="39.345643" lon="-0.861003">
        <ele>399.5</ele>
      </trkpt>
      <trkpt lat="39.3455" lon="-0.861129">
        <ele>397</ele>
      </trkpt>
      <trkpt lat="39.345448" lon="-0.861164">
        <ele>396.25</ele>
      </trkpt>
      <trkpt lat="39.345329" lon="-0.861227">
        <ele>395</ele>
      </trkpt>
      <trkpt lat="39.345262" lon="-0.861262">
        <ele>394.5</ele>
      </trkpt>
      <trkpt lat="39.345179" lon="-0.861327">
        <ele>393.75</ele>
      </trkpt>
      <trkpt lat="39.345043" lon="-0.861461">
        <ele>392.75</ele>
      </trkpt>
      <trkpt lat="39.344844" lon="-0.861694">
        <ele>389</ele>
      </trkpt>
      <trkpt lat="39.344879" lon="-0.861724">
        <ele>389.5</ele>
      </trkpt>
      <trkpt lat="39.34492" lon="-0.861734">
        <ele>390.25</ele>
      </trkpt>
      <trkpt lat="39.345605" lon="-0.861517">
        <ele>394.75</ele>
      </trkpt>
      <trkpt lat="39.345667" lon="-0.861509">
        <ele>395.25</ele>
      </trkpt>
      <trkpt lat="39.345719" lon="-0.861512">
        <ele>395.25</ele>
      </trkpt>
      <trkpt lat="39.346175" lon="-0.861702">
        <ele>395.5</ele>
      </trkpt>
      <trkpt lat="39.346395" lon="-0.861801">
        <ele>395.25</ele>
      </trkpt>
      <trkpt lat="39.346621" lon="-0.861933">
        <ele>394.5</ele>
      </trkpt>
      <trkpt lat="39.346768" lon="-0.862035">
        <ele>393.5</ele>
      </trkpt>
      <trkpt lat="39.346862" lon="-0.862113">
        <ele>392.75</ele>
      </trkpt>
      <trkpt lat="39.347262" lon="-0.862563">
        <ele>389.25</ele>
      </trkpt>
      <trkpt lat="39.347328" lon="-0.862649">
        <ele>388.75</ele>
      </trkpt>
      <trkpt lat="39.347376" lon="-0.86267">
        <ele>388.75</ele>
      </trkpt>
      <trkpt lat="39.347413" lon="-0.862673">
        <ele>389.25</ele>
      </trkpt>
      <trkpt lat="39.347442" lon="-0.86266">
        <ele>389.5</ele>
      </trkpt>
      <trkpt lat="39.347471" lon="-0.862628">
        <ele>390.5</ele>
      </trkpt>
      <trkpt lat="39.347486" lon="-0.862601">
        <ele>391</ele>
      </trkpt>
      <trkpt lat="39.347511" lon="-0.862509">
        <ele>392.75</ele>
      </trkpt>
      <trkpt lat="39.347521" lon="-0.862357">
        <ele>395</ele>
      </trkpt>
      <trkpt lat="39.3475" lon="-0.861978">
        <ele>399.75</ele>
      </trkpt>
      <trkpt lat="39.347511" lon="-0.861941">
        <ele>400.5</ele>
      </trkpt>
      <trkpt lat="39.347538" lon="-0.861906">
        <ele>401.5</ele>
      </trkpt>
      <trkpt lat="39.347571" lon="-0.861901">
        <ele>402.25</ele>
      </trkpt>
      <trkpt lat="39.347592" lon="-0.861919">
        <ele>402.25</ele>
      </trkpt>
      <trkpt lat="39.347731" lon="-0.862118">
        <ele>402</ele>
      </trkpt>
      <trkpt lat="39.348069" lon="-0.862552">
        <ele>400</ele>
      </trkpt>
      <trkpt lat="39.348141" lon="-0.862609">
        <ele>400</ele>
      </trkpt>
      <trkpt lat="39.348214" lon="-0.862646">
        <ele>400.5</ele>
      </trkpt>
      <trkpt lat="39.348289" lon="-0.862668">
        <ele>401</ele>
      </trkpt>
      <trkpt lat="39.348432" lon="-0.862676">
        <ele>403.75</ele>
      </trkpt>
      <trkpt lat="39.348465" lon="-0.862692">
        <ele>404.25</ele>
      </trkpt>
      <trkpt lat="39.34849" lon="-0.862724">
        <ele>404</ele>
      </trkpt>
      <trkpt lat="39.348529" lon="-0.862885">
        <ele>401.75</ele>
      </trkpt>
      <trkpt lat="39.34856" lon="-0.863081">
        <ele>398.5</ele>
      </trkpt>
      <trkpt lat="39.348596" lon="-0.863196">
        <ele>396.75</ele>
      </trkpt>
      <trkpt lat="39.348633" lon="-0.863282">
        <ele>395.75</ele>
      </trkpt>
      <trkpt lat="39.348674" lon="-0.863357">
        <ele>395.5</ele>
      </trkpt>
      <trkpt lat="39.348716" lon="-0.863419">
        <ele>396.25</ele>
      </trkpt>
      <trkpt lat="39.348783" lon="-0.863481">
        <ele>397.75</ele>
      </trkpt>
      <trkpt lat="39.348849" lon="-0.863524">
        <ele>398.75</ele>
      </trkpt>
      <trkpt lat="39.348926" lon="-0.863545">
        <ele>400</ele>
      </trkpt>
      <trkpt lat="39.34899" lon="-0.863545">
        <ele>401.25</ele>
      </trkpt>
      <trkpt lat="39.349069" lon="-0.863534">
        <ele>402.5</ele>
      </trkpt>
      <trkpt lat="39.349156" lon="-0.863494">
        <ele>404</ele>
      </trkpt>
      <trkpt lat="39.349314" lon="-0.863387">
        <ele>406.25</ele>
      </trkpt>
      <trkpt lat="39.349393" lon="-0.863352">
        <ele>407</ele>
      </trkpt>
      <trkpt lat="39.349471" lon="-0.863349">
        <ele>407.75</ele>
      </trkpt>
      <trkpt lat="39.349571" lon="-0.86336">
        <ele>408.75</ele>
      </trkpt>
      <trkpt lat="39.349627" lon="-0.863384">
        <ele>409.5</ele>
      </trkpt>
      <trkpt lat="39.349656" lon="-0.863416">
        <ele>410</ele>
      </trkpt>
      <trkpt lat="39.349673" lon="-0.863457">
        <ele>410.25</ele>
      </trkpt>
      <trkpt lat="39.349671" lon="-0.86351">
        <ele>410.5</ele>
      </trkpt>
      <trkpt lat="39.349644" lon="-0.863569">
        <ele>410.5</ele>
      </trkpt>
      <trkpt lat="39.349523" lon="-0.863711">
        <ele>409.25</ele>
      </trkpt>
      <trkpt lat="39.349451" lon="-0.863813">
        <ele>408.25</ele>
      </trkpt>
      <trkpt lat="39.349357" lon="-0.86398">
        <ele>406.5</ele>
      </trkpt>
      <trkpt lat="39.349285" lon="-0.864135">
        <ele>404.75</ele>
      </trkpt>
      <trkpt lat="39.349208" lon="-0.864358">
        <ele>405.5</ele>
      </trkpt>
      <trkpt lat="39.349183" lon="-0.864393">
        <ele>405.25</ele>
      </trkpt>
      <trkpt lat="39.349158" lon="-0.864403">
        <ele>405</ele>
      </trkpt>
      <trkpt lat="39.349102" lon="-0.864398">
        <ele>404.25</ele>
      </trkpt>
      <trkpt lat="39.34904" lon="-0.864355">
        <ele>403.25</ele>
      </trkpt>
      <trkpt lat="39.348959" lon="-0.864307">
        <ele>401.75</ele>
      </trkpt>
      <trkpt lat="39.348687" lon="-0.864213">
        <ele>398</ele>
      </trkpt>
      <trkpt lat="39.348451" lon="-0.864175">
        <ele>395</ele>
      </trkpt>
      <trkpt lat="39.348111" lon="-0.864073">
        <ele>389</ele>
      </trkpt>
      <trkpt lat="39.34808" lon="-0.864079">
        <ele>388.5</ele>
      </trkpt>
      <trkpt lat="39.348053" lon="-0.864098">
        <ele>388</ele>
      </trkpt>
      <trkpt lat="39.348036" lon="-0.864135">
        <ele>387.75</ele>
      </trkpt>
      <trkpt lat="39.348009" lon="-0.864419">
        <ele>390.75</ele>
      </trkpt>
      <trkpt lat="39.347986" lon="-0.8645">
        <ele>391.5</ele>
      </trkpt>
      <trkpt lat="39.347947" lon="-0.864529">
        <ele>391.25</ele>
      </trkpt>
      <trkpt lat="39.347903" lon="-0.864538">
        <ele>390.5</ele>
      </trkpt>
      <trkpt lat="39.347721" lon="-0.864543">
        <ele>387</ele>
      </trkpt>
      <trkpt lat="39.347681" lon="-0.864554">
        <ele>386.5</ele>
      </trkpt>
      <trkpt lat="39.347619" lon="-0.864626">
        <ele>386.25</ele>
      </trkpt>
      <trkpt lat="39.347559" lon="-0.864725">
        <ele>386.75</ele>
      </trkpt>
      <trkpt lat="39.347513" lon="-0.864816">
        <ele>387.25</ele>
      </trkpt>
      <trkpt lat="39.34741" lon="-0.865176">
        <ele>388.5</ele>
      </trkpt>
      <trkpt lat="39.347184" lon="-0.866335">
        <ele>386.25</ele>
      </trkpt>
      <trkpt lat="39.347175" lon="-0.866407">
        <ele>386.25</ele>
      </trkpt>
      <trkpt lat="39.347175" lon="-0.866471">
        <ele>386.25</ele>
      </trkpt>
      <trkpt lat="39.347194" lon="-0.866546">
        <ele>386.75</ele>
      </trkpt>
      <trkpt lat="39.347217" lon="-0.866605">
        <ele>387.25</ele>
      </trkpt>
      <trkpt lat="39.347246" lon="-0.866648">
        <ele>388</ele>
      </trkpt>
      <trkpt lat="39.347279" lon="-0.866675">
        <ele>388.75</ele>
      </trkpt>
      <trkpt lat="39.347323" lon="-0.866697">
        <ele>389.75</ele>
      </trkpt>
      <trkpt lat="39.347542" lon="-0.86674">
        <ele>394.25</ele>
      </trkpt>
      <trkpt lat="39.347578" lon="-0.866756">
        <ele>394.75</ele>
      </trkpt>
      <trkpt lat="39.347601" lon="-0.866783">
        <ele>395</ele>
      </trkpt>
      <trkpt lat="39.347611" lon="-0.866812">
        <ele>395</ele>
      </trkpt>
      <trkpt lat="39.347605" lon="-0.866852">
        <ele>394.75</ele>
      </trkpt>
      <trkpt lat="39.347518" lon="-0.867083">
        <ele>392.75</ele>
      </trkpt>
      <trkpt lat="39.347497" lon="-0.867158">
        <ele>392</ele>
      </trkpt>
      <trkpt lat="39.347481" lon="-0.867293">
        <ele>391.25</ele>
      </trkpt>
      <trkpt lat="39.347483" lon="-0.867381">
        <ele>391</ele>
      </trkpt>
      <trkpt lat="39.347498" lon="-0.867473">
        <ele>391</ele>
      </trkpt>
      <trkpt lat="39.347531" lon="-0.867592">
        <ele>390.5</ele>
      </trkpt>
      <trkpt lat="39.347574" lon="-0.867694">
        <ele>390.5</ele>
      </trkpt>
      <trkpt lat="39.347776" lon="-0.868029">
        <ele>391.5</ele>
      </trkpt>
      <trkpt lat="39.347957" lon="-0.868353">
        <ele>392.25</ele>
      </trkpt>
      <trkpt lat="39.348015" lon="-0.868437">
        <ele>393</ele>
      </trkpt>
      <trkpt lat="39.348078" lon="-0.868515">
        <ele>394</ele>
      </trkpt>
      <trkpt lat="39.34826" lon="-0.868706">
        <ele>396.25</ele>
      </trkpt>
      <trkpt lat="39.348539" lon="-0.868969">
        <ele>397.5</ele>
      </trkpt>
      <trkpt lat="39.348619" lon="-0.869074">
        <ele>397.25</ele>
      </trkpt>
      <trkpt lat="39.348642" lon="-0.869115">
        <ele>397.25</ele>
      </trkpt>
      <trkpt lat="39.348661" lon="-0.869213">
        <ele>396.5</ele>
      </trkpt>
      <trkpt lat="39.34865" lon="-0.869347">
        <ele>395.75</ele>
      </trkpt>
      <trkpt lat="39.348655" lon="-0.869447">
        <ele>395.25</ele>
      </trkpt>
      <trkpt lat="39.348855" lon="-0.870422">
        <ele>393.75</ele>
      </trkpt>
      <trkpt lat="39.348874" lon="-0.870551">
        <ele>393.75</ele>
      </trkpt>
      <trkpt lat="39.348882" lon="-0.87068">
        <ele>393.5</ele>
      </trkpt>
      <trkpt lat="39.348893" lon="-0.87076">
        <ele>393.5</ele>
      </trkpt>
      <trkpt lat="39.348926" lon="-0.870905">
        <ele>393.5</ele>
      </trkpt>
      <trkpt lat="39.348957" lon="-0.870975">
        <ele>393.5</ele>
      </trkpt>
      <trkpt lat="39.349262" lon="-0.871551">
        <ele>395.5</ele>
      </trkpt>
      <trkpt lat="39.349341" lon="-0.871742">
        <ele>395.5</ele>
      </trkpt>
      <trkpt lat="39.349471" lon="-0.872018">
        <ele>394.75</ele>
      </trkpt>
      <trkpt lat="39.349534" lon="-0.872171">
        <ele>394.25</ele>
      </trkpt>
      <trkpt lat="39.349565" lon="-0.872327">
        <ele>393.25</ele>
      </trkpt>
      <trkpt lat="39.349567" lon="-0.872402">
        <ele>392.5</ele>
      </trkpt>
      <trkpt lat="39.349548" lon="-0.872539">
        <ele>390.5</ele>
      </trkpt>
      <trkpt lat="39.349548" lon="-0.872616">
        <ele>389</ele>
      </trkpt>
      <trkpt lat="39.349565" lon="-0.872681">
        <ele>388</ele>
      </trkpt>
      <trkpt lat="39.349596" lon="-0.872737">
        <ele>387.5</ele>
      </trkpt>
      <trkpt lat="39.349641" lon="-0.872783">
        <ele>387.25</ele>
      </trkpt>
      <trkpt lat="39.349724" lon="-0.87282">
        <ele>387.75</ele>
      </trkpt>
      <trkpt lat="39.349967" lon="-0.872887">
        <ele>389.5</ele>
      </trkpt>
      <trkpt lat="39.350019" lon="-0.872919">
        <ele>389.75</ele>
      </trkpt>
      <trkpt lat="39.350054" lon="-0.872981">
        <ele>389</ele>
      </trkpt>
      <trkpt lat="39.350116" lon="-0.873137">
        <ele>386.5</ele>
      </trkpt>
      <trkpt lat="39.350148" lon="-0.873182">
        <ele>386</ele>
      </trkpt>
      <trkpt lat="39.350189" lon="-0.873214">
        <ele>386</ele>
      </trkpt>
      <trkpt lat="39.350233" lon="-0.873225">
        <ele>386.5</ele>
      </trkpt>
      <trkpt lat="39.350268" lon="-0.873225">
        <ele>387</ele>
      </trkpt>
      <trkpt lat="39.350517" lon="-0.873126">
        <ele>394</ele>
      </trkpt>
      <trkpt lat="39.350645" lon="-0.873021">
        <ele>399</ele>
      </trkpt>
      <trkpt lat="39.35071" lon="-0.872986">
        <ele>401.25</ele>
      </trkpt>
      <trkpt lat="39.350813" lon="-0.872949">
        <ele>404</ele>
      </trkpt>
      <trkpt lat="39.350925" lon="-0.872936">
        <ele>405.5</ele>
      </trkpt>
      <trkpt lat="39.351004" lon="-0.872949">
        <ele>406</ele>
      </trkpt>
      <trkpt lat="39.351195" lon="-0.873056">
        <ele>404.75</ele>
      </trkpt>
      <trkpt lat="39.351251" lon="-0.873072">
        <ele>405</ele>
      </trkpt>
      <trkpt lat="39.351301" lon="-0.873075">
        <ele>405.25</ele>
      </trkpt>
      <trkpt lat="39.351349" lon="-0.873059">
        <ele>406.25</ele>
      </trkpt>
      <trkpt lat="39.35139" lon="-0.873024">
        <ele>407.5</ele>
      </trkpt>
      <trkpt lat="39.351545" lon="-0.872855">
        <ele>412.75</ele>
      </trkpt>
      <trkpt lat="39.351631" lon="-0.872807">
        <ele>414.5</ele>
      </trkpt>
      <trkpt lat="39.351678" lon="-0.872812">
        <ele>414.75</ele>
      </trkpt>
      <trkpt lat="39.351707" lon="-0.872844">
        <ele>414.25</ele>
      </trkpt>
      <trkpt lat="39.351722" lon="-0.87289">
        <ele>413.25</ele>
      </trkpt>
      <trkpt lat="39.35173" lon="-0.872946">
        <ele>412.25</ele>
      </trkpt>
      <trkpt lat="39.351722" lon="-0.873011">
        <ele>410.75</ele>
      </trkpt>
      <trkpt lat="39.351597" lon="-0.873424">
        <ele>400.75</ele>
      </trkpt>
      <trkpt lat="39.351579" lon="-0.873509">
        <ele>399</ele>
      </trkpt>
      <trkpt lat="39.351573" lon="-0.873582">
        <ele>397.75</ele>
      </trkpt>
      <trkpt lat="39.351577" lon="-0.873657">
        <ele>396.5</ele>
      </trkpt>
      <trkpt lat="39.351599" lon="-0.873829">
        <ele>394</ele>
      </trkpt>
      <trkpt lat="39.351624" lon="-0.873955">
        <ele>392.5</ele>
      </trkpt>
      <trkpt lat="39.351653" lon="-0.874022">
        <ele>392</ele>
      </trkpt>
      <trkpt lat="39.351701" lon="-0.874086">
        <ele>391.75</ele>
      </trkpt>
      <trkpt lat="39.351765" lon="-0.874137">
        <ele>392.25</ele>
      </trkpt>
      <trkpt lat="39.351848" lon="-0.874183">
        <ele>393.25</ele>
      </trkpt>
      <trkpt lat="39.351937" lon="-0.874212">
        <ele>394.75</ele>
      </trkpt>
      <trkpt lat="39.352002" lon="-0.87422">
        <ele>395.75</ele>
      </trkpt>
      <trkpt lat="39.35206" lon="-0.874207">
        <ele>397.25</ele>
      </trkpt>
      <trkpt lat="39.352108" lon="-0.874185">
        <ele>398.5</ele>
      </trkpt>
      <trkpt lat="39.352253" lon="-0.874083">
        <ele>403.25</ele>
      </trkpt>
      <trkpt lat="39.35231" lon="-0.874068">
        <ele>404.5</ele>
      </trkpt>
      <trkpt lat="39.352364" lon="-0.874065">
        <ele>405.75</ele>
      </trkpt>
      <trkpt lat="39.352495" lon="-0.87409">
        <ele>408</ele>
      </trkpt>
      <trkpt lat="39.352553" lon="-0.874089">
        <ele>408.75</ele>
      </trkpt>
      <trkpt lat="39.35275" lon="-0.874038">
        <ele>412.5</ele>
      </trkpt>
      <trkpt lat="39.352839" lon="-0.87403">
        <ele>414</ele>
      </trkpt>
      <trkpt lat="39.352878" lon="-0.874042">
        <ele>414.25</ele>
      </trkpt>
      <trkpt lat="39.352938" lon="-0.87408">
        <ele>414.25</ele>
      </trkpt>
      <trkpt lat="39.353082" lon="-0.874152">
        <ele>414.25</ele>
      </trkpt>
      <trkpt lat="39.35321" lon="-0.874192">
        <ele>414.75</ele>
      </trkpt>
      <trkpt lat="39.353295" lon="-0.8742">
        <ele>415.5</ele>
      </trkpt>
      <trkpt lat="39.353436" lon="-0.874199">
        <ele>417.25</ele>
      </trkpt>
      <trkpt lat="39.353799" lon="-0.874251">
        <ele>420.5</ele>
      </trkpt>
      <trkpt lat="39.353861" lon="-0.874273">
        <ele>420.75</ele>
      </trkpt>
      <trkpt lat="39.353921" lon="-0.87431">
        <ele>420.5</ele>
      </trkpt>
      <trkpt lat="39.353955" lon="-0.874348">
        <ele>420</ele>
      </trkpt>
      <trkpt lat="39.354012" lon="-0.874479">
        <ele>417.5</ele>
      </trkpt>
      <trkpt lat="39.354099" lon="-0.874743">
        <ele>412.25</ele>
      </trkpt>
      <trkpt lat="39.35413" lon="-0.874808">
        <ele>411</ele>
      </trkpt>
      <trkpt lat="39.354167" lon="-0.874853">
        <ele>410.5</ele>
      </trkpt>
      <trkpt lat="39.354262" lon="-0.87491">
        <ele>412.25</ele>
      </trkpt>
      <trkpt lat="39.35455" lon="-0.874986">
        <ele>420.5</ele>
      </trkpt>
      <trkpt lat="39.354605" lon="-0.875009">
        <ele>422</ele>
      </trkpt>
      <trkpt lat="39.354868" lon="-0.87517">
        <ele>426.75</ele>
      </trkpt>
      <trkpt lat="39.355136" lon="-0.875403">
        <ele>428.25</ele>
      </trkpt>
      <trkpt lat="39.355184" lon="-0.875461">
        <ele>428.25</ele>
      </trkpt>
      <trkpt lat="39.355217" lon="-0.875513">
        <ele>427.75</ele>
      </trkpt>
      <trkpt lat="39.355271" lon="-0.875666">
        <ele>425</ele>
      </trkpt>
      <trkpt lat="39.355331" lon="-0.875913">
        <ele>421.25</ele>
      </trkpt>
      <trkpt lat="39.355376" lon="-0.876156">
        <ele>420.75</ele>
      </trkpt>
      <trkpt lat="39.355411" lon="-0.876306">
        <ele>420.25</ele>
      </trkpt>
      <trkpt lat="39.355459" lon="-0.876449">
        <ele>419.75</ele>
      </trkpt>
      <trkpt lat="39.355491" lon="-0.876524">
        <ele>419.5</ele>
      </trkpt>
      <trkpt lat="39.355531" lon="-0.876594">
        <ele>419.5</ele>
      </trkpt>
      <trkpt lat="39.355629" lon="-0.876699">
        <ele>419.5</ele>
      </trkpt>
      <trkpt lat="39.355685" lon="-0.876738">
        <ele>419.75</ele>
      </trkpt>
      <trkpt lat="39.355999" lon="-0.876913">
        <ele>418.75</ele>
      </trkpt>
      <trkpt lat="39.356176" lon="-0.877027">
        <ele>417</ele>
      </trkpt>
      <trkpt lat="39.356249" lon="-0.877047">
        <ele>416.75</ele>
      </trkpt>
      <trkpt lat="39.356343" lon="-0.877057">
        <ele>416.5</ele>
      </trkpt>
      <trkpt lat="39.356438" lon="-0.877053">
        <ele>416.25</ele>
      </trkpt>
      <trkpt lat="39.356497" lon="-0.877034">
        <ele>416.25</ele>
      </trkpt>
      <trkpt lat="39.356555" lon="-0.876998">
        <ele>416.25</ele>
      </trkpt>
      <trkpt lat="39.356603" lon="-0.876955">
        <ele>416.25</ele>
      </trkpt>
      <trkpt lat="39.356821" lon="-0.876763">
        <ele>416.75</ele>
      </trkpt>
      <trkpt lat="39.3572" lon="-0.876407">
        <ele>422.25</ele>
      </trkpt>
      <trkpt lat="39.357283" lon="-0.87634">
        <ele>423</ele>
      </trkpt>
      <trkpt lat="39.357323" lon="-0.876331">
        <ele>423</ele>
      </trkpt>
      <trkpt lat="39.35736" lon="-0.876333">
        <ele>422.75</ele>
      </trkpt>
      <trkpt lat="39.35739" lon="-0.876349">
        <ele>422.25</ele>
      </trkpt>
      <trkpt lat="39.357416" lon="-0.876388">
        <ele>421.5</ele>
      </trkpt>
      <trkpt lat="39.357655" lon="-0.87684">
        <ele>420</ele>
      </trkpt>
      <trkpt lat="39.357662" lon="-0.876898">
        <ele>420.25</ele>
      </trkpt>
      <trkpt lat="39.357655" lon="-0.876951">
        <ele>420.5</ele>
      </trkpt>
      <trkpt lat="39.357526" lon="-0.877512">
        <ele>422.25</ele>
      </trkpt>
      <trkpt lat="39.357518" lon="-0.877601">
        <ele>422.5</ele>
      </trkpt>
      <trkpt lat="39.357527" lon="-0.877676">
        <ele>423</ele>
      </trkpt>
      <trkpt lat="39.357577" lon="-0.877834">
        <ele>424</ele>
      </trkpt>
      <trkpt lat="39.357585" lon="-0.877912">
        <ele>424.25</ele>
      </trkpt>
      <trkpt lat="39.357578" lon="-0.878057">
        <ele>425</ele>
      </trkpt>
      <trkpt lat="39.35758" lon="-0.878176">
        <ele>425.5</ele>
      </trkpt>
      <trkpt lat="39.357617" lon="-0.878553">
        <ele>427.75</ele>
      </trkpt>
      <trkpt lat="39.357646" lon="-0.878718">
        <ele>429</ele>
      </trkpt>
      <trkpt lat="39.357771" lon="-0.878916">
        <ele>429.75</ele>
      </trkpt>
      <trkpt lat="39.35782" lon="-0.879002">
        <ele>430</ele>
      </trkpt>
      <trkpt lat="39.357866" lon="-0.879117">
        <ele>430.5</ele>
      </trkpt>
      <trkpt lat="39.357967" lon="-0.879321">
        <ele>431.5</ele>
      </trkpt>
      <trkpt lat="39.358012" lon="-0.879431">
        <ele>432</ele>
      </trkpt>
      <trkpt lat="39.358056" lon="-0.879573">
        <ele>432.5</ele>
      </trkpt>
      <trkpt lat="39.358066" lon="-0.879646">
        <ele>432.75</ele>
      </trkpt>
      <trkpt lat="39.35806" lon="-0.879867">
        <ele>434.5</ele>
      </trkpt>
      <trkpt lat="39.358072" lon="-0.879919">
        <ele>434.75</ele>
      </trkpt>
      <trkpt lat="39.358121" lon="-0.880017">
        <ele>434.5</ele>
      </trkpt>
      <trkpt lat="39.358224" lon="-0.880146">
        <ele>434</ele>
      </trkpt>
      <trkpt lat="39.358283" lon="-0.880239">
        <ele>434</ele>
      </trkpt>
      <trkpt lat="39.358316" lon="-0.88034">
        <ele>434.5</ele>
      </trkpt>
      <trkpt lat="39.358335" lon="-0.880421">
        <ele>435</ele>
      </trkpt>
      <trkpt lat="39.358355" lon="-0.880444">
        <ele>435.25</ele>
      </trkpt>
      <trkpt lat="39.358378" lon="-0.880444">
        <ele>435.25</ele>
      </trkpt>
      <trkpt lat="39.358401" lon="-0.880433">
        <ele>435.25</ele>
      </trkpt>
      <trkpt lat="39.358414" lon="-0.880417">
        <ele>435</ele>
      </trkpt>
      <trkpt lat="39.358426" lon="-0.880385">
        <ele>434.75</ele>
      </trkpt>
      <trkpt lat="39.358432" lon="-0.880353">
        <ele>434.25</ele>
      </trkpt>
      <trkpt lat="39.358428" lon="-0.880318">
        <ele>434</ele>
      </trkpt>
      <trkpt lat="39.358411" lon="-0.880264">
        <ele>433.5</ele>
      </trkpt>
      <trkpt lat="39.358399" lon="-0.880154">
        <ele>432.25</ele>
      </trkpt>
      <trkpt lat="39.358407" lon="-0.880084">
        <ele>431.5</ele>
      </trkpt>
      <trkpt lat="39.358422" lon="-0.880043">
        <ele>431.25</ele>
      </trkpt>
      <trkpt lat="39.358448" lon="-0.880011">
        <ele>431</ele>
      </trkpt>
      <trkpt lat="39.358481" lon="-0.879993">
        <ele>431.25</ele>
      </trkpt>
      <trkpt lat="39.358517" lon="-0.87999">
        <ele>431.75</ele>
      </trkpt>
      <trkpt lat="39.358684" lon="-0.880023">
        <ele>433.25</ele>
      </trkpt>
      <trkpt lat="39.358732" lon="-0.880021">
        <ele>433.75</ele>
      </trkpt>
      <trkpt lat="39.358784" lon="-0.880011">
        <ele>434.25</ele>
      </trkpt>
      <trkpt lat="39.35907" lon="-0.879914">
        <ele>437.5</ele>
      </trkpt>
      <trkpt lat="39.359261" lon="-0.879898">
        <ele>438.75</ele>
      </trkpt>
      <trkpt lat="39.359602" lon="-0.880036">
        <ele>438.25</ele>
      </trkpt>
      <trkpt lat="39.359966" lon="-0.880157">
        <ele>438.25</ele>
      </trkpt>
      <trkpt lat="39.360068" lon="-0.880186">
        <ele>438.25</ele>
      </trkpt>
      <trkpt lat="39.360123" lon="-0.880194">
        <ele>438</ele>
      </trkpt>
      <trkpt lat="39.360225" lon="-0.8802">
        <ele>438</ele>
      </trkpt>
      <trkpt lat="39.360424" lon="-0.880167">
        <ele>437.75</ele>
      </trkpt>
      <trkpt lat="39.360501" lon="-0.880166">
        <ele>437.75</ele>
      </trkpt>
      <trkpt lat="39.360662" lon="-0.88018">
        <ele>437.75</ele>
      </trkpt>
      <trkpt lat="39.360737" lon="-0.880174">
        <ele>437.5</ele>
      </trkpt>
      <trkpt lat="39.360939" lon="-0.880131">
        <ele>438</ele>
      </trkpt>
      <trkpt lat="39.361052" lon="-0.880154">
        <ele>438.75</ele>
      </trkpt>
      <trkpt lat="39.361115" lon="-0.880154">
        <ele>439.25</ele>
      </trkpt>
      <trkpt lat="39.361378" lon="-0.880075">
        <ele>439.75</ele>
      </trkpt>
      <trkpt lat="39.361547" lon="-0.880062">
        <ele>440.5</ele>
      </trkpt>
      <trkpt lat="39.361587" lon="-0.880051">
        <ele>440.5</ele>
      </trkpt>
      <trkpt lat="39.361617" lon="-0.880035">
        <ele>440.25</ele>
      </trkpt>
      <trkpt lat="39.361643" lon="-0.880009">
        <ele>440</ele>
      </trkpt>
      <trkpt lat="39.361732" lon="-0.879884">
        <ele>441.25</ele>
      </trkpt>
      <trkpt lat="39.361809" lon="-0.879804">
        <ele>442.25</ele>
      </trkpt>
      <trkpt lat="39.361879" lon="-0.879766">
        <ele>442.75</ele>
      </trkpt>
      <trkpt lat="39.361926" lon="-0.879757">
        <ele>443</ele>
      </trkpt>
      <trkpt lat="39.361962" lon="-0.879764">
        <ele>443</ele>
      </trkpt>
      <trkpt lat="39.362003" lon="-0.879781">
        <ele>442.75</ele>
      </trkpt>
      <trkpt lat="39.36212" lon="-0.87985">
        <ele>442.5</ele>
      </trkpt>
      <trkpt lat="39.362237" lon="-0.87987">
        <ele>442.75</ele>
      </trkpt>
      <trkpt lat="39.362515" lon="-0.879898">
        <ele>443.25</ele>
      </trkpt>
      <trkpt lat="39.362561" lon="-0.879913">
        <ele>443.5</ele>
      </trkpt>
      <trkpt lat="39.362609" lon="-0.879938">
        <ele>443.5</ele>
      </trkpt>
      <trkpt lat="39.362652" lon="-0.879973">
        <ele>443.75</ele>
      </trkpt>
      <trkpt lat="39.362789" lon="-0.880154">
        <ele>446</ele>
      </trkpt>
      <trkpt lat="39.362811" lon="-0.880198">
        <ele>446.5</ele>
      </trkpt>
      <trkpt lat="39.362934" lon="-0.880652">
        <ele>450.5</ele>
      </trkpt>
      <trkpt lat="39.362939" lon="-0.880736">
        <ele>451.25</ele>
      </trkpt>
      <trkpt lat="39.362927" lon="-0.88088">
        <ele>453.25</ele>
      </trkpt>
      <trkpt lat="39.362929" lon="-0.881018">
        <ele>455.75</ele>
      </trkpt>
      <trkpt lat="39.362935" lon="-0.881132">
        <ele>458</ele>
      </trkpt>
      <trkpt lat="39.362958" lon="-0.881242">
        <ele>459.75</ele>
      </trkpt>
      <trkpt lat="39.363165" lon="-0.881794">
        <ele>465.75</ele>
      </trkpt>
      <trkpt lat="39.363214" lon="-0.881893">
        <ele>466.25</ele>
      </trkpt>
      <trkpt lat="39.363425" lon="-0.882218">
        <ele>468</ele>
      </trkpt>
      <trkpt lat="39.363584" lon="-0.882387">
        <ele>470</ele>
      </trkpt>
      <trkpt lat="39.363622" lon="-0.882403">
        <ele>470</ele>
      </trkpt>
      <trkpt lat="39.363654" lon="-0.882402">
        <ele>469.75</ele>
      </trkpt>
      <trkpt lat="39.363684" lon="-0.882388">
        <ele>469.5</ele>
      </trkpt>
      <trkpt lat="39.363715" lon="-0.882361">
        <ele>469</ele>
      </trkpt>
      <trkpt lat="39.363773" lon="-0.882281">
        <ele>467.25</ele>
      </trkpt>
      <trkpt lat="39.363821" lon="-0.882237">
        <ele>466.5</ele>
      </trkpt>
      <trkpt lat="39.363976" lon="-0.882146">
        <ele>464.25</ele>
      </trkpt>
      <trkpt lat="39.36402" lon="-0.882131">
        <ele>463.75</ele>
      </trkpt>
      <trkpt lat="39.364171" lon="-0.8821">
        <ele>462.75</ele>
      </trkpt>
      <trkpt lat="39.364406" lon="-0.882076">
        <ele>466.5</ele>
      </trkpt>
      <trkpt lat="39.364605" lon="-0.882034">
        <ele>469.25</ele>
      </trkpt>
      <trkpt lat="39.364725" lon="-0.882052">
        <ele>471.5</ele>
      </trkpt>
      <trkpt lat="39.364827" lon="-0.882084">
        <ele>474</ele>
      </trkpt>
      <trkpt lat="39.364935" lon="-0.882083">
        <ele>475.75</ele>
      </trkpt>
      <trkpt lat="39.365136" lon="-0.88199">
        <ele>474.5</ele>
      </trkpt>
      <trkpt lat="39.365344" lon="-0.881927">
        <ele>472.75</ele>
      </trkpt>
      <trkpt lat="39.365456" lon="-0.881912">
        <ele>472</ele>
      </trkpt>
      <trkpt lat="39.365627" lon="-0.88186">
        <ele>470.25</ele>
      </trkpt>
      <trkpt lat="39.365671" lon="-0.88186">
        <ele>470.25</ele>
      </trkpt>
      <trkpt lat="39.365719" lon="-0.881881">
        <ele>470.5</ele>
      </trkpt>
      <trkpt lat="39.365774" lon="-0.881916">
        <ele>471</ele>
      </trkpt>
      <trkpt lat="39.365857" lon="-0.881998">
        <ele>472</ele>
      </trkpt>
      <trkpt lat="39.365889" lon="-0.882046">
        <ele>472.75</ele>
      </trkpt>
      <trkpt lat="39.365928" lon="-0.882128">
        <ele>474.25</ele>
      </trkpt>
      <trkpt lat="39.366008" lon="-0.882313">
        <ele>477</ele>
      </trkpt>
      <trkpt lat="39.3661" lon="-0.882583">
        <ele>479.75</ele>
      </trkpt>
      <trkpt lat="39.366154" lon="-0.882772">
        <ele>480.25</ele>
      </trkpt>
      <trkpt lat="39.366162" lon="-0.882931">
        <ele>481</ele>
      </trkpt>
      <trkpt lat="39.366148" lon="-0.883104">
        <ele>482.25</ele>
      </trkpt>
      <trkpt lat="39.366063" lon="-0.88354">
        <ele>487.25</ele>
      </trkpt>
      <trkpt lat="39.366058" lon="-0.883652">
        <ele>488.75</ele>
      </trkpt>
      <trkpt lat="39.366078" lon="-0.883756">
        <ele>489.25</ele>
      </trkpt>
      <trkpt lat="39.366139" lon="-0.883987">
        <ele>490</ele>
      </trkpt>
      <trkpt lat="39.366145" lon="-0.884101">
        <ele>490.75</ele>
      </trkpt>
      <trkpt lat="39.366156" lon="-0.884152">
        <ele>491</ele>
      </trkpt>
      <trkpt lat="39.366176" lon="-0.884199">
        <ele>491</ele>
      </trkpt>
      <trkpt lat="39.366204" lon="-0.884243">
        <ele>490.75</ele>
      </trkpt>
      <trkpt lat="39.366243" lon="-0.884278">
        <ele>490.25</ele>
      </trkpt>
      <trkpt lat="39.366295" lon="-0.884303">
        <ele>489</ele>
      </trkpt>
      <trkpt lat="39.366431" lon="-0.884329">
        <ele>484.75</ele>
      </trkpt>
      <trkpt lat="39.366476" lon="-0.88433">
        <ele>483.25</ele>
      </trkpt>
      <trkpt lat="39.36651" lon="-0.884322">
        <ele>481.75</ele>
      </trkpt>
      <trkpt lat="39.366534" lon="-0.88431">
        <ele>480.75</ele>
      </trkpt>
      <trkpt lat="39.366565" lon="-0.884263">
        <ele>479</ele>
      </trkpt>
      <trkpt lat="39.366572" lon="-0.884239">
        <ele>478.25</ele>
      </trkpt>
      <trkpt lat="39.36657" lon="-0.884181">
        <ele>477.5</ele>
      </trkpt>
      <trkpt lat="39.366538" lon="-0.88414">
        <ele>478.25</ele>
      </trkpt>
      <trkpt lat="39.366427" lon="-0.884066">
        <ele>481.5</ele>
      </trkpt>
      <trkpt lat="39.366379" lon="-0.883984">
        <ele>482.75</ele>
      </trkpt>
      <trkpt lat="39.366368" lon="-0.883936">
        <ele>482.75</ele>
      </trkpt>
      <trkpt lat="39.366354" lon="-0.883798">
        <ele>482.5</ele>
      </trkpt>
      <trkpt lat="39.366347" lon="-0.883653">
        <ele>482</ele>
      </trkpt>
      <trkpt lat="39.366349" lon="-0.883582">
        <ele>481.5</ele>
      </trkpt>
      <trkpt lat="39.366357" lon="-0.883524">
        <ele>481</ele>
      </trkpt>
      <trkpt lat="39.366379" lon="-0.883445">
        <ele>480.25</ele>
      </trkpt>
      <trkpt lat="39.366619" lon="-0.882933">
        <ele>475</ele>
      </trkpt>
      <trkpt lat="39.366637" lon="-0.882871">
        <ele>474.75</ele>
      </trkpt>
      <trkpt lat="39.366651" lon="-0.882803">
        <ele>474.5</ele>
      </trkpt>
      <trkpt lat="39.366654" lon="-0.882758">
        <ele>474.25</ele>
      </trkpt>
      <trkpt lat="39.366635" lon="-0.882399">
        <ele>473</ele>
      </trkpt>
      <trkpt lat="39.366637" lon="-0.882328">
        <ele>472</ele>
      </trkpt>
      <trkpt lat="39.366647" lon="-0.882286">
        <ele>471.5</ele>
      </trkpt>
      <trkpt lat="39.366683" lon="-0.882219">
        <ele>470.75</ele>
      </trkpt>
      <trkpt lat="39.366712" lon="-0.882195">
        <ele>471</ele>
      </trkpt>
      <trkpt lat="39.366743" lon="-0.882183">
        <ele>471.25</ele>
      </trkpt>
      <trkpt lat="39.366783" lon="-0.88218">
        <ele>471.75</ele>
      </trkpt>
      <trkpt lat="39.367115" lon="-0.882252">
        <ele>477.75</ele>
      </trkpt>
      <trkpt lat="39.367239" lon="-0.882309">
        <ele>480.75</ele>
      </trkpt>
      <trkpt lat="39.367287" lon="-0.88232">
        <ele>481.5</ele>
      </trkpt>
      <trkpt lat="39.367342" lon="-0.882316">
        <ele>482.5</ele>
      </trkpt>
      <trkpt lat="39.367398" lon="-0.882302">
        <ele>483</ele>
      </trkpt>
      <trkpt lat="39.367597" lon="-0.882209">
        <ele>485</ele>
      </trkpt>
      <trkpt lat="39.367773" lon="-0.882108">
        <ele>487.25</ele>
      </trkpt>
      <trkpt lat="39.368025" lon="-0.882015">
        <ele>491.75</ele>
      </trkpt>
      <trkpt lat="39.368086" lon="-0.881982">
        <ele>492.5</ele>
      </trkpt>
      <trkpt lat="39.368111" lon="-0.881952">
        <ele>492.5</ele>
      </trkpt>
      <trkpt lat="39.368135" lon="-0.881871">
        <ele>491.25</ele>
      </trkpt>
      <trkpt lat="39.368138" lon="-0.881724">
        <ele>488.25</ele>
      </trkpt>
      <trkpt lat="39.368144" lon="-0.881664">
        <ele>487</ele>
      </trkpt>
      <trkpt lat="39.36816" lon="-0.881609">
        <ele>487</ele>
      </trkpt>
      <trkpt lat="39.368219" lon="-0.88144">
        <ele>487</ele>
      </trkpt>
      <trkpt lat="39.368315" lon="-0.881232">
        <ele>486.75</ele>
      </trkpt>
      <trkpt lat="39.368457" lon="-0.881003">
        <ele>488</ele>
      </trkpt>
      <trkpt lat="39.368605" lon="-0.880817">
        <ele>489.25</ele>
      </trkpt>
      <trkpt lat="39.368767" lon="-0.880575">
        <ele>490.25</ele>
      </trkpt>
      <trkpt lat="39.368829" lon="-0.880467">
        <ele>490</ele>
      </trkpt>
      <trkpt lat="39.368921" lon="-0.880256">
        <ele>489</ele>
      </trkpt>
      <trkpt lat="39.368971" lon="-0.880174">
        <ele>488.5</ele>
      </trkpt>
      <trkpt lat="39.369001" lon="-0.880141">
        <ele>488.5</ele>
      </trkpt>
      <trkpt lat="39.369037" lon="-0.880119">
        <ele>488.75</ele>
      </trkpt>
      <trkpt lat="39.369113" lon="-0.880118">
        <ele>490</ele>
      </trkpt>
      <trkpt lat="39.369157" lon="-0.880133">
        <ele>491</ele>
      </trkpt>
      <trkpt lat="39.369197" lon="-0.880158">
        <ele>491.5</ele>
      </trkpt>
      <trkpt lat="39.369244" lon="-0.880245">
        <ele>492.5</ele>
      </trkpt>
      <trkpt lat="39.369256" lon="-0.8803">
        <ele>493.5</ele>
      </trkpt>
      <trkpt lat="39.36927" lon="-0.880516">
        <ele>496.75</ele>
      </trkpt>
      <trkpt lat="39.369284" lon="-0.880618">
        <ele>498.25</ele>
      </trkpt>
      <trkpt lat="39.369375" lon="-0.881054">
        <ele>505.5</ele>
      </trkpt>
      <trkpt lat="39.369424" lon="-0.881146">
        <ele>507.25</ele>
      </trkpt>
      <trkpt lat="39.369459" lon="-0.881187">
        <ele>508</ele>
      </trkpt>
      <trkpt lat="39.369571" lon="-0.881281">
        <ele>509.5</ele>
      </trkpt>
      <trkpt lat="39.369633" lon="-0.881314">
        <ele>510</ele>
      </trkpt>
      <trkpt lat="39.369767" lon="-0.881348">
        <ele>510.25</ele>
      </trkpt>
      <trkpt lat="39.369852" lon="-0.88135">
        <ele>509.75</ele>
      </trkpt>
      <trkpt lat="39.370031" lon="-0.881329">
        <ele>508.5</ele>
      </trkpt>
      <trkpt lat="39.370145" lon="-0.881287">
        <ele>507.5</ele>
      </trkpt>
      <trkpt lat="39.370212" lon="-0.88125">
        <ele>506.75</ele>
      </trkpt>
      <trkpt lat="39.370316" lon="-0.881176">
        <ele>504.75</ele>
      </trkpt>
      <trkpt lat="39.370404" lon="-0.881094">
        <ele>502.75</ele>
      </trkpt>
      <trkpt lat="39.370439" lon="-0.881071">
        <ele>502.25</ele>
      </trkpt>
      <trkpt lat="39.37048" lon="-0.881058">
        <ele>502.25</ele>
      </trkpt>
      <trkpt lat="39.370521" lon="-0.881055">
        <ele>502.25</ele>
      </trkpt>
      <trkpt lat="39.370564" lon="-0.881063">
        <ele>502.75</ele>
      </trkpt>
      <trkpt lat="39.370607" lon="-0.881082">
        <ele>503.5</ele>
      </trkpt>
      <trkpt lat="39.370764" lon="-0.881208">
        <ele>507.5</ele>
      </trkpt>
      <trkpt lat="39.370869" lon="-0.881321">
        <ele>510.5</ele>
      </trkpt>
      <trkpt lat="39.370932" lon="-0.881411">
        <ele>512.25</ele>
      </trkpt>
      <trkpt lat="39.370988" lon="-0.881523">
        <ele>514</ele>
      </trkpt>
      <trkpt lat="39.371138" lon="-0.881901">
        <ele>518.5</ele>
      </trkpt>
      <trkpt lat="39.371557" lon="-0.883341">
        <ele>521</ele>
      </trkpt>
      <trkpt lat="39.371589" lon="-0.883512">
        <ele>520.5</ele>
      </trkpt>
      <trkpt lat="39.37159" lon="-0.883579">
        <ele>520.75</ele>
      </trkpt>
      <trkpt lat="39.371529" lon="-0.884157">
        <ele>524.75</ele>
      </trkpt>
      <trkpt lat="39.371527" lon="-0.884224">
        <ele>525.25</ele>
      </trkpt>
      <trkpt lat="39.371533" lon="-0.884285">
        <ele>525.5</ele>
      </trkpt>
      <trkpt lat="39.371548" lon="-0.884345">
        <ele>525.5</ele>
      </trkpt>
      <trkpt lat="39.371569" lon="-0.884395">
        <ele>525.25</ele>
      </trkpt>
      <trkpt lat="39.371597" lon="-0.884438">
        <ele>524.75</ele>
      </trkpt>
      <trkpt lat="39.371636" lon="-0.884482">
        <ele>523.75</ele>
      </trkpt>
      <trkpt lat="39.371725" lon="-0.884547">
        <ele>524</ele>
      </trkpt>
      <trkpt lat="39.371947" lon="-0.884657">
        <ele>527.5</ele>
      </trkpt>
      <trkpt lat="39.37201" lon="-0.88467">
        <ele>528.25</ele>
      </trkpt>
      <trkpt lat="39.372059" lon="-0.884661">
        <ele>528.75</ele>
      </trkpt>
      <trkpt lat="39.37214" lon="-0.884609">
        <ele>528.75</ele>
      </trkpt>
      <trkpt lat="39.372177" lon="-0.884565">
        <ele>528.25</ele>
      </trkpt>
      <trkpt lat="39.372193" lon="-0.884546">
        <ele>528.25</ele>
      </trkpt>
      <trkpt lat="39.372304" lon="-0.884365">
        <ele>526.25</ele>
      </trkpt>
      <trkpt lat="39.372351" lon="-0.8843">
        <ele>525.5</ele>
      </trkpt>
      <trkpt lat="39.372434" lon="-0.884215">
        <ele>524.5</ele>
      </trkpt>
      <trkpt lat="39.372469" lon="-0.884198">
        <ele>524.25</ele>
      </trkpt>
      <trkpt lat="39.372517" lon="-0.884179">
        <ele>524.25</ele>
      </trkpt>
      <trkpt lat="39.372593" lon="-0.884171">
        <ele>524.25</ele>
      </trkpt>
      <trkpt lat="39.372824" lon="-0.884189">
        <ele>525.5</ele>
      </trkpt>
      <trkpt lat="39.372937" lon="-0.884217">
        <ele>526.75</ele>
      </trkpt>
      <trkpt lat="39.372965" lon="-0.884241">
        <ele>527.75</ele>
      </trkpt>
      <trkpt lat="39.372973" lon="-0.884266">
        <ele>528.5</ele>
      </trkpt>
      <trkpt lat="39.372776" lon="-0.884295">
        <ele>528</ele>
      </trkpt>
      <trkpt lat="39.372692" lon="-0.884328">
        <ele>528.25</ele>
      </trkpt>
      <trkpt lat="39.372613" lon="-0.884386">
        <ele>529</ele>
      </trkpt>
      <trkpt lat="39.372572" lon="-0.884441">
        <ele>529.75</ele>
      </trkpt>
      <trkpt lat="39.372538" lon="-0.884504">
        <ele>530.75</ele>
      </trkpt>
      <trkpt lat="39.372512" lon="-0.88457">
        <ele>531.75</ele>
      </trkpt>
      <trkpt lat="39.372181" lon="-0.885837">
        <ele>550.75</ele>
      </trkpt>
      <trkpt lat="39.372137" lon="-0.885901">
        <ele>551</ele>
      </trkpt>
      <trkpt lat="39.37211" lon="-0.885928">
        <ele>550.75</ele>
      </trkpt>
      <trkpt lat="39.372019" lon="-0.885968">
        <ele>550.25</ele>
      </trkpt>
      <trkpt lat="39.371981" lon="-0.885972">
        <ele>549.75</ele>
      </trkpt>
      <trkpt lat="39.37193" lon="-0.885966">
        <ele>549</ele>
      </trkpt>
      <trkpt lat="39.371873" lon="-0.885939">
        <ele>547.75</ele>
      </trkpt>
      <trkpt lat="39.371737" lon="-0.885834">
        <ele>544.75</ele>
      </trkpt>
      <trkpt lat="39.371703" lon="-0.885815">
        <ele>544</ele>
      </trkpt>
      <trkpt lat="39.371621" lon="-0.88579">
        <ele>543.25</ele>
      </trkpt>
      <trkpt lat="39.371569" lon="-0.885798">
        <ele>543.5</ele>
      </trkpt>
      <trkpt lat="39.37153" lon="-0.885811">
        <ele>543.75</ele>
      </trkpt>
      <trkpt lat="39.371477" lon="-0.885848">
        <ele>544.5</ele>
      </trkpt>
      <trkpt lat="39.371439" lon="-0.885877">
        <ele>544.5</ele>
      </trkpt>
      <trkpt lat="39.371402" lon="-0.885924">
        <ele>544.75</ele>
      </trkpt>
      <trkpt lat="39.371374" lon="-0.885971">
        <ele>544.75</ele>
      </trkpt>
      <trkpt lat="39.371354" lon="-0.886026">
        <ele>544.75</ele>
      </trkpt>
      <trkpt lat="39.371343" lon="-0.886092">
        <ele>544.5</ele>
      </trkpt>
      <trkpt lat="39.371348" lon="-0.886333">
        <ele>544.75</ele>
      </trkpt>
      <trkpt lat="39.371533" lon="-0.888278">
        <ele>525.5</ele>
      </trkpt>
      <trkpt lat="39.371717" lon="-0.888778">
        <ele>525.5</ele>
      </trkpt>
      <trkpt lat="39.371855" lon="-0.888974">
        <ele>528.75</ele>
      </trkpt>
      <trkpt lat="39.371872" lon="-0.889195">
        <ele>527.75</ele>
      </trkpt>
      <trkpt lat="39.371817" lon="-0.889343">
        <ele>526.5</ele>
      </trkpt>
      <trkpt lat="39.371608" lon="-0.889589">
        <ele>522</ele>
      </trkpt>
      <trkpt lat="39.371546" lon="-0.889794">
        <ele>522.25</ele>
      </trkpt>
      <trkpt lat="39.37146" lon="-0.890342">
        <ele>521.5</ele>
      </trkpt>
      <trkpt lat="39.371424" lon="-0.891385">
        <ele>522.25</ele>
      </trkpt>
      <trkpt lat="39.37139" lon="-0.891651">
        <ele>522.5</ele>
      </trkpt>
      <trkpt lat="39.371181" lon="-0.89282">
        <ele>526.5</ele>
      </trkpt>
      <trkpt lat="39.37098" lon="-0.893632">
        <ele>532</ele>
      </trkpt>
      <trkpt lat="39.370993" lon="-0.894352">
        <ele>536.75</ele>
      </trkpt>
      <trkpt lat="39.370968" lon="-0.89485">
        <ele>537.25</ele>
      </trkpt>
      <trkpt lat="39.37116" lon="-0.895659">
        <ele>542.5</ele>
      </trkpt>
      <trkpt lat="39.371163" lon="-0.895932">
        <ele>542</ele>
      </trkpt>
      <trkpt lat="39.371047" lon="-0.896183">
        <ele>541.25</ele>
      </trkpt>
      <trkpt lat="39.370922" lon="-0.896386">
        <ele>541.75</ele>
      </trkpt>
      <trkpt lat="39.370384" lon="-0.897097">
        <ele>546.5</ele>
      </trkpt>
      <trkpt lat="39.370148" lon="-0.897525">
        <ele>550</ele>
      </trkpt>
      <trkpt lat="39.370036" lon="-0.897618">
        <ele>550</ele>
      </trkpt>
      <trkpt lat="39.369852" lon="-0.897654">
        <ele>552.25</ele>
      </trkpt>
      <trkpt lat="39.369692" lon="-0.897582">
        <ele>553.75</ele>
      </trkpt>
      <trkpt lat="39.36925" lon="-0.89725">
        <ele>556.5</ele>
      </trkpt>
      <trkpt lat="39.369141" lon="-0.897256">
        <ele>558.25</ele>
      </trkpt>
      <trkpt lat="39.369033" lon="-0.897351">
        <ele>560.5</ele>
      </trkpt>
      <trkpt lat="39.368452" lon="-0.898506">
        <ele>566.75</ele>
      </trkpt>
      <trkpt lat="39.368338" lon="-0.898837">
        <ele>567.75</ele>
      </trkpt>
      <trkpt lat="39.368276" lon="-0.899085">
        <ele>569.5</ele>
      </trkpt>
      <trkpt lat="39.367678" lon="-0.901898">
        <ele>560.25</ele>
      </trkpt>
      <trkpt lat="39.367104" lon="-0.90334">
        <ele>557.5</ele>
      </trkpt>
      <trkpt lat="39.366856" lon="-0.903735">
        <ele>553.75</ele>
      </trkpt>
      <trkpt lat="39.366807" lon="-0.904021">
        <ele>551.5</ele>
      </trkpt>
      <trkpt lat="39.366797" lon="-0.904646">
        <ele>549</ele>
      </trkpt>
      <trkpt lat="39.367005" lon="-0.905618">
        <ele>547.5</ele>
      </trkpt>
      <trkpt lat="39.367002" lon="-0.906549">
        <ele>539.5</ele>
      </trkpt>
      <trkpt lat="39.367076" lon="-0.906714">
        <ele>538</ele>
      </trkpt>
      <trkpt lat="39.367192" lon="-0.906808">
        <ele>537.25</ele>
      </trkpt>
      <trkpt lat="39.367679" lon="-0.906769">
        <ele>535.25</ele>
      </trkpt>
      <trkpt lat="39.36785" lon="-0.906837">
        <ele>535</ele>
      </trkpt>
      <trkpt lat="39.368594" lon="-0.907262">
        <ele>526.75</ele>
      </trkpt>
      <trkpt lat="39.369195" lon="-0.908093">
        <ele>517.25</ele>
      </trkpt>
      <trkpt lat="39.369233" lon="-0.908267">
        <ele>515.75</ele>
      </trkpt>
      <trkpt lat="39.369162" lon="-0.908438">
        <ele>514.5</ele>
      </trkpt>
      <trkpt lat="39.368978" lon="-0.908518">
        <ele>516.25</ele>
      </trkpt>
      <trkpt lat="39.368652" lon="-0.908615">
        <ele>518.5</ele>
      </trkpt>
      <trkpt lat="39.368531" lon="-0.908787">
        <ele>517.75</ele>
      </trkpt>
      <trkpt lat="39.368437" lon="-0.909093">
        <ele>515</ele>
      </trkpt>
      <trkpt lat="39.368426" lon="-0.909425">
        <ele>510.75</ele>
      </trkpt>
      <trkpt lat="39.368503" lon="-0.909761">
        <ele>506.75</ele>
      </trkpt>
      <trkpt lat="39.368462" lon="-0.909958">
        <ele>503.5</ele>
      </trkpt>
      <trkpt lat="39.368138" lon="-0.910481">
        <ele>501.75</ele>
      </trkpt>
      <trkpt lat="39.367879" lon="-0.911226">
        <ele>500.75</ele>
      </trkpt>
      <trkpt lat="39.367893" lon="-0.91147">
        <ele>498.75</ele>
      </trkpt>
      <trkpt lat="39.368008" lon="-0.911824">
        <ele>493</ele>
      </trkpt>
      <trkpt lat="39.367992" lon="-0.912183">
        <ele>488.75</ele>
      </trkpt>
      <trkpt lat="39.367738" lon="-0.913586">
        <ele>481</ele>
      </trkpt>
      <trkpt lat="39.367766" lon="-0.913854">
        <ele>479.75</ele>
      </trkpt>
      <trkpt lat="39.367868" lon="-0.914163">
        <ele>478</ele>
      </trkpt>
      <trkpt lat="39.368205" lon="-0.914725">
        <ele>480</ele>
      </trkpt>
      <trkpt lat="39.36823" lon="-0.91498">
        <ele>481.75</ele>
      </trkpt>
      <trkpt lat="39.36817" lon="-0.915173">
        <ele>481</ele>
      </trkpt>
      <trkpt lat="39.367937" lon="-0.915669">
        <ele>475.25</ele>
      </trkpt>
      <trkpt lat="39.367873" lon="-0.916011">
        <ele>472.5</ele>
      </trkpt>
      <trkpt lat="39.367767" lon="-0.917356">
        <ele>466.75</ele>
      </trkpt>
      <trkpt lat="39.367829" lon="-0.917684">
        <ele>465</ele>
      </trkpt>
      <trkpt lat="39.368114" lon="-0.918432">
        <ele>458.5</ele>
      </trkpt>
      <trkpt lat="39.368248" lon="-0.918543">
        <ele>460</ele>
      </trkpt>
      <trkpt lat="39.368487" lon="-0.918671">
        <ele>461.25</ele>
      </trkpt>
      <trkpt lat="39.368575" lon="-0.918833">
        <ele>461</ele>
      </trkpt>
      <trkpt lat="39.36854" lon="-0.91901">
        <ele>460</ele>
      </trkpt>
      <trkpt lat="39.368445" lon="-0.919122">
        <ele>458.5</ele>
      </trkpt>
      <trkpt lat="39.368154" lon="-0.919381">
        <ele>456.5</ele>
      </trkpt>
      <trkpt lat="39.368069" lon="-0.91955">
        <ele>456.5</ele>
      </trkpt>
      <trkpt lat="39.368044" lon="-0.919806">
        <ele>458</ele>
      </trkpt>
      <trkpt lat="39.367956" lon="-0.921987">
        <ele>462</ele>
      </trkpt>
      <trkpt lat="39.367906" lon="-0.922299">
        <ele>462.25</ele>
      </trkpt>
      <trkpt lat="39.366878" lon="-0.925158">
        <ele>466.75</ele>
      </trkpt>
      <trkpt lat="39.366688" lon="-0.92566">
        <ele>468.5</ele>
      </trkpt>
      <trkpt lat="39.36669" lon="-0.92589">
        <ele>469.5</ele>
      </trkpt>
      <trkpt lat="39.366793" lon="-0.926111">
        <ele>468.25</ele>
      </trkpt>
      <trkpt lat="39.36738" lon="-0.927055">
        <ele>465.25</ele>
      </trkpt>
      <trkpt lat="39.367631" lon="-0.927476">
        <ele>466.75</ele>
      </trkpt>
      <trkpt lat="39.36795" lon="-0.928012">
        <ele>464</ele>
      </trkpt>
      <trkpt lat="39.368191" lon="-0.92824">
        <ele>462.5</ele>
      </trkpt>
      <trkpt lat="39.368297" lon="-0.928292">
        <ele>462.5</ele>
      </trkpt>
      <trkpt lat="39.368412" lon="-0.928327">
        <ele>461.75</ele>
      </trkpt>
      <trkpt lat="39.368836" lon="-0.928411">
        <ele>460</ele>
      </trkpt>
      <trkpt lat="39.369012" lon="-0.928455">
        <ele>459.5</ele>
      </trkpt>
      <trkpt lat="39.369148" lon="-0.928579">
        <ele>459.5</ele>
      </trkpt>
      <trkpt lat="39.369274" lon="-0.928868">
        <ele>460.5</ele>
      </trkpt>
      <trkpt lat="39.369517" lon="-0.929748">
        <ele>465</ele>
      </trkpt>
      <trkpt lat="39.369711" lon="-0.93088">
        <ele>467.75</ele>
      </trkpt>
      <trkpt lat="39.369674" lon="-0.931252">
        <ele>469</ele>
      </trkpt>
      <trkpt lat="39.369567" lon="-0.93152">
        <ele>471.25</ele>
      </trkpt>
      <trkpt lat="39.369217" lon="-0.932195">
        <ele>470.5</ele>
      </trkpt>
      <trkpt lat="39.369193" lon="-0.932315">
        <ele>469.25</ele>
      </trkpt>
      <trkpt lat="39.369201" lon="-0.932439">
        <ele>467.5</ele>
      </trkpt>
      <trkpt lat="39.369117" lon="-0.932271">
        <ele>467.923</ele>
      </trkpt>
      <trkpt lat="39.368632" lon="-0.933044">
        <ele>462.283</ele>
      </trkpt>
      <trkpt lat="39.368424" lon="-0.933623">
        <ele>465.011</ele>
      </trkpt>
      <trkpt lat="39.368325" lon="-0.934305">
        <ele>464.009</ele>
      </trkpt>
      <trkpt lat="39.368474" lon="-0.935082">
        <ele>472.433</ele>
      </trkpt>
      <trkpt lat="39.368769" lon="-0.935801">
        <ele>475.474</ele>
      </trkpt>
      <trkpt lat="39.368992" lon="-0.936670">
        <ele>485.776</ele>
      </trkpt>
      <trkpt lat="39.369121" lon="-0.937636">
        <ele>485.389</ele>
      </trkpt>
      <trkpt lat="39.369424" lon="-0.938215">
        <ele>492.189</ele>
      </trkpt>
      <trkpt lat="39.370017" lon="-0.939315">
        <ele>491.034</ele>
      </trkpt>
      <trkpt lat="39.370158" lon="-0.939819">
        <ele>496.577</ele>
      </trkpt>
      <trkpt lat="39.370108" lon="-0.940350">
        <ele>504.416</ele>
      </trkpt>
      <trkpt lat="39.370651" lon="-0.940667">
        <ele>501.396</ele>
      </trkpt>
      <trkpt lat="39.371004" lon="-0.941107">
        <ele>502.454</ele>
      </trkpt>
      <trkpt lat="39.371315" lon="-0.941520">
        <ele>508.956</ele>
      </trkpt>
      <trkpt lat="39.371618" lon="-0.941659">
        <ele>510.011</ele>
      </trkpt>
      <trkpt lat="39.371966" lon="-0.941488">
        <ele>505.809</ele>
      </trkpt>
      <trkpt lat="39.372169" lon="-0.941423">
        <ele>504.576</ele>
      </trkpt>
      <trkpt lat="39.372522" lon="-0.941536">
        <ele>505.377</ele>
      </trkpt>
      <trkpt lat="39.372725" lon="-0.941911">
        <ele>505.539</ele>
      </trkpt>
      <trkpt lat="39.372961" lon="-0.942314">
        <ele>503.422</ele>
      </trkpt>
      <trkpt lat="39.373106" lon="-0.942748">
        <ele>505.852</ele>
      </trkpt>
      <trkpt lat="39.373285" lon="-0.943022">
        <ele>505.667</ele>
      </trkpt>
      <trkpt lat="39.373355" lon="-0.943537">
        <ele>508.120</ele>
      </trkpt>
      <trkpt lat="39.373351" lon="-0.943757">
        <ele>509.349</ele>
      </trkpt>
      <trkpt lat="39.373641" lon="-0.943649">
        <ele>504.029</ele>
      </trkpt>
      <trkpt lat="39.373774" lon="-0.943944">
        <ele>505.259</ele>
      </trkpt>
      <trkpt lat="39.373708" lon="-0.944358">
        <ele>509.103</ele>
      </trkpt>
      <trkpt lat="39.373811" lon="-0.944604">
        <ele>508.623</ele>
      </trkpt>
      <trkpt lat="39.374491" lon="-0.945269">
        <ele>505.609</ele>
      </trkpt>
      <trkpt lat="39.375234" lon="-0.945956">
        <ele>506.896</ele>
      </trkpt>
      <trkpt lat="39.375482" lon="-0.945806">
        <ele>504.427</ele>
      </trkpt>
      <trkpt lat="39.375876" lon="-0.945924">
        <ele>504.419</ele>
      </trkpt>
      <trkpt lat="39.376830" lon="-0.946686">
        <ele>504.192</ele>
      </trkpt>
      <trkpt lat="39.377050" lon="-0.946519">
        <ele>503.552</ele>
      </trkpt>
      <trkpt lat="39.377489" lon="-0.946568">
        <ele>502.737</ele>
      </trkpt>
      <trkpt lat="39.378103" lon="-0.946761">
        <ele>493.530</ele>
      </trkpt>
      <trkpt lat="39.378323" lon="-0.946627">
        <ele>490.039</ele>
      </trkpt>
      <trkpt lat="39.378509" lon="-0.945902">
        <ele>486.349</ele>
      </trkpt>
      <trkpt lat="39.378733" lon="-0.945983">
        <ele>488.452</ele>
      </trkpt>
      <trkpt lat="39.378692" lon="-0.946471">
        <ele>487.953</ele>
      </trkpt>
      <trkpt lat="39.378754" lon="-0.946761">
        <ele>487.008</ele>
      </trkpt>
      <trkpt lat="39.378742" lon="-0.947410">
        <ele>485.009</ele>
      </trkpt>
      <trkpt lat="39.379048" lon="-0.947726">
        <ele>488.326</ele>
      </trkpt>
      <trkpt lat="39.379185" lon="-0.948150">
        <ele>491.587</ele>
      </trkpt>
      <trkpt lat="39.378912" lon="-0.948284">
        <ele>492.619</ele>
      </trkpt>
      <trkpt lat="39.378820" lon="-0.948493">
        <ele>493.712</ele>
      </trkpt>
      <trkpt lat="39.378920" lon="-0.949084">
        <ele>498.182</ele>
      </trkpt>
      <trkpt lat="39.379024" lon="-0.949395">
        <ele>499.237</ele>
      </trkpt>
      <trkpt lat="39.379418" lon="-0.949572">
        <ele>499.960</ele>
      </trkpt>
      <trkpt lat="39.379679" lon="-0.949636">
        <ele>501.399</ele>
      </trkpt>
      <trkpt lat="39.380127" lon="-0.949556">
        <ele>503.459</ele>
      </trkpt>
      <trkpt lat="39.380641" lon="-0.949759">
        <ele>507.114</ele>
      </trkpt>
      <trkpt lat="39.380923" lon="-0.949910">
        <ele>511.554</ele>
      </trkpt>
      <trkpt lat="39.381466" lon="-0.950226">
        <ele>510.109</ele>
      </trkpt>
      <trkpt lat="39.381439" lon="-0.950411">
        <ele>512.75</ele>
      </trkpt>
      <trkpt lat="39.38141" lon="-0.950511">
        <ele>513.5</ele>
      </trkpt>
      <trkpt lat="39.381259" lon="-0.951993">
        <ele>514</ele>
      </trkpt>
      <trkpt lat="39.381279" lon="-0.952222">
        <ele>513.5</ele>
      </trkpt>
      <trkpt lat="39.381403" lon="-0.952495">
        <ele>513.75</ele>
      </trkpt>
      <trkpt lat="39.382123" lon="-0.953869">
        <ele>507.75</ele>
      </trkpt>
      <trkpt lat="39.382737" lon="-0.954565">
        <ele>508.25</ele>
      </trkpt>
      <trkpt lat="39.382767" lon="-0.954636">
        <ele>508.25</ele>
      </trkpt>
      <trkpt lat="39.382791" lon="-0.954756">
        <ele>507.25</ele>
      </trkpt>
      <trkpt lat="39.382767" lon="-0.954636">
        <ele>508.25</ele>
      </trkpt>
      <trkpt lat="39.382905" lon="-0.954682">
        <ele>509.25</ele>
      </trkpt>
      <trkpt lat="39.383342" lon="-0.955003">
        <ele>510</ele>
      </trkpt>
      <trkpt lat="39.383542" lon="-0.955119">
        <ele>513.5</ele>
      </trkpt>
      <trkpt lat="39.383731" lon="-0.955201">
        <ele>515.75</ele>
      </trkpt>
      <trkpt lat="39.384234" lon="-0.955386">
        <ele>518.75</ele>
      </trkpt>
      <trkpt lat="39.38441" lon="-0.955535">
        <ele>518.5</ele>
      </trkpt>
      <trkpt lat="39.384596" lon="-0.955788">
        <ele>517.25</ele>
      </trkpt>
      <trkpt lat="39.38473" lon="-0.956001">
        <ele>517.5</ele>
      </trkpt>
      <trkpt lat="39.38485" lon="-0.956147">
        <ele>517.5</ele>
      </trkpt>
      <trkpt lat="39.384946" lon="-0.956251">
        <ele>517</ele>
      </trkpt>
      <trkpt lat="39.385022" lon="-0.956291">
        <ele>517</ele>
      </trkpt>
      <trkpt lat="39.385133" lon="-0.956325">
        <ele>517.25</ele>
      </trkpt>
      <trkpt lat="39.385247" lon="-0.95633">
        <ele>518.25</ele>
      </trkpt>
      <trkpt lat="39.38536" lon="-0.956316">
        <ele>519.25</ele>
      </trkpt>
      <trkpt lat="39.385801" lon="-0.956227">
        <ele>523.5</ele>
      </trkpt>
      <trkpt lat="39.38618" lon="-0.956164">
        <ele>524.25</ele>
      </trkpt>
      <trkpt lat="39.386476" lon="-0.956105">
        <ele>525.5</ele>
      </trkpt>
      <trkpt lat="39.386744" lon="-0.956009">
        <ele>527.75</ele>
      </trkpt>
      <trkpt lat="39.386917" lon="-0.955984">
        <ele>528</ele>
      </trkpt>
      <trkpt lat="39.387336" lon="-0.955972">
        <ele>527.25</ele>
      </trkpt>
      <trkpt lat="39.387626" lon="-0.955939">
        <ele>530.25</ele>
      </trkpt>
      <trkpt lat="39.387908" lon="-0.955944">
        <ele>536.25</ele>
      </trkpt>
      <trkpt lat="39.388105" lon="-0.955994">
        <ele>539</ele>
      </trkpt>
      <trkpt lat="39.38832" lon="-0.956113">
        <ele>539.75</ele>
      </trkpt>
      <trkpt lat="39.388648" lon="-0.956484">
        <ele>534</ele>
      </trkpt>
      <trkpt lat="39.388753" lon="-0.956631">
        <ele>531.5</ele>
      </trkpt>
      <trkpt lat="39.388917" lon="-0.956909">
        <ele>530</ele>
      </trkpt>
      <trkpt lat="39.389093" lon="-0.95718">
        <ele>529.25</ele>
      </trkpt>
      <trkpt lat="39.389303" lon="-0.957425">
        <ele>528.5</ele>
      </trkpt>
      <trkpt lat="39.389526" lon="-0.957633">
        <ele>529.5</ele>
      </trkpt>
      <trkpt lat="39.389937" lon="-0.957968">
        <ele>531.5</ele>
      </trkpt>
      <trkpt lat="39.390077" lon="-0.95817">
        <ele>531.25</ele>
      </trkpt>
      <trkpt lat="39.390232" lon="-0.958419">
        <ele>532</ele>
      </trkpt>
      <trkpt lat="39.390282" lon="-0.958564">
        <ele>533</ele>
      </trkpt>
      <trkpt lat="39.390288" lon="-0.958693">
        <ele>533.25</ele>
      </trkpt>
      <trkpt lat="39.390249" lon="-0.958858">
        <ele>533.5</ele>
      </trkpt>
      <trkpt lat="39.389726" lon="-0.959911">
        <ele>535.5</ele>
      </trkpt>
      <trkpt lat="39.38957" lon="-0.960191">
        <ele>535.5</ele>
      </trkpt>
      <trkpt lat="39.389441" lon="-0.960458">
        <ele>535.25</ele>
      </trkpt>
      <trkpt lat="39.389362" lon="-0.960679">
        <ele>535</ele>
      </trkpt>
      <trkpt lat="39.389315" lon="-0.960897">
        <ele>534.75</ele>
      </trkpt>
      <trkpt lat="39.389308" lon="-0.961183">
        <ele>534.5</ele>
      </trkpt>
      <trkpt lat="39.389312" lon="-0.961897">
        <ele>535.75</ele>
      </trkpt>
      <trkpt lat="39.389305" lon="-0.962328">
        <ele>538</ele>
      </trkpt>
      <trkpt lat="39.389306" lon="-0.962832">
        <ele>539.25</ele>
      </trkpt>
      <trkpt lat="39.389317" lon="-0.963126">
        <ele>539.5</ele>
      </trkpt>
      <trkpt lat="39.389359" lon="-0.963248">
        <ele>540</ele>
      </trkpt>
      <trkpt lat="39.389452" lon="-0.963373">
        <ele>540.25</ele>
      </trkpt>
      <trkpt lat="39.38958" lon="-0.963489">
        <ele>540.25</ele>
      </trkpt>
      <trkpt lat="39.389769" lon="-0.963635">
        <ele>540</ele>
      </trkpt>
      <trkpt lat="39.389896" lon="-0.963688">
        <ele>540</ele>
      </trkpt>
      <trkpt lat="39.390184" lon="-0.963606">
        <ele>542</ele>
      </trkpt>
      <trkpt lat="39.391846" lon="-0.962733">
        <ele>559.75</ele>
      </trkpt>
      <trkpt lat="39.392055" lon="-0.962583">
        <ele>560.25</ele>
      </trkpt>
      <trkpt lat="39.392726" lon="-0.962064">
        <ele>568.25</ele>
      </trkpt>
      <trkpt lat="39.393607" lon="-0.961421">
        <ele>572.5</ele>
      </trkpt>
      <trkpt lat="39.393822" lon="-0.961167">
        <ele>576.75</ele>
      </trkpt>
      <trkpt lat="39.394004" lon="-0.960895">
        <ele>580.75</ele>
      </trkpt>
      <trkpt lat="39.394099" lon="-0.96084">
        <ele>581</ele>
      </trkpt>
      <trkpt lat="39.394193" lon="-0.960852">
        <ele>581</ele>
      </trkpt>
      <trkpt lat="39.394318" lon="-0.960916">
        <ele>581.75</ele>
      </trkpt>
      <trkpt lat="39.394851" lon="-0.960983">
        <ele>588</ele>
      </trkpt>
      <trkpt lat="39.395725" lon="-0.962023">
        <ele>588.5</ele>
      </trkpt>
      <trkpt lat="39.397353" lon="-0.961776">
        <ele>603</ele>
      </trkpt>
      <trkpt lat="39.397604" lon="-0.961648">
        <ele>605.5</ele>
      </trkpt>
      <trkpt lat="39.397985" lon="-0.960575">
        <ele>618.75</ele>
      </trkpt>
      <trkpt lat="39.398606" lon="-0.9595">
        <ele>624.5</ele>
      </trkpt>
      <trkpt lat="39.398433" lon="-0.958773">
        <ele>627.75</ele>
      </trkpt>
      <trkpt lat="39.398934" lon="-0.958085">
        <ele>628.25</ele>
      </trkpt>
      <trkpt lat="39.399726" lon="-0.957571">
        <ele>636</ele>
      </trkpt>
      <trkpt lat="39.400054" lon="-0.95763">
        <ele>636.25</ele>
      </trkpt>
      <trkpt lat="39.40034" lon="-0.957764">
        <ele>635.75</ele>
      </trkpt>
      <trkpt lat="39.400588" lon="-0.957131">
        <ele>642.75</ele>
      </trkpt>
      <trkpt lat="39.400705" lon="-0.956793">
        <ele>648</ele>
      </trkpt>
      <trkpt lat="39.40097" lon="-0.956563">
        <ele>652.75</ele>
      </trkpt>
      <trkpt lat="39.40121" lon="-0.956536">
        <ele>655</ele>
      </trkpt>
      <trkpt lat="39.401268" lon="-0.956691">
        <ele>653.25</ele>
      </trkpt>
      <trkpt lat="39.401036" lon="-0.957035">
        <ele>646.25</ele>
      </trkpt>
      <trkpt lat="39.401103" lon="-0.957314">
        <ele>643.25</ele>
      </trkpt>
      <trkpt lat="39.402031" lon="-0.957442">
        <ele>651.75</ele>
      </trkpt>
      <trkpt lat="39.402794" lon="-0.957163">
        <ele>661.75</ele>
      </trkpt>
      <trkpt lat="39.403082" lon="-0.957005">
        <ele>665.25</ele>
      </trkpt>
      <trkpt lat="39.404087" lon="-0.956455">
        <ele>677.5</ele>
      </trkpt>
      <trkpt lat="39.404854" lon="-0.955747">
        <ele>694</ele>
      </trkpt>
      <trkpt lat="39.40618" lon="-0.955297">
        <ele>696.5</ele>
      </trkpt>
      <trkpt lat="39.406213" lon="-0.955597">
        <ele>698</ele>
      </trkpt>
      <trkpt lat="39.405749" lon="-0.955919">
        <ele>689.25</ele>
      </trkpt>
      <trkpt lat="39.405467" lon="-0.956284">
        <ele>693.25</ele>
      </trkpt>
      <trkpt lat="39.40492" lon="-0.957206">
        <ele>691.75</ele>
      </trkpt>
      <trkpt lat="39.40434" lon="-0.9577">
        <ele>686.75</ele>
      </trkpt>
      <trkpt lat="39.403701" lon="-0.958684">
        <ele>686</ele>
      </trkpt>
      <trkpt lat="39.403985" lon="-0.95901">
        <ele>694</ele>
      </trkpt>
      <trkpt lat="39.404804" lon="-0.959288">
        <ele>705.75</ele>
      </trkpt>
      <trkpt lat="39.40565" lon="-0.958859">
        <ele>715.25</ele>
      </trkpt>
      <trkpt lat="39.406661" lon="-0.959009">
        <ele>724</ele>
      </trkpt>
      <trkpt lat="39.407092" lon="-0.958601">
        <ele>729.75</ele>
      </trkpt>
      <trkpt lat="39.407175" lon="-0.958794">
        <ele>729.75</ele>
      </trkpt>
      <trkpt lat="39.406835" lon="-0.959282">
        <ele>726</ele>
      </trkpt>
      <trkpt lat="39.406582" lon="-0.959518">
        <ele>725</ele>
      </trkpt>
      <trkpt lat="39.406399" lon="-0.959638">
        <ele>723.5</ele>
      </trkpt>
      <trkpt lat="39.406218" lon="-0.95976">
        <ele>721.75</ele>
      </trkpt>
      <trkpt lat="39.406155" lon="-0.959844">
        <ele>721.5</ele>
      </trkpt>
      <trkpt lat="39.40613" lon="-0.959921">
        <ele>721.75</ele>
      </trkpt>
      <trkpt lat="39.406163" lon="-0.960052">
        <ele>723.5</ele>
      </trkpt>
      <trkpt lat="39.406265" lon="-0.960298">
        <ele>729</ele>
      </trkpt>
      <trkpt lat="39.40636" lon="-0.960479">
        <ele>732.75</ele>
      </trkpt>
      <trkpt lat="39.406382" lon="-0.960601">
        <ele>734.75</ele>
      </trkpt>
      <trkpt lat="39.406349" lon="-0.960699">
        <ele>735.75</ele>
      </trkpt>
      <trkpt lat="39.406243" lon="-0.96075">
        <ele>735</ele>
      </trkpt>
      <trkpt lat="39.405797" lon="-0.960676">
        <ele>728.75</ele>
      </trkpt>
      <trkpt lat="39.405532" lon="-0.96067">
        <ele>726.25</ele>
      </trkpt>
      <trkpt lat="39.405278" lon="-0.960799">
        <ele>726.5</ele>
      </trkpt>
      <trkpt lat="39.405058" lon="-0.961045">
        <ele>729</ele>
      </trkpt>
      <trkpt lat="39.404855" lon="-0.96134">
        <ele>731.5</ele>
      </trkpt>
      <trkpt lat="39.404711" lon="-0.961491">
        <ele>732.25</ele>
      </trkpt>
      <trkpt lat="39.404545" lon="-0.961647">
        <ele>732.5</ele>
      </trkpt>
      <trkpt lat="39.404387" lon="-0.961782">
        <ele>731.5</ele>
      </trkpt>
      <trkpt lat="39.404295" lon="-0.961902">
        <ele>731.25</ele>
      </trkpt>
      <trkpt lat="39.404268" lon="-0.962006">
        <ele>731.5</ele>
      </trkpt>
      <trkpt lat="39.404281" lon="-0.962057">
        <ele>732</ele>
      </trkpt>
      <trkpt lat="39.404373" lon="-0.962118">
        <ele>733.75</ele>
      </trkpt>
      <trkpt lat="39.404498" lon="-0.962126">
        <ele>736</ele>
      </trkpt>
      <trkpt lat="39.404633" lon="-0.962059">
        <ele>737.5</ele>
      </trkpt>
      <trkpt lat="39.404925" lon="-0.961851">
        <ele>739.75</ele>
      </trkpt>
      <trkpt lat="39.40518" lon="-0.961686">
        <ele>741.5</ele>
      </trkpt>
      <trkpt lat="39.405413" lon="-0.961517">
        <ele>741.5</ele>
      </trkpt>
      <trkpt lat="39.405643" lon="-0.961456">
        <ele>743</ele>
      </trkpt>
      <trkpt lat="39.406019" lon="-0.961399">
        <ele>746</ele>
      </trkpt>
      <trkpt lat="39.406322" lon="-0.961379">
        <ele>748.5</ele>
      </trkpt>
      <trkpt lat="39.406593" lon="-0.961346">
        <ele>750.5</ele>
      </trkpt>
      <trkpt lat="39.406912" lon="-0.961242">
        <ele>753.5</ele>
      </trkpt>
      <trkpt lat="39.407492" lon="-0.961069">
        <ele>761.25</ele>
      </trkpt>
      <trkpt lat="39.407631" lon="-0.960963">
        <ele>761.75</ele>
      </trkpt>
      <trkpt lat="39.407697" lon="-0.96078">
        <ele>760.25</ele>
      </trkpt>
      <trkpt lat="39.407694" lon="-0.960624">
        <ele>758.25</ele>
      </trkpt>
      <trkpt lat="39.407701" lon="-0.960457">
        <ele>756.25</ele>
      </trkpt>
      <trkpt lat="39.407725" lon="-0.96031">
        <ele>754.75</ele>
      </trkpt>
      <trkpt lat="39.407756" lon="-0.960235">
        <ele>754.25</ele>
      </trkpt>
      <trkpt lat="39.407862" lon="-0.960159">
        <ele>755</ele>
      </trkpt>
      <trkpt lat="39.408024" lon="-0.960088">
        <ele>756.75</ele>
      </trkpt>
      <trkpt lat="39.408489" lon="-0.959974">
        <ele>762.5</ele>
      </trkpt>
      <trkpt lat="39.408643" lon="-0.959811">
        <ele>762.75</ele>
      </trkpt>
      <trkpt lat="39.408864" lon="-0.959522">
        <ele>763.25</ele>
      </trkpt>
      <trkpt lat="39.408997" lon="-0.959408">
        <ele>764.5</ele>
      </trkpt>
      <trkpt lat="39.409158" lon="-0.959256">
        <ele>766.25</ele>
      </trkpt>
      <trkpt lat="39.409351" lon="-0.958798">
        <ele>763.75</ele>
      </trkpt>
      <trkpt lat="39.409461" lon="-0.958706">
        <ele>764.5</ele>
      </trkpt>
      <trkpt lat="39.409623" lon="-0.95861">
        <ele>766.25</ele>
      </trkpt>
      <trkpt lat="39.410298" lon="-0.958319">
        <ele>774</ele>
      </trkpt>
      <trkpt lat="39.410877" lon="-0.958033">
        <ele>778</ele>
      </trkpt>
      <trkpt lat="39.411026" lon="-0.957872">
        <ele>778.75</ele>
      </trkpt>
      <trkpt lat="39.411371" lon="-0.95746">
        <ele>781</ele>
      </trkpt>
      <trkpt lat="39.412318" lon="-0.956418">
        <ele>787.25</ele>
      </trkpt>
      <trkpt lat="39.412592" lon="-0.956156">
        <ele>787.5</ele>
      </trkpt>
      <trkpt lat="39.412807" lon="-0.956006">
        <ele>788.5</ele>
      </trkpt>
      <trkpt lat="39.413039" lon="-0.955874">
        <ele>791</ele>
      </trkpt>
      <trkpt lat="39.413225" lon="-0.95579">
        <ele>793</ele>
      </trkpt>
      <trkpt lat="39.413306" lon="-0.955811">
        <ele>794.25</ele>
      </trkpt>
      <trkpt lat="39.41347" lon="-0.955894">
        <ele>795.25</ele>
      </trkpt>
      <trkpt lat="39.413704" lon="-0.956026">
        <ele>795.5</ele>
      </trkpt>
      <trkpt lat="39.413902" lon="-0.956153">
        <ele>795.5</ele>
      </trkpt>
      <trkpt lat="39.414031" lon="-0.956205">
        <ele>795.5</ele>
      </trkpt>
      <trkpt lat="39.414131" lon="-0.956202">
        <ele>795.75</ele>
      </trkpt>
      <trkpt lat="39.414182" lon="-0.956153">
        <ele>796.25</ele>
      </trkpt>
      <trkpt lat="39.414264" lon="-0.955934">
        <ele>797.75</ele>
      </trkpt>
      <trkpt lat="39.414349" lon="-0.955669">
        <ele>799.5</ele>
      </trkpt>
      <trkpt lat="39.414533" lon="-0.955347">
        <ele>801.75</ele>
      </trkpt>
      <trkpt lat="39.414796" lon="-0.955079">
        <ele>804</ele>
      </trkpt>
      <trkpt lat="39.415067" lon="-0.954872">
        <ele>806.25</ele>
      </trkpt>
      <trkpt lat="39.415349" lon="-0.954679">
        <ele>807.25</ele>
      </trkpt>
      <trkpt lat="39.415503" lon="-0.954426">
        <ele>809.5</ele>
      </trkpt>
      <trkpt lat="39.415585" lon="-0.954106">
        <ele>812.5</ele>
      </trkpt>
      <trkpt lat="39.415567" lon="-0.953559">
        <ele>819</ele>
      </trkpt>
      <trkpt lat="39.415525" lon="-0.952932">
        <ele>825.75</ele>
      </trkpt>
      <trkpt lat="39.415452" lon="-0.952428">
        <ele>830.5</ele>
      </trkpt>
      <trkpt lat="39.415432" lon="-0.952137">
        <ele>832</ele>
      </trkpt>
      <trkpt lat="39.415469" lon="-0.952005">
        <ele>832.5</ele>
      </trkpt>
      <trkpt lat="39.415587" lon="-0.951849">
        <ele>833</ele>
      </trkpt>
      <trkpt lat="39.415774" lon="-0.951717">
        <ele>832.75</ele>
      </trkpt>
      <trkpt lat="39.415905" lon="-0.951645">
        <ele>832.25</ele>
      </trkpt>
      <trkpt lat="39.415927" lon="-0.951608">
        <ele>832.25</ele>
      </trkpt>
      <trkpt lat="39.415977" lon="-0.951521">
        <ele>832.25</ele>
      </trkpt>
      <trkpt lat="39.416054" lon="-0.951357">
        <ele>832</ele>
      </trkpt>
      <trkpt lat="39.416257" lon="-0.950695">
        <ele>830.75</ele>
      </trkpt>
      <trkpt lat="39.416352" lon="-0.950335">
        <ele>829.5</ele>
      </trkpt>
      <trkpt lat="39.416446" lon="-0.950042">
        <ele>827.75</ele>
      </trkpt>
      <trkpt lat="39.416428" lon="-0.949829">
        <ele>826.5</ele>
      </trkpt>
      <trkpt lat="39.416221" lon="-0.949316">
        <ele>831</ele>
      </trkpt>
      <trkpt lat="39.416146" lon="-0.948956">
        <ele>831.75</ele>
      </trkpt>
      <trkpt lat="39.416065" lon="-0.948487">
        <ele>831.25</ele>
      </trkpt>
      <trkpt lat="39.415941" lon="-0.947521">
        <ele>828.5</ele>
      </trkpt>
      <trkpt lat="39.415937" lon="-0.947292">
        <ele>828.5</ele>
      </trkpt>
      <trkpt lat="39.415955" lon="-0.947116">
        <ele>828</ele>
      </trkpt>
      <trkpt lat="39.416028" lon="-0.946893">
        <ele>826</ele>
      </trkpt>
      <trkpt lat="39.416166" lon="-0.946703">
        <ele>822.5</ele>
      </trkpt>
      <trkpt lat="39.416306" lon="-0.946469">
        <ele>818.5</ele>
      </trkpt>
      <trkpt lat="39.416382" lon="-0.946189">
        <ele>816</ele>
      </trkpt>
      <trkpt lat="39.416403" lon="-0.946177">
        <ele>815.25</ele>
      </trkpt>
      <trkpt lat="39.4162" lon="-0.945529">
        <ele>817.75</ele>
      </trkpt>
      <trkpt lat="39.41579" lon="-0.944063">
        <ele>806.5</ele>
      </trkpt>
      <trkpt lat="39.41573" lon="-0.943892">
        <ele>805.5</ele>
      </trkpt>
      <trkpt lat="39.415672" lon="-0.943792">
        <ele>805.25</ele>
      </trkpt>
      <trkpt lat="39.415603" lon="-0.943706">
        <ele>805.5</ele>
      </trkpt>
      <trkpt lat="39.415252" lon="-0.943458">
        <ele>808.5</ele>
      </trkpt>
      <trkpt lat="39.415187" lon="-0.943362">
        <ele>808</ele>
      </trkpt>
      <trkpt lat="39.415146" lon="-0.943244">
        <ele>806.75</ele>
      </trkpt>
      <trkpt lat="39.4151" lon="-0.942969">
        <ele>803</ele>
      </trkpt>
      <trkpt lat="39.415079" lon="-0.942869">
        <ele>801.75</ele>
      </trkpt>
      <trkpt lat="39.415024" lon="-0.942739">
        <ele>800.5</ele>
      </trkpt>
      <trkpt lat="39.414936" lon="-0.942608">
        <ele>801.25</ele>
      </trkpt>
      <trkpt lat="39.414533" lon="-0.942236">
        <ele>812.75</ele>
      </trkpt>
      <trkpt lat="39.414465" lon="-0.942086">
        <ele>814.25</ele>
      </trkpt>
      <trkpt lat="39.414436" lon="-0.941951">
        <ele>814</ele>
      </trkpt>
      <trkpt lat="39.414444" lon="-0.94181">
        <ele>812.75</ele>
      </trkpt>
      <trkpt lat="39.414504" lon="-0.941728">
        <ele>810</ele>
      </trkpt>
      <trkpt lat="39.414715" lon="-0.941602">
        <ele>802.75</ele>
      </trkpt>
      <trkpt lat="39.414769" lon="-0.941543">
        <ele>801.25</ele>
      </trkpt>
      <trkpt lat="39.414815" lon="-0.941445">
        <ele>800.25</ele>
      </trkpt>
      <trkpt lat="39.414856" lon="-0.941315">
        <ele>799.25</ele>
      </trkpt>
      <trkpt lat="39.414879" lon="-0.941194">
        <ele>799</ele>
      </trkpt>
      <trkpt lat="39.414889" lon="-0.941049">
        <ele>799</ele>
      </trkpt>
      <trkpt lat="39.414876" lon="-0.9409">
        <ele>800.25</ele>
      </trkpt>
      <trkpt lat="39.414748" lon="-0.940207">
        <ele>805</ele>
      </trkpt>
      <trkpt lat="39.414713" lon="-0.939784">
        <ele>806</ele>
      </trkpt>
      <trkpt lat="39.414777" lon="-0.939035">
        <ele>801</ele>
      </trkpt>
      <trkpt lat="39.414769" lon="-0.938945">
        <ele>800.75</ele>
      </trkpt>
      <trkpt lat="39.414752" lon="-0.938892">
        <ele>801</ele>
      </trkpt>
      <trkpt lat="39.414509" lon="-0.938523">
        <ele>809.25</ele>
      </trkpt>
      <trkpt lat="39.414426" lon="-0.938324">
        <ele>811.5</ele>
      </trkpt>
      <trkpt lat="39.414377" lon="-0.938114">
        <ele>812.5</ele>
      </trkpt>
      <trkpt lat="39.414337" lon="-0.93791">
        <ele>813</ele>
      </trkpt>
      <trkpt lat="39.414309" lon="-0.93764">
        <ele>812.25</ele>
      </trkpt>
      <trkpt lat="39.414246" lon="-0.937425">
        <ele>812.75</ele>
      </trkpt>
      <trkpt lat="39.414174" lon="-0.937251">
        <ele>813.25</ele>
      </trkpt>
      <trkpt lat="39.413768" lon="-0.936388">
        <ele>816.75</ele>
      </trkpt>
      <trkpt lat="39.412823" lon="-0.935292">
        <ele>831</ele>
      </trkpt>
      <trkpt lat="39.412597" lon="-0.934674">
        <ele>835.25</ele>
      </trkpt>
      <trkpt lat="39.412583" lon="-0.934294">
        <ele>836.75</ele>
      </trkpt>
      <trkpt lat="39.412633" lon="-0.933997">
        <ele>837.5</ele>
      </trkpt>
      <trkpt lat="39.412732" lon="-0.93373">
        <ele>837.25</ele>
      </trkpt>
      <trkpt lat="39.413067" lon="-0.93341">
        <ele>831</ele>
      </trkpt>
      <trkpt lat="39.413228" lon="-0.933275">
        <ele>827</ele>
      </trkpt>
      <trkpt lat="39.413253" lon="-0.933007">
        <ele>825.5</ele>
      </trkpt>
      <trkpt lat="39.413183" lon="-0.93282">
        <ele>827.5</ele>
      </trkpt>
      <trkpt lat="39.412732" lon="-0.932144">
        <ele>843.75</ele>
      </trkpt>
      <trkpt lat="39.412805" lon="-0.931293">
        <ele>837</ele>
      </trkpt>
      <trkpt lat="39.412503" lon="-0.930066">
        <ele>830.5</ele>
      </trkpt>
      <trkpt lat="39.412468" lon="-0.929636">
        <ele>830.75</ele>
      </trkpt>
      <trkpt lat="39.412572" lon="-0.929152">
        <ele>826.5</ele>
      </trkpt>
      <trkpt lat="39.412859" lon="-0.928518">
        <ele>822.5</ele>
      </trkpt>
      <trkpt lat="39.412939" lon="-0.927577">
        <ele>824.25</ele>
      </trkpt>
      <trkpt lat="39.412978" lon="-0.92647">
        <ele>822</ele>
      </trkpt>
      <trkpt lat="39.412986" lon="-0.926219">
        <ele>822</ele>
      </trkpt>
      <trkpt lat="39.412944" lon="-0.925861">
        <ele>823.25</ele>
      </trkpt>
      <trkpt lat="39.412633" lon="-0.924729">
        <ele>825.25</ele>
      </trkpt>
      <trkpt lat="39.41229" lon="-0.923963">
        <ele>830.25</ele>
      </trkpt>
      <trkpt lat="39.411841" lon="-0.922957">
        <ele>837</ele>
      </trkpt>
      <trkpt lat="39.411147" lon="-0.921301">
        <ele>846.25</ele>
      </trkpt>
      <trkpt lat="39.410607" lon="-0.920543">
        <ele>856</ele>
      </trkpt>
      <trkpt lat="39.409859" lon="-0.918794">
        <ele>861</ele>
      </trkpt>
      <trkpt lat="39.409543" lon="-0.918479">
        <ele>860.5</ele>
      </trkpt>
      <trkpt lat="39.409201" lon="-0.918678">
        <ele>864</ele>
      </trkpt>
      <trkpt lat="39.409147" lon="-0.919295">
        <ele>869</ele>
      </trkpt>
      <trkpt lat="39.409688" lon="-0.921021">
        <ele>876.5</ele>
      </trkpt>
      <trkpt lat="39.410147" lon="-0.921779">
        <ele>880.5</ele>
      </trkpt>
      <trkpt lat="39.410408" lon="-0.922618">
        <ele>883.25</ele>
      </trkpt>
      <trkpt lat="39.410471" lon="-0.92474">
        <ele>903.25</ele>
      </trkpt>
      <trkpt lat="39.410129" lon="-0.925848">
        <ele>920</ele>
      </trkpt>
      <trkpt lat="39.409444" lon="-0.926291">
        <ele>926.25</ele>
      </trkpt>
      <trkpt lat="39.409003" lon="-0.926466">
        <ele>925.5</ele>
      </trkpt>
      <trkpt lat="39.408914" lon="-0.926516">
        <ele>924.5</ele>
      </trkpt>
      <trkpt lat="39.408733" lon="-0.926618">
        <ele>921.75</ele>
      </trkpt>
      <trkpt lat="39.408814" lon="-0.927177">
        <ele>921</ele>
      </trkpt>
      <trkpt lat="39.408778" lon="-0.927387">
        <ele>918.75</ele>
      </trkpt>
      <trkpt lat="39.408599" lon="-0.927257">
        <ele>914.75</ele>
      </trkpt>
      <trkpt lat="39.408508" lon="-0.927189">
        <ele>913</ele>
      </trkpt>
      <trkpt lat="39.407787" lon="-0.924997">
        <ele>897.75</ele>
      </trkpt>
      <trkpt lat="39.407544" lon="-0.923061">
        <ele>878.25</ele>
      </trkpt>
      <trkpt lat="39.407165" lon="-0.921476">
        <ele>858</ele>
      </trkpt>
      <trkpt lat="39.406796" lon="-0.921184">
        <ele>851.75</ele>
      </trkpt>
      <trkpt lat="39.406319" lon="-0.919307">
        <ele>836.25</ele>
      </trkpt>
      <trkpt lat="39.406291" lon="-0.918922">
        <ele>835.5</ele>
      </trkpt>
      <trkpt lat="39.406364" lon="-0.918409">
        <ele>834.75</ele>
      </trkpt>
      <trkpt lat="39.406544" lon="-0.918188">
        <ele>833.25</ele>
      </trkpt>
      <trkpt lat="39.406985" lon="-0.918736">
        <ele>835</ele>
      </trkpt>
      <trkpt lat="39.407192" lon="-0.918887">
        <ele>834.5</ele>
      </trkpt>
      <trkpt lat="39.407291" lon="-0.918631">
        <ele>832.25</ele>
      </trkpt>
      <trkpt lat="39.40712" lon="-0.918281">
        <ele>831.25</ele>
      </trkpt>
      <trkpt lat="39.406725" lon="-0.916126">
        <ele>814.75</ele>
      </trkpt>
      <trkpt lat="39.406652" lon="-0.915728">
        <ele>812.5</ele>
      </trkpt>
      <trkpt lat="39.406328" lon="-0.915168">
        <ele>812.5</ele>
      </trkpt>
      <trkpt lat="39.40603" lon="-0.914469">
        <ele>817.75</ele>
      </trkpt>
      <trkpt lat="39.405805" lon="-0.914352">
        <ele>815.75</ele>
      </trkpt>
      <trkpt lat="39.405201" lon="-0.913174">
        <ele>826.25</ele>
      </trkpt>
      <trkpt lat="39.404544" lon="-0.912591">
        <ele>823.25</ele>
      </trkpt>
      <trkpt lat="39.404409" lon="-0.911239">
        <ele>828.25</ele>
      </trkpt>
      <trkpt lat="39.403805" lon="-0.910842">
        <ele>816.75</ele>
      </trkpt>
      <trkpt lat="39.403463" lon="-0.909455">
        <ele>816.75</ele>
      </trkpt>
      <trkpt lat="39.403949" lon="-0.908079">
        <ele>816.75</ele>
      </trkpt>
      <trkpt lat="39.40376" lon="-0.906284">
        <ele>801</ele>
      </trkpt>
      <trkpt lat="39.403832" lon="-0.904803">
        <ele>793.25</ele>
      </trkpt>
      <trkpt lat="39.403742" lon="-0.904267">
        <ele>790.5</ele>
      </trkpt>
      <trkpt lat="39.403383" lon="-0.90378">
        <ele>789.75</ele>
      </trkpt>
      <trkpt lat="39.402652" lon="-0.902786">
        <ele>788.5</ele>
      </trkpt>
      <trkpt lat="39.402156" lon="-0.899848">
        <ele>784.75</ele>
      </trkpt>
      <trkpt lat="39.402273" lon="-0.89916">
        <ele>784</ele>
      </trkpt>
      <trkpt lat="39.402093" lon="-0.897341">
        <ele>780.25</ele>
      </trkpt>
      <trkpt lat="39.401751" lon="-0.896175">
        <ele>778.25</ele>
      </trkpt>
      <trkpt lat="39.401526" lon="-0.895091">
        <ele>770.5</ele>
      </trkpt>
      <trkpt lat="39.400868" lon="-0.893283">
        <ele>771.25</ele>
      </trkpt>
      <trkpt lat="39.399823" lon="-0.890252">
        <ele>763.5</ele>
      </trkpt>
      <trkpt lat="39.399485" lon="-0.889059">
        <ele>760</ele>
      </trkpt>
      <trkpt lat="39.399544" lon="-0.889086">
        <ele>759.75</ele>
      </trkpt>
      <trkpt lat="39.399958" lon="-0.889599">
        <ele>759.75</ele>
      </trkpt>
      <trkpt lat="39.400156" lon="-0.889412">
        <ele>759.25</ele>
      </trkpt>
      <trkpt lat="39.400336" lon="-0.888526">
        <ele>757.25</ele>
      </trkpt>
      <trkpt lat="39.399363" lon="-0.885973">
        <ele>755.75</ele>
      </trkpt>
      <trkpt lat="39.398624" lon="-0.885273">
        <ele>753</ele>
      </trkpt>
      <trkpt lat="39.397895" lon="-0.883011">
        <ele>764.5</ele>
      </trkpt>
      <trkpt lat="39.397507" lon="-0.882802">
        <ele>761.75</ele>
      </trkpt>
      <trkpt lat="39.397084" lon="-0.882312">
        <ele>762.75</ele>
      </trkpt>
      <trkpt lat="39.396561" lon="-0.880703">
        <ele>756.5</ele>
      </trkpt>
      <trkpt lat="39.396138" lon="-0.879164">
        <ele>759.25</ele>
      </trkpt>
      <trkpt lat="39.396237" lon="-0.878907">
        <ele>757.5</ele>
      </trkpt>
      <trkpt lat="39.395898" lon="-0.87895">
        <ele>760.25</ele>
      </trkpt>
      <trkpt lat="39.395641" lon="-0.878497">
        <ele>760.75</ele>
      </trkpt>
      <trkpt lat="39.39505" lon="-0.877088">
        <ele>747</ele>
      </trkpt>
      <trkpt lat="39.394848" lon="-0.876748">
        <ele>743.75</ele>
      </trkpt>
      <trkpt lat="39.394541" lon="-0.875927">
        <ele>735.25</ele>
      </trkpt>
      <trkpt lat="39.393901" lon="-0.874519">
        <ele>723.25</ele>
      </trkpt>
      <trkpt lat="39.393414" lon="-0.873783">
        <ele>717.5</ele>
      </trkpt>
      <trkpt lat="39.392441" lon="-0.873655">
        <ele>700.25</ele>
      </trkpt>
      <trkpt lat="39.391954" lon="-0.873308">
        <ele>683.75</ele>
      </trkpt>
      <trkpt lat="39.391844" lon="-0.87277">
        <ele>686</ele>
      </trkpt>
      <trkpt lat="39.391604" lon="-0.872445">
        <ele>682</ele>
      </trkpt>
      <trkpt lat="39.391248" lon="-0.872346">
        <ele>677</ele>
      </trkpt>
      <trkpt lat="39.390903" lon="-0.871999">
        <ele>672</ele>
      </trkpt>
      <trkpt lat="39.390854" lon="-0.871694">
        <ele>671.5</ele>
      </trkpt>
      <trkpt lat="39.390696" lon="-0.871482">
        <ele>677</ele>
      </trkpt>
      <trkpt lat="39.390553" lon="-0.871666">
        <ele>683.75</ele>
      </trkpt>
      <trkpt lat="39.390619" lon="-0.872204">
        <ele>679.25</ele>
      </trkpt>
      <trkpt lat="39.390783" lon="-0.872763">
        <ele>672.75</ele>
      </trkpt>
      <trkpt lat="39.390717" lon="-0.873181">
        <ele>677</ele>
      </trkpt>
      <trkpt lat="39.390521" lon="-0.873351">
        <ele>682.25</ele>
      </trkpt>
      <trkpt lat="39.390094" lon="-0.873379">
        <ele>692</ele>
      </trkpt>
      <trkpt lat="39.38976" lon="-0.873514">
        <ele>699.25</ele>
      </trkpt>
      <trkpt lat="39.38889" lon="-0.874271">
        <ele>705.5</ele>
      </trkpt>
      <trkpt lat="39.387283" lon="-0.875685">
        <ele>731</ele>
      </trkpt>
      <trkpt lat="39.387233" lon="-0.875729">
        <ele>730.25</ele>
      </trkpt>
      <trkpt lat="39.386855" lon="-0.875573">
        <ele>730.75</ele>
      </trkpt>
      <trkpt lat="39.386275" lon="-0.875276">
        <ele>726.75</ele>
      </trkpt>
      <trkpt lat="39.386177" lon="-0.874943">
        <ele>727.75</ele>
      </trkpt>
      <trkpt lat="39.385548" lon="-0.87408">
        <ele>725.75</ele>
      </trkpt>
      <trkpt lat="39.385462" lon="-0.874015">
        <ele>723.75</ele>
      </trkpt>
      <trkpt lat="39.385373" lon="-0.873945">
        <ele>722</ele>
      </trkpt>
      <trkpt lat="39.385378" lon="-0.873528">
        <ele>722.5</ele>
      </trkpt>
      <trkpt lat="39.385515" lon="-0.873379">
        <ele>725.5</ele>
      </trkpt>
      <trkpt lat="39.38557" lon="-0.872976">
        <ele>725.5</ele>
      </trkpt>
      <trkpt lat="39.385515" lon="-0.872424">
        <ele>722.5</ele>
      </trkpt>
      <trkpt lat="39.385559" lon="-0.871772">
        <ele>723</ele>
      </trkpt>
      <trkpt lat="39.385405" lon="-0.870873">
        <ele>721.75</ele>
      </trkpt>
      <trkpt lat="39.385449" lon="-0.870442">
        <ele>722.25</ele>
      </trkpt>
      <trkpt lat="39.385389" lon="-0.870052">
        <ele>721.75</ele>
      </trkpt>
      <trkpt lat="39.385389" lon="-0.869854">
        <ele>721.25</ele>
      </trkpt>
      <trkpt lat="39.385296" lon="-0.869564">
        <ele>720</ele>
      </trkpt>
      <trkpt lat="39.385137" lon="-0.868884">
        <ele>717</ele>
      </trkpt>
      <trkpt lat="39.384744" lon="-0.868587">
        <ele>713.5</ele>
      </trkpt>
      <trkpt lat="39.38459" lon="-0.868403">
        <ele>712</ele>
      </trkpt>
      <trkpt lat="39.384246" lon="-0.866973">
        <ele>707.25</ele>
      </trkpt>
      <trkpt lat="39.384043" lon="-0.866046">
        <ele>701.5</ele>
      </trkpt>
      <trkpt lat="39.38354" lon="-0.865055">
        <ele>697.25</ele>
      </trkpt>
      <trkpt lat="39.382571" lon="-0.864538">
        <ele>697.25</ele>
      </trkpt>
      <trkpt lat="39.382068" lon="-0.864637">
        <ele>696.5</ele>
      </trkpt>
      <trkpt lat="39.381576" lon="-0.86468">
        <ele>695</ele>
      </trkpt>
      <trkpt lat="39.381204" lon="-0.864446">
        <ele>693</ele>
      </trkpt>
      <trkpt lat="39.380476" lon="-0.863625">
        <ele>689.25</ele>
      </trkpt>
      <trkpt lat="39.379803" lon="-0.863271">
        <ele>688</ele>
      </trkpt>
      <trkpt lat="39.379239" lon="-0.862606">
        <ele>684.25</ele>
      </trkpt>
      <trkpt lat="39.377522" lon="-0.862202">
        <ele>669.5</ele>
      </trkpt>
      <trkpt lat="39.377056" lon="-0.861622">
        <ele>661.75</ele>
      </trkpt>
      <trkpt lat="39.376805" lon="-0.86119">
        <ele>655.25</ele>
      </trkpt>
      <trkpt lat="39.376635" lon="-0.86136">
        <ele>651.75</ele>
      </trkpt>
      <trkpt lat="39.376602" lon="-0.861686">
        <ele>652.25</ele>
      </trkpt>
      <trkpt lat="39.37652" lon="-0.861905">
        <ele>651.25</ele>
      </trkpt>
      <trkpt lat="39.376329" lon="-0.861905">
        <ele>649.5</ele>
      </trkpt>
      <trkpt lat="39.375995" lon="-0.861098">
        <ele>642.25</ele>
      </trkpt>
      <trkpt lat="39.375847" lon="-0.860008">
        <ele>628.25</ele>
      </trkpt>
      <trkpt lat="39.375661" lon="-0.859428">
        <ele>619.75</ele>
      </trkpt>
      <trkpt lat="39.375245" lon="-0.858578">
        <ele>603.75</ele>
      </trkpt>
      <trkpt lat="39.374682" lon="-0.858316">
        <ele>598.5</ele>
      </trkpt>
      <trkpt lat="39.374162" lon="-0.857729">
        <ele>583.5</ele>
      </trkpt>
      <trkpt lat="39.373888" lon="-0.857977">
        <ele>583.25</ele>
      </trkpt>
      <trkpt lat="39.373834" lon="-0.858394">
        <ele>591.75</ele>
      </trkpt>
      <trkpt lat="39.373642" lon="-0.858543">
        <ele>590</ele>
      </trkpt>
      <trkpt lat="39.373407" lon="-0.858875">
        <ele>590.25</ele>
      </trkpt>
      <trkpt lat="39.373024" lon="-0.85952">
        <ele>591</ele>
      </trkpt>
      <trkpt lat="39.373002" lon="-0.859753">
        <ele>593</ele>
      </trkpt>
      <trkpt lat="39.372635" lon="-0.860098">
        <ele>590</ele>
      </trkpt>
      <trkpt lat="39.372618" lon="-0.859998">
        <ele>589.75</ele>
      </trkpt>
      <trkpt lat="39.372443" lon="-0.859694">
        <ele>583.75</ele>
      </trkpt>
      <trkpt lat="39.372182" lon="-0.859326">
        <ele>579</ele>
      </trkpt>
      <trkpt lat="39.371881" lon="-0.859024">
        <ele>574</ele>
      </trkpt>
      <trkpt lat="39.371529" lon="-0.858789">
        <ele>568</ele>
      </trkpt>
      <trkpt lat="39.370745" lon="-0.858621">
        <ele>562.75</ele>
      </trkpt>
      <trkpt lat="39.370548" lon="-0.858517">
        <ele>559.5</ele>
      </trkpt>
      <trkpt lat="39.370087" lon="-0.857781">
        <ele>554</ele>
      </trkpt>
      <trkpt lat="39.369983" lon="-0.857684">
        <ele>554.5</ele>
      </trkpt>
      <trkpt lat="39.369286" lon="-0.85745">
        <ele>553</ele>
      </trkpt>
      <trkpt lat="39.369094" lon="-0.857348">
        <ele>552</ele>
      </trkpt>
      <trkpt lat="39.368841" lon="-0.857032">
        <ele>549</ele>
      </trkpt>
      <trkpt lat="39.368763" lon="-0.856813">
        <ele>548.25</ele>
      </trkpt>
      <trkpt lat="39.36874" lon="-0.856548">
        <ele>547.5</ele>
      </trkpt>
      <trkpt lat="39.368778" lon="-0.856371">
        <ele>546.75</ele>
      </trkpt>
      <trkpt lat="39.368894" lon="-0.856224">
        <ele>546.25</ele>
      </trkpt>
      <trkpt lat="39.368791" lon="-0.85609">
        <ele>545</ele>
      </trkpt>
      <trkpt lat="39.368813" lon="-0.855541">
        <ele>541.75</ele>
      </trkpt>
      <trkpt lat="39.368831" lon="-0.855111">
        <ele>539.25</ele>
      </trkpt>
      <trkpt lat="39.368801" lon="-0.854659">
        <ele>535</ele>
      </trkpt>
      <trkpt lat="39.368917" lon="-0.854063">
        <ele>529.5</ele>
      </trkpt>
      <trkpt lat="39.368906" lon="-0.853639">
        <ele>526.75</ele>
      </trkpt>
      <trkpt lat="39.368942" lon="-0.853167">
        <ele>523.75</ele>
      </trkpt>
      <trkpt lat="39.368849" lon="-0.852882">
        <ele>521.5</ele>
      </trkpt>
      <trkpt lat="39.368777" lon="-0.852567">
        <ele>519.25</ele>
      </trkpt>
      <trkpt lat="39.368651" lon="-0.852274">
        <ele>517.75</ele>
      </trkpt>
      <trkpt lat="39.36858" lon="-0.851831">
        <ele>516.5</ele>
      </trkpt>
      <trkpt lat="39.368391" lon="-0.851516">
        <ele>518</ele>
      </trkpt>
      <trkpt lat="39.368161" lon="-0.85094">
        <ele>519.25</ele>
      </trkpt>
      <trkpt lat="39.368095" lon="-0.850576">
        <ele>520</ele>
      </trkpt>
      <trkpt lat="39.367791" lon="-0.849685">
        <ele>518.75</ele>
      </trkpt>
      <trkpt lat="39.367736" lon="-0.849382">
        <ele>515.5</ele>
      </trkpt>
      <trkpt lat="39.367643" lon="-0.849211">
        <ele>514.5</ele>
      </trkpt>
      <trkpt lat="39.367352" lon="-0.848858">
        <ele>513.25</ele>
      </trkpt>
      <trkpt lat="39.367193" lon="-0.848474">
        <ele>512</ele>
      </trkpt>
      <trkpt lat="39.367152" lon="-0.848057">
        <ele>512</ele>
      </trkpt>
      <trkpt lat="39.366966" lon="-0.847386">
        <ele>514.25</ele>
      </trkpt>
      <trkpt lat="39.366707" lon="-0.84711">
        <ele>515.75</ele>
      </trkpt>
      <trkpt lat="39.366648" lon="-0.846905">
        <ele>515.5</ele>
      </trkpt>
      <trkpt lat="39.366824" lon="-0.846391">
        <ele>516.5</ele>
      </trkpt>
      <trkpt lat="39.366846" lon="-0.845831">
        <ele>515.75</ele>
      </trkpt>
      <trkpt lat="39.366593" lon="-0.845473">
        <ele>510</ele>
      </trkpt>
      <trkpt lat="39.365904" lon="-0.84521">
        <ele>507</ele>
      </trkpt>
      <trkpt lat="39.365748" lon="-0.845223">
        <ele>506.25</ele>
      </trkpt>
      <trkpt lat="39.365425" lon="-0.845449">
        <ele>504.75</ele>
      </trkpt>
      <trkpt lat="39.364871" lon="-0.845723">
        <ele>505.5</ele>
      </trkpt>
      <trkpt lat="39.364649" lon="-0.845644">
        <ele>504.5</ele>
      </trkpt>
      <trkpt lat="39.36314" lon="-0.844669">
        <ele>496.25</ele>
      </trkpt>
      <trkpt lat="39.363023" lon="-0.844495">
        <ele>494.75</ele>
      </trkpt>
      <trkpt lat="39.362988" lon="-0.844232">
        <ele>492.75</ele>
      </trkpt>
      <trkpt lat="39.363094" lon="-0.844007">
        <ele>489.75</ele>
      </trkpt>
      <trkpt lat="39.36313" lon="-0.843775">
        <ele>486.5</ele>
      </trkpt>
      <trkpt lat="39.363258" lon="-0.843395">
        <ele>481.5</ele>
      </trkpt>
      <trkpt lat="39.363264" lon="-0.842891">
        <ele>476.75</ele>
      </trkpt>
      <trkpt lat="39.363292" lon="-0.842525">
        <ele>473.75</ele>
      </trkpt>
      <trkpt lat="39.363193" lon="-0.842115">
        <ele>468.5</ele>
      </trkpt>
      <trkpt lat="39.363075" lon="-0.8419">
        <ele>465.75</ele>
      </trkpt>
      <trkpt lat="39.362793" lon="-0.841702">
        <ele>462.5</ele>
      </trkpt>
      <trkpt lat="39.36267" lon="-0.841363">
        <ele>459.75</ele>
      </trkpt>
      <trkpt lat="39.362589" lon="-0.8411">
        <ele>458.25</ele>
      </trkpt>
      <trkpt lat="39.362205" lon="-0.840446">
        <ele>455</ele>
      </trkpt>
      <trkpt lat="39.361797" lon="-0.83933">
        <ele>454</ele>
      </trkpt>
      <trkpt lat="39.361715" lon="-0.839067">
        <ele>454.25</ele>
      </trkpt>
      <trkpt lat="39.361638" lon="-0.839043">
        <ele>455.25</ele>
      </trkpt>
      <trkpt lat="39.361255" lon="-0.839054">
        <ele>457.75</ele>
      </trkpt>
      <trkpt lat="39.361151" lon="-0.838907">
        <ele>456.5</ele>
      </trkpt>
      <trkpt lat="39.361118" lon="-0.838792">
        <ele>455</ele>
      </trkpt>
      <trkpt lat="39.361097" lon="-0.838717">
        <ele>454.25</ele>
      </trkpt>
      <trkpt lat="39.361128" lon="-0.838709">
        <ele>454.25</ele>
      </trkpt>
      <trkpt lat="39.361153" lon="-0.838679">
        <ele>453.75</ele>
      </trkpt>
      <trkpt lat="39.361171" lon="-0.838642">
        <ele>453.25</ele>
      </trkpt>
      <trkpt lat="39.361182" lon="-0.838583">
        <ele>452.5</ele>
      </trkpt>
      <trkpt lat="39.361178" lon="-0.838508">
        <ele>451.75</ele>
      </trkpt>
      <trkpt lat="39.361099" lon="-0.838178">
        <ele>449</ele>
      </trkpt>
      <trkpt lat="39.361072" lon="-0.838111">
        <ele>448.75</ele>
      </trkpt>
      <trkpt lat="39.361032" lon="-0.838054">
        <ele>448.25</ele>
      </trkpt>
      <trkpt lat="39.360902" lon="-0.837947">
        <ele>447.75</ele>
      </trkpt>
      <trkpt lat="39.36079" lon="-0.837867">
        <ele>447.75</ele>
      </trkpt>
      <trkpt lat="39.360752" lon="-0.837821">
        <ele>448.25</ele>
      </trkpt>
      <trkpt lat="39.360719" lon="-0.837767">
        <ele>448.5</ele>
      </trkpt>
      <trkpt lat="39.360694" lon="-0.837703">
        <ele>448.5</ele>
      </trkpt>
      <trkpt lat="39.360672" lon="-0.837641">
        <ele>448.25</ele>
      </trkpt>
      <trkpt lat="39.360655" lon="-0.837558">
        <ele>448</ele>
      </trkpt>
      <trkpt lat="39.360647" lon="-0.837365">
        <ele>446.5</ele>
      </trkpt>
      <trkpt lat="39.360657" lon="-0.837102">
        <ele>443.75</ele>
      </trkpt>
      <trkpt lat="39.360678" lon="-0.836992">
        <ele>442.75</ele>
      </trkpt>
      <trkpt lat="39.360705" lon="-0.83692">
        <ele>442</ele>
      </trkpt>
      <trkpt lat="39.3608" lon="-0.836737">
        <ele>440.25</ele>
      </trkpt>
      <trkpt lat="39.360827" lon="-0.836654">
        <ele>439.75</ele>
      </trkpt>
      <trkpt lat="39.360829" lon="-0.836528">
        <ele>439</ele>
      </trkpt>
      <trkpt lat="39.360815" lon="-0.836458">
        <ele>438.5</ele>
      </trkpt>
      <trkpt lat="39.360786" lon="-0.836383">
        <ele>437.75</ele>
      </trkpt>
      <trkpt lat="39.36051" lon="-0.835901">
        <ele>430.5</ele>
      </trkpt>
      <trkpt lat="39.360456" lon="-0.835769">
        <ele>428.25</ele>
      </trkpt>
      <trkpt lat="39.360437" lon="-0.83563">
        <ele>426.5</ele>
      </trkpt>
      <trkpt lat="39.360454" lon="-0.835225">
        <ele>422.5</ele>
      </trkpt>
      <trkpt lat="39.36047" lon="-0.835158">
        <ele>422</ele>
      </trkpt>
      <trkpt lat="39.360491" lon="-0.835112">
        <ele>421.75</ele>
      </trkpt>
      <trkpt lat="39.36052" lon="-0.835077">
        <ele>421.5</ele>
      </trkpt>
      <trkpt lat="39.360607" lon="-0.835032">
        <ele>421.75</ele>
      </trkpt>
      <trkpt lat="39.361169" lon="-0.834932">
        <ele>419.25</ele>
      </trkpt>
      <trkpt lat="39.361337" lon="-0.834876">
        <ele>417.5</ele>
      </trkpt>
      <trkpt lat="39.361426" lon="-0.834825">
        <ele>416.5</ele>
      </trkpt>
      <trkpt lat="39.361524" lon="-0.834728">
        <ele>415.25</ele>
      </trkpt>
      <trkpt lat="39.361553" lon="-0.834667">
        <ele>414.75</ele>
      </trkpt>
      <trkpt lat="39.361628" lon="-0.83449">
        <ele>413.5</ele>
      </trkpt>
      <trkpt lat="39.36182" lon="-0.833881">
        <ele>414.5</ele>
      </trkpt>
      <trkpt lat="39.361862" lon="-0.833803">
        <ele>415</ele>
      </trkpt>
      <trkpt lat="39.361903" lon="-0.833749">
        <ele>415.75</ele>
      </trkpt>
      <trkpt lat="39.361953" lon="-0.833698">
        <ele>416.5</ele>
      </trkpt>
      <trkpt lat="39.362071" lon="-0.833642">
        <ele>418</ele>
      </trkpt>
      <trkpt lat="39.362671" lon="-0.833468">
        <ele>425.75</ele>
      </trkpt>
      <trkpt lat="39.362754" lon="-0.83343">
        <ele>427</ele>
      </trkpt>
      <trkpt lat="39.36287" lon="-0.833344">
        <ele>428.75</ele>
      </trkpt>
      <trkpt lat="39.362949" lon="-0.833221">
        <ele>430.25</ele>
      </trkpt>
      <trkpt lat="39.362988" lon="-0.833138">
        <ele>431</ele>
      </trkpt>
      <trkpt lat="39.363019" lon="-0.833092">
        <ele>431.75</ele>
      </trkpt>
      <trkpt lat="39.363058" lon="-0.83306">
        <ele>432.25</ele>
      </trkpt>
      <trkpt lat="39.36311" lon="-0.833031">
        <ele>433</ele>
      </trkpt>
      <trkpt lat="39.363461" lon="-0.832886">
        <ele>438.25</ele>
      </trkpt>
      <trkpt lat="39.363569" lon="-0.832803">
        <ele>440</ele>
      </trkpt>
      <trkpt lat="39.363672" lon="-0.832647">
        <ele>442</ele>
      </trkpt>
      <trkpt lat="39.363705" lon="-0.83258">
        <ele>442.75</ele>
      </trkpt>
      <trkpt lat="39.363749" lon="-0.832427">
        <ele>444</ele>
      </trkpt>
      <trkpt lat="39.363772" lon="-0.83232">
        <ele>444.5</ele>
      </trkpt>
      <trkpt lat="39.363778" lon="-0.832205">
        <ele>444.75</ele>
      </trkpt>
      <trkpt lat="39.363809" lon="-0.831939">
        <ele>445.5</ele>
      </trkpt>
      <trkpt lat="39.363851" lon="-0.831794">
        <ele>446.25</ele>
      </trkpt>
      <trkpt lat="39.364155" lon="-0.831183">
        <ele>448.5</ele>
      </trkpt>
      <trkpt lat="39.364435" lon="-0.830684">
        <ele>452.5</ele>
      </trkpt>
      <trkpt lat="39.364481" lon="-0.830649">
        <ele>453.5</ele>
      </trkpt>
      <trkpt lat="39.364545" lon="-0.830622">
        <ele>454.5</ele>
      </trkpt>
      <trkpt lat="39.364603" lon="-0.830611">
        <ele>455.5</ele>
      </trkpt>
      <trkpt lat="39.364682" lon="-0.830609">
        <ele>456.75</ele>
      </trkpt>
      <trkpt lat="39.364738" lon="-0.830619">
        <ele>457.75</ele>
      </trkpt>
      <trkpt lat="39.364776" lon="-0.830652">
        <ele>458.25</ele>
      </trkpt>
      <trkpt lat="39.365145" lon="-0.831057">
        <ele>464.25</ele>
      </trkpt>
      <trkpt lat="39.365269" lon="-0.831161">
        <ele>466.25</ele>
      </trkpt>
      <trkpt lat="39.365381" lon="-0.831228">
        <ele>467.75</ele>
      </trkpt>
      <trkpt lat="39.365572" lon="-0.831325">
        <ele>470.75</ele>
      </trkpt>
      <trkpt lat="39.36563" lon="-0.831373">
        <ele>471.25</ele>
      </trkpt>
      <trkpt lat="39.365671" lon="-0.831445">
        <ele>471.75</ele>
      </trkpt>
      <trkpt lat="39.365912" lon="-0.832001">
        <ele>472.75</ele>
      </trkpt>
      <trkpt lat="39.36596" lon="-0.83206">
        <ele>473</ele>
      </trkpt>
      <trkpt lat="39.36602" lon="-0.832097">
        <ele>473.25</ele>
      </trkpt>
      <trkpt lat="39.36608" lon="-0.832113">
        <ele>473.75</ele>
      </trkpt>
      <trkpt lat="39.36614" lon="-0.832105">
        <ele>474.25</ele>
      </trkpt>
      <trkpt lat="39.3662" lon="-0.832081">
        <ele>474.75</ele>
      </trkpt>
      <trkpt lat="39.366256" lon="-0.832044">
        <ele>475.25</ele>
      </trkpt>
      <trkpt lat="39.366335" lon="-0.831955">
        <ele>476.25</ele>
      </trkpt>
      <trkpt lat="39.366791" lon="-0.831301">
        <ele>483</ele>
      </trkpt>
      <trkpt lat="39.366967" lon="-0.831089">
        <ele>485.25</ele>
      </trkpt>
      <trkpt lat="39.367133" lon="-0.830871">
        <ele>487.5</ele>
      </trkpt>
      <trkpt lat="39.3672" lon="-0.8307">
        <ele>487.75</ele>
      </trkpt>
      <trkpt lat="39.367237" lon="-0.830558">
        <ele>487.5</ele>
      </trkpt>
      <trkpt lat="39.367264" lon="-0.830483">
        <ele>487.5</ele>
      </trkpt>
      <trkpt lat="39.367314" lon="-0.830397">
        <ele>487.5</ele>
      </trkpt>
      <trkpt lat="39.367625" lon="-0.82993">
        <ele>488.25</ele>
      </trkpt>
      <trkpt lat="39.367681" lon="-0.829815">
        <ele>488.25</ele>
      </trkpt>
      <trkpt lat="39.367728" lon="-0.829681">
        <ele>488</ele>
      </trkpt>
      <trkpt lat="39.367795" lon="-0.829404">
        <ele>487</ele>
      </trkpt>
      <trkpt lat="39.367851" lon="-0.829249">
        <ele>486.5</ele>
      </trkpt>
      <trkpt lat="39.367909" lon="-0.829125">
        <ele>486.5</ele>
      </trkpt>
      <trkpt lat="39.367958" lon="-0.829039">
        <ele>487</ele>
      </trkpt>
      <trkpt lat="39.368052" lon="-0.828838">
        <ele>487.75</ele>
      </trkpt>
      <trkpt lat="39.368404" lon="-0.828165">
        <ele>492.75</ele>
      </trkpt>
      <trkpt lat="39.368522" lon="-0.827983">
        <ele>494.5</ele>
      </trkpt>
      <trkpt lat="39.368562" lon="-0.827892">
        <ele>495.25</ele>
      </trkpt>
      <trkpt lat="39.368581" lon="-0.827816">
        <ele>495.5</ele>
      </trkpt>
      <trkpt lat="39.368583" lon="-0.827677">
        <ele>495.5</ele>
      </trkpt>
      <trkpt lat="39.36857" lon="-0.827572">
        <ele>495.25</ele>
      </trkpt>
      <trkpt lat="39.368411" lon="-0.826915">
        <ele>493.5</ele>
      </trkpt>
      <trkpt lat="39.368392" lon="-0.826719">
        <ele>493.5</ele>
      </trkpt>
      <trkpt lat="39.368394" lon="-0.82662">
        <ele>493.25</ele>
      </trkpt>
      <trkpt lat="39.368408" lon="-0.826529">
        <ele>492.5</ele>
      </trkpt>
      <trkpt lat="39.368464" lon="-0.826352">
        <ele>491.75</ele>
      </trkpt>
      <trkpt lat="39.368527" lon="-0.826215">
        <ele>491.5</ele>
      </trkpt>
      <trkpt lat="39.368612" lon="-0.826068">
        <ele>491.75</ele>
      </trkpt>
      <trkpt lat="39.368699" lon="-0.825883">
        <ele>491.75</ele>
      </trkpt>
      <trkpt lat="39.368749" lon="-0.825703">
        <ele>492</ele>
      </trkpt>
      <trkpt lat="39.368821" lon="-0.825309">
        <ele>492.25</ele>
      </trkpt>
      <trkpt lat="39.36886" lon="-0.825027">
        <ele>492</ele>
      </trkpt>
      <trkpt lat="39.368869" lon="-0.824871">
        <ele>492.25</ele>
      </trkpt>
      <trkpt lat="39.368848" lon="-0.824595">
        <ele>491.75</ele>
      </trkpt>
      <trkpt lat="39.368865" lon="-0.82444">
        <ele>492.25</ele>
      </trkpt>
      <trkpt lat="39.36906" lon="-0.823699">
        <ele>493.5</ele>
      </trkpt>
      <trkpt lat="39.369091" lon="-0.823616">
        <ele>493.5</ele>
      </trkpt>
      <trkpt lat="39.369132" lon="-0.823536">
        <ele>493.75</ele>
      </trkpt>
      <trkpt lat="39.369298" lon="-0.823305">
        <ele>495.25</ele>
      </trkpt>
      <trkpt lat="39.369389" lon="-0.823085">
        <ele>493.75</ele>
      </trkpt>
      <trkpt lat="39.369422" lon="-0.822972">
        <ele>492.75</ele>
      </trkpt>
      <trkpt lat="39.369622" lon="-0.822052">
        <ele>484.25</ele>
      </trkpt>
      <trkpt lat="39.369669" lon="-0.82191">
        <ele>483.5</ele>
      </trkpt>
      <trkpt lat="39.369758" lon="-0.821792">
        <ele>484</ele>
      </trkpt>
      <trkpt lat="39.370065" lon="-0.821446">
        <ele>487.5</ele>
      </trkpt>
      <trkpt lat="39.370248" lon="-0.821173">
        <ele>485.25</ele>
      </trkpt>
      <trkpt lat="39.370376" lon="-0.820934">
        <ele>484.25</ele>
      </trkpt>
      <trkpt lat="39.370409" lon="-0.820851">
        <ele>484.5</ele>
      </trkpt>
      <trkpt lat="39.370471" lon="-0.82059">
        <ele>489</ele>
      </trkpt>
      <trkpt lat="39.370476" lon="-0.820569">
        <ele>489.5</ele>
      </trkpt>
      <trkpt lat="39.370515" lon="-0.820494">
        <ele>490.5</ele>
      </trkpt>
      <trkpt lat="39.370569" lon="-0.820427">
        <ele>491</ele>
      </trkpt>
      <trkpt lat="39.371492" lon="-0.819751">
        <ele>471.25</ele>
      </trkpt>
      <trkpt lat="39.371564" lon="-0.819671">
        <ele>469</ele>
      </trkpt>
      <trkpt lat="39.371654" lon="-0.819467">
        <ele>467.75</ele>
      </trkpt>
      <trkpt lat="39.371751" lon="-0.819223">
        <ele>467</ele>
      </trkpt>
      <trkpt lat="39.371933" lon="-0.818839">
        <ele>468.25</ele>
      </trkpt>
      <trkpt lat="39.372052" lon="-0.8187">
        <ele>466.25</ele>
      </trkpt>
      <trkpt lat="39.372213" lon="-0.818541">
        <ele>462.5</ele>
      </trkpt>
      <trkpt lat="39.37257" lon="-0.81816">
        <ele>454.25</ele>
      </trkpt>
      <trkpt lat="39.372663" lon="-0.818037">
        <ele>453.5</ele>
      </trkpt>
      <trkpt lat="39.372763" lon="-0.817879">
        <ele>453</ele>
      </trkpt>
      <trkpt lat="39.372813" lon="-0.817769">
        <ele>453.25</ele>
      </trkpt>
      <trkpt lat="39.372856" lon="-0.817645">
        <ele>453.75</ele>
      </trkpt>
      <trkpt lat="39.372891" lon="-0.817517">
        <ele>454.75</ele>
      </trkpt>
      <trkpt lat="39.372962" lon="-0.817324">
        <ele>452.25</ele>
      </trkpt>
      <trkpt lat="39.373016" lon="-0.817259">
        <ele>450.75</ele>
      </trkpt>
      <trkpt lat="39.373111" lon="-0.817176">
        <ele>448.25</ele>
      </trkpt>
      <trkpt lat="39.373175" lon="-0.81713">
        <ele>446.75</ele>
      </trkpt>
      <trkpt lat="39.373238" lon="-0.817098">
        <ele>445.25</ele>
      </trkpt>
      <trkpt lat="39.373287" lon="-0.817096">
        <ele>444.25</ele>
      </trkpt>
      <trkpt lat="39.37331" lon="-0.817117">
        <ele>444</ele>
      </trkpt>
      <trkpt lat="39.373325" lon="-0.81716">
        <ele>443.75</ele>
      </trkpt>
      <trkpt lat="39.373321" lon="-0.817219">
        <ele>443.75</ele>
      </trkpt>
      <trkpt lat="39.373223" lon="-0.817455">
        <ele>446.5</ele>
      </trkpt>
      <trkpt lat="39.373196" lon="-0.817536">
        <ele>446.75</ele>
      </trkpt>
      <trkpt lat="39.373178" lon="-0.817616">
        <ele>446</ele>
      </trkpt>
      <trkpt lat="39.373157" lon="-0.817903">
        <ele>442.25</ele>
      </trkpt>
      <trkpt lat="39.373144" lon="-0.817986">
        <ele>441.25</ele>
      </trkpt>
      <trkpt lat="39.373122" lon="-0.818075">
        <ele>440.5</ele>
      </trkpt>
      <trkpt lat="39.372997" lon="-0.818354">
        <ele>439.75</ele>
      </trkpt>
      <trkpt lat="39.372949" lon="-0.818485">
        <ele>438.25</ele>
      </trkpt>
      <trkpt lat="39.372871" lon="-0.818922">
        <ele>430.25</ele>
      </trkpt>
      <trkpt lat="39.372838" lon="-0.819035">
        <ele>428.5</ele>
      </trkpt>
      <trkpt lat="39.372721" lon="-0.819362">
        <ele>425.25</ele>
      </trkpt>
      <trkpt lat="39.372682" lon="-0.819528">
        <ele>423.75</ele>
      </trkpt>
      <trkpt lat="39.372607" lon="-0.820092">
        <ele>418.5</ele>
      </trkpt>
      <trkpt lat="39.372589" lon="-0.82043">
        <ele>416.5</ele>
      </trkpt>
      <trkpt lat="39.372553" lon="-0.820593">
        <ele>416.5</ele>
      </trkpt>
      <trkpt lat="39.372551" lon="-0.82065">
        <ele>416.25</ele>
      </trkpt>
      <trkpt lat="39.37256" lon="-0.820701">
        <ele>415.5</ele>
      </trkpt>
      <trkpt lat="39.37258" lon="-0.820751">
        <ele>414.5</ele>
      </trkpt>
      <trkpt lat="39.372607" lon="-0.820776">
        <ele>413.5</ele>
      </trkpt>
      <trkpt lat="39.372645" lon="-0.820776">
        <ele>412</ele>
      </trkpt>
      <trkpt lat="39.372692" lon="-0.820754">
        <ele>410.5</ele>
      </trkpt>
      <trkpt lat="39.372752" lon="-0.820714">
        <ele>408.75</ele>
      </trkpt>
      <trkpt lat="39.372786" lon="-0.820676">
        <ele>408</ele>
      </trkpt>
      <trkpt lat="39.372819" lon="-0.820625">
        <ele>407.5</ele>
      </trkpt>
      <trkpt lat="39.372906" lon="-0.820419">
        <ele>406.75</ele>
      </trkpt>
      <trkpt lat="39.372987" lon="-0.820269">
        <ele>406</ele>
      </trkpt>
      <trkpt lat="39.373111" lon="-0.820145">
        <ele>403.75</ele>
      </trkpt>
      <trkpt lat="39.373163" lon="-0.82011">
        <ele>402.75</ele>
      </trkpt>
      <trkpt lat="39.373368" lon="-0.820006">
        <ele>399</ele>
      </trkpt>
      <trkpt lat="39.37342" lon="-0.819966">
        <ele>398.25</ele>
      </trkpt>
      <trkpt lat="39.373462" lon="-0.819917">
        <ele>398</ele>
      </trkpt>
      <trkpt lat="39.373547" lon="-0.819797">
        <ele>397.75</ele>
      </trkpt>
      <trkpt lat="39.37363" lon="-0.819593">
        <ele>398.25</ele>
      </trkpt>
      <trkpt lat="39.373673" lon="-0.819539">
        <ele>397.5</ele>
      </trkpt>
      <trkpt lat="39.373994" lon="-0.819311">
        <ele>389.25</ele>
      </trkpt>
      <trkpt lat="39.374044" lon="-0.819257">
        <ele>387.75</ele>
      </trkpt>
      <trkpt lat="39.37449" lon="-0.818683">
        <ele>387.25</ele>
      </trkpt>
      <trkpt lat="39.374533" lon="-0.818654">
        <ele>386.75</ele>
      </trkpt>
      <trkpt lat="39.374585" lon="-0.818643">
        <ele>385.5</ele>
      </trkpt>
      <trkpt lat="39.374645" lon="-0.818643">
        <ele>384</ele>
      </trkpt>
      <trkpt lat="39.37471" lon="-0.818657">
        <ele>382</ele>
      </trkpt>
      <trkpt lat="39.374813" lon="-0.818694">
        <ele>379</ele>
      </trkpt>
      <trkpt lat="39.374983" lon="-0.818772">
        <ele>374</ele>
      </trkpt>
      <trkpt lat="39.37522" lon="-0.818944">
        <ele>372.75</ele>
      </trkpt>
      <trkpt lat="39.375265" lon="-0.818954">
        <ele>372.75</ele>
      </trkpt>
      <trkpt lat="39.375313" lon="-0.818944">
        <ele>372.75</ele>
      </trkpt>
      <trkpt lat="39.375355" lon="-0.818909">
        <ele>372.75</ele>
      </trkpt>
      <trkpt lat="39.375423" lon="-0.81882">
        <ele>372.75</ele>
      </trkpt>
      <trkpt lat="39.375454" lon="-0.818753">
        <ele>372.75</ele>
      </trkpt>
      <trkpt lat="39.375558" lon="-0.81837">
        <ele>371.5</ele>
      </trkpt>
      <trkpt lat="39.375622" lon="-0.818209">
        <ele>370.75</ele>
      </trkpt>
      <trkpt lat="39.375643" lon="-0.818136">
        <ele>370.5</ele>
      </trkpt>
      <trkpt lat="39.375659" lon="-0.818048">
        <ele>370.25</ele>
      </trkpt>
      <trkpt lat="39.375697" lon="-0.817702">
        <ele>370</ele>
      </trkpt>
      <trkpt lat="39.375697" lon="-0.817584">
        <ele>370</ele>
      </trkpt>
      <trkpt lat="39.375674" lon="-0.817458">
        <ele>370</ele>
      </trkpt>
      <trkpt lat="39.375636" lon="-0.817372">
        <ele>370.5</ele>
      </trkpt>
      <trkpt lat="39.375516" lon="-0.817007">
        <ele>371.5</ele>
      </trkpt>
      <trkpt lat="39.375496" lon="-0.816862">
        <ele>371.75</ele>
      </trkpt>
      <trkpt lat="39.3755" lon="-0.816809">
        <ele>371.75</ele>
      </trkpt>
      <trkpt lat="39.375514" lon="-0.81676">
        <ele>372.25</ele>
      </trkpt>
      <trkpt lat="39.375587" lon="-0.816634">
        <ele>373</ele>
      </trkpt>
      <trkpt lat="39.375651" lon="-0.816546">
        <ele>373.5</ele>
      </trkpt>
      <trkpt lat="39.375744" lon="-0.81646">
        <ele>374</ele>
      </trkpt>
      <trkpt lat="39.375817" lon="-0.816406">
        <ele>374.5</ele>
      </trkpt>
      <trkpt lat="39.375985" lon="-0.81632">
        <ele>376.75</ele>
      </trkpt>
      <trkpt lat="39.376147" lon="-0.816173">
        <ele>379</ele>
      </trkpt>
      <trkpt lat="39.376232" lon="-0.816066">
        <ele>380.25</ele>
      </trkpt>
      <trkpt lat="39.376335" lon="-0.815902">
        <ele>382.25</ele>
      </trkpt>
      <trkpt lat="39.376414" lon="-0.815819">
        <ele>383.75</ele>
      </trkpt>
      <trkpt lat="39.37657" lon="-0.815763">
        <ele>386.75</ele>
      </trkpt>
      <trkpt lat="39.376684" lon="-0.815706">
        <ele>389</ele>
      </trkpt>
      <trkpt lat="39.377007" lon="-0.815462">
        <ele>395</ele>
      </trkpt>
      <trkpt lat="39.377077" lon="-0.815376">
        <ele>396</ele>
      </trkpt>
      <trkpt lat="39.377113" lon="-0.815317">
        <ele>396.5</ele>
      </trkpt>
      <trkpt lat="39.377144" lon="-0.815234">
        <ele>396.75</ele>
      </trkpt>
      <trkpt lat="39.377169" lon="-0.815148">
        <ele>396.75</ele>
      </trkpt>
      <trkpt lat="39.377189" lon="-0.81503">
        <ele>396.5</ele>
      </trkpt>
      <trkpt lat="39.377204" lon="-0.81491">
        <ele>396.75</ele>
      </trkpt>
      <trkpt lat="39.377214" lon="-0.814751">
        <ele>397.5</ele>
      </trkpt>
      <trkpt lat="39.37721" lon="-0.814655">
        <ele>397.75</ele>
      </trkpt>
      <trkpt lat="39.377196" lon="-0.814561">
        <ele>397.75</ele>
      </trkpt>
      <trkpt lat="39.377167" lon="-0.814435">
        <ele>397.25</ele>
      </trkpt>
      <trkpt lat="39.377121" lon="-0.814279">
        <ele>396.5</ele>
      </trkpt>
      <trkpt lat="39.377113" lon="-0.814202">
        <ele>396.5</ele>
      </trkpt>
      <trkpt lat="39.377121" lon="-0.814065">
        <ele>396.75</ele>
      </trkpt>
      <trkpt lat="39.37727" lon="-0.813164">
        <ele>401</ele>
      </trkpt>
      <trkpt lat="39.377328" lon="-0.813005">
        <ele>403</ele>
      </trkpt>
      <trkpt lat="39.37736" lon="-0.812949">
        <ele>404</ele>
      </trkpt>
      <trkpt lat="39.37737" lon="-0.812906">
        <ele>404.5</ele>
      </trkpt>
      <trkpt lat="39.37737" lon="-0.812868">
        <ele>404.5</ele>
      </trkpt>
      <trkpt lat="39.377355" lon="-0.812826">
        <ele>404.25</ele>
      </trkpt>
      <trkpt lat="39.377306" lon="-0.812753">
        <ele>402.75</ele>
      </trkpt>
      <trkpt lat="39.377277" lon="-0.812697">
        <ele>402</ele>
      </trkpt>
      <trkpt lat="39.37726" lon="-0.812643">
        <ele>401.75</ele>
      </trkpt>
      <trkpt lat="39.377254" lon="-0.8126">
        <ele>401.5</ele>
      </trkpt>
      <trkpt lat="39.377268" lon="-0.812509">
        <ele>402.25</ele>
      </trkpt>
      <trkpt lat="39.377293" lon="-0.812431">
        <ele>402.5</ele>
      </trkpt>
      <trkpt lat="39.377318" lon="-0.812316">
        <ele>402.75</ele>
      </trkpt>
      <trkpt lat="39.377345" lon="-0.812139">
        <ele>402.5</ele>
      </trkpt>
      <trkpt lat="39.377364" lon="-0.811957">
        <ele>402.25</ele>
      </trkpt>
      <trkpt lat="39.37738" lon="-0.811887">
        <ele>402.25</ele>
      </trkpt>
      <trkpt lat="39.377399" lon="-0.811822">
        <ele>402.25</ele>
      </trkpt>
      <trkpt lat="39.377515" lon="-0.811637">
        <ele>404</ele>
      </trkpt>
      <trkpt lat="39.377571" lon="-0.811568">
        <ele>404.75</ele>
      </trkpt>
      <trkpt lat="39.377631" lon="-0.811527">
        <ele>405.5</ele>
      </trkpt>
      <trkpt lat="39.3777" lon="-0.811511">
        <ele>407</ele>
      </trkpt>
      <trkpt lat="39.377855" lon="-0.811503">
        <ele>410</ele>
      </trkpt>
      <trkpt lat="39.377905" lon="-0.811495">
        <ele>411</ele>
      </trkpt>
      <trkpt lat="39.37795" lon="-0.811476">
        <ele>411.75</ele>
      </trkpt>
      <trkpt lat="39.37799" lon="-0.811447">
        <ele>412.5</ele>
      </trkpt>
      <trkpt lat="39.378069" lon="-0.811358">
        <ele>413.5</ele>
      </trkpt>
      <trkpt lat="39.379014" lon="-0.809714">
        <ele>420.75</ele>
      </trkpt>
      <trkpt lat="39.379053" lon="-0.809661">
        <ele>421</ele>
      </trkpt>
      <trkpt lat="39.379147" lon="-0.809593">
        <ele>422.25</ele>
      </trkpt>
      <trkpt lat="39.379213" lon="-0.809508">
        <ele>422.25</ele>
      </trkpt>
      <trkpt lat="39.379416" lon="-0.809154">
        <ele>421.25</ele>
      </trkpt>
      <trkpt lat="39.379474" lon="-0.809073">
        <ele>421.25</ele>
      </trkpt>
      <trkpt lat="39.379551" lon="-0.808987">
        <ele>421.5</ele>
      </trkpt>
      <trkpt lat="39.379677" lon="-0.808907">
        <ele>422</ele>
      </trkpt>
      <trkpt lat="39.380074" lon="-0.809088">
        <ele>425.25</ele>
      </trkpt>
      <trkpt lat="39.38014" lon="-0.809113">
        <ele>426</ele>
      </trkpt>
      <trkpt lat="39.380181" lon="-0.809115">
        <ele>426.25</ele>
      </trkpt>
      <trkpt lat="39.380221" lon="-0.809102">
        <ele>426.5</ele>
      </trkpt>
      <trkpt lat="39.380261" lon="-0.809075">
        <ele>426.75</ele>
      </trkpt>
      <trkpt lat="39.380367" lon="-0.808988">
        <ele>427</ele>
      </trkpt>
      <trkpt lat="39.38041" lon="-0.808952">
        <ele>427.25</ele>
      </trkpt>
      <trkpt lat="39.380498" lon="-0.808894">
        <ele>427.5</ele>
      </trkpt>
      <trkpt lat="39.380536" lon="-0.808869">
        <ele>427.75</ele>
      </trkpt>
      <trkpt lat="39.380476" lon="-0.808678">
        <ele>426.25</ele>
      </trkpt>
      <trkpt lat="39.380416" lon="-0.808541">
        <ele>425.25</ele>
      </trkpt>
      <trkpt lat="39.380281" lon="-0.808336">
        <ele>424</ele>
      </trkpt>
      <trkpt lat="39.380237" lon="-0.808234">
        <ele>423.25</ele>
      </trkpt>
      <trkpt lat="39.38023" lon="-0.808118">
        <ele>422.75</ele>
      </trkpt>
      <trkpt lat="39.380241" lon="-0.807892">
        <ele>421.75</ele>
      </trkpt>
      <trkpt lat="39.380236" lon="-0.807715">
        <ele>420.75</ele>
      </trkpt>
      <trkpt lat="39.380215" lon="-0.807545">
        <ele>420</ele>
      </trkpt>
      <trkpt lat="39.380179" lon="-0.807394">
        <ele>419</ele>
      </trkpt>
      <trkpt lat="39.380152" lon="-0.807318">
        <ele>418.75</ele>
      </trkpt>
      <trkpt lat="39.379849" lon="-0.806588">
        <ele>412.75</ele>
      </trkpt>
      <trkpt lat="39.379792" lon="-0.806489">
        <ele>411</ele>
      </trkpt>
      <trkpt lat="39.379757" lon="-0.806449">
        <ele>410.25</ele>
      </trkpt>
      <trkpt lat="39.379668" lon="-0.806407">
        <ele>408.75</ele>
      </trkpt>
      <trkpt lat="39.378823" lon="-0.806225">
        <ele>396.75</ele>
      </trkpt>
      <trkpt lat="39.37842" lon="-0.806149">
        <ele>392.5</ele>
      </trkpt>
      <trkpt lat="39.378378" lon="-0.80613">
        <ele>392</ele>
      </trkpt>
      <trkpt lat="39.378341" lon="-0.806097">
        <ele>391.75</ele>
      </trkpt>
      <trkpt lat="39.378353" lon="-0.806529">
        <ele>391.25</ele>
      </trkpt>
      <trkpt lat="39.378104" lon="-0.806593">
        <ele>390.25</ele>
      </trkpt>
      <trkpt lat="39.377805" lon="-0.806464">
        <ele>388.5</ele>
      </trkpt>
      <trkpt lat="39.377391" lon="-0.805971">
        <ele>382.5</ele>
      </trkpt>
      <trkpt lat="39.377208" lon="-0.805842">
        <ele>380.25</ele>
      </trkpt>
      <trkpt lat="39.37686" lon="-0.805649">
        <ele>377</ele>
      </trkpt>
      <trkpt lat="39.376545" lon="-0.805434">
        <ele>373.5</ele>
      </trkpt>
      <trkpt lat="39.376329" lon="-0.805263">
        <ele>371.25</ele>
      </trkpt>
      <trkpt lat="39.376163" lon="-0.805198">
        <ele>369.75</ele>
      </trkpt>
      <trkpt lat="39.375865" lon="-0.805177">
        <ele>367.75</ele>
      </trkpt>
      <trkpt lat="39.375268" lon="-0.80493">
        <ele>360.75</ele>
      </trkpt>
      <trkpt lat="39.375222" lon="-0.804866">
        <ele>360</ele>
      </trkpt>
      <trkpt lat="39.375176" lon="-0.804764">
        <ele>359.25</ele>
      </trkpt>
      <trkpt lat="39.375118" lon="-0.804689">
        <ele>358.5</ele>
      </trkpt>
      <trkpt lat="39.375052" lon="-0.804651">
        <ele>357.75</ele>
      </trkpt>
      <trkpt lat="39.374936" lon="-0.804667">
        <ele>355.75</ele>
      </trkpt>
      <trkpt lat="39.37477" lon="-0.804742">
        <ele>352.5</ele>
      </trkpt>
      <trkpt lat="39.374683" lon="-0.804812">
        <ele>350.75</ele>
      </trkpt>
      <trkpt lat="39.374625" lon="-0.804946">
        <ele>349.75</ele>
      </trkpt>
      <trkpt lat="39.374587" lon="-0.805118">
        <ele>348.75</ele>
      </trkpt>
      <trkpt lat="39.374592" lon="-0.805225">
        <ele>348.5</ele>
      </trkpt>
      <trkpt lat="39.374571" lon="-0.805408">
        <ele>347.5</ele>
      </trkpt>
      <trkpt lat="39.374434" lon="-0.805724">
        <ele>343.5</ele>
      </trkpt>
      <trkpt lat="39.374422" lon="-0.805874">
        <ele>343</ele>
      </trkpt>
      <trkpt lat="39.374372" lon="-0.805982">
        <ele>342.25</ele>
      </trkpt>
      <trkpt lat="39.374243" lon="-0.806057">
        <ele>339.75</ele>
      </trkpt>
      <trkpt lat="39.374185" lon="-0.80611">
        <ele>339</ele>
      </trkpt>
      <trkpt lat="39.374148" lon="-0.806303">
        <ele>340</ele>
      </trkpt>
      <trkpt lat="39.374107" lon="-0.806411">
        <ele>341.5</ele>
      </trkpt>
      <trkpt lat="39.374036" lon="-0.806431">
        <ele>343.25</ele>
      </trkpt>
      <trkpt lat="39.373936" lon="-0.806416">
        <ele>345.25</ele>
      </trkpt>
      <trkpt lat="39.373878" lon="-0.806352">
        <ele>346</ele>
      </trkpt>
      <trkpt lat="39.373804" lon="-0.806169">
        <ele>346.5</ele>
      </trkpt>
      <trkpt lat="39.373704" lon="-0.805965">
        <ele>347.25</ele>
      </trkpt>
      <trkpt lat="39.373679" lon="-0.805874">
        <ele>347</ele>
      </trkpt>
      <trkpt lat="39.373651" lon="-0.805825">
        <ele>347.5</ele>
      </trkpt>
      <trkpt lat="39.373611" lon="-0.805777">
        <ele>348.25</ele>
      </trkpt>
      <trkpt lat="39.373408" lon="-0.805648">
        <ele>351.75</ele>
      </trkpt>
      <trkpt lat="39.373302" lon="-0.80556">
        <ele>353.25</ele>
      </trkpt>
      <trkpt lat="39.373279" lon="-0.80549">
        <ele>353.5</ele>
      </trkpt>
      <trkpt lat="39.373277" lon="-0.805425">
        <ele>353.25</ele>
      </trkpt>
      <trkpt lat="39.373255" lon="-0.80535">
        <ele>353.25</ele>
      </trkpt>
      <trkpt lat="39.373197" lon="-0.805332">
        <ele>354</ele>
      </trkpt>
      <trkpt lat="39.373132" lon="-0.80534">
        <ele>355</ele>
      </trkpt>
      <trkpt lat="39.373024" lon="-0.805385">
        <ele>356.75</ele>
      </trkpt>
      <trkpt lat="39.372943" lon="-0.805399">
        <ele>358</ele>
      </trkpt>
      <trkpt lat="39.372877" lon="-0.805401">
        <ele>358.75</ele>
      </trkpt>
      <trkpt lat="39.372765" lon="-0.805353">
        <ele>360.25</ele>
      </trkpt>
      <trkpt lat="39.372711" lon="-0.805356">
        <ele>361</ele>
      </trkpt>
      <trkpt lat="39.372616" lon="-0.805433">
        <ele>362.75</ele>
      </trkpt>
      <trkpt lat="39.372566" lon="-0.805506">
        <ele>364</ele>
      </trkpt>
      <trkpt lat="39.3725" lon="-0.805551">
        <ele>365.25</ele>
      </trkpt>
      <trkpt lat="39.37244" lon="-0.805557">
        <ele>366.25</ele>
      </trkpt>
      <trkpt lat="39.372348" lon="-0.805538">
        <ele>367.5</ele>
      </trkpt>
      <trkpt lat="39.372241" lon="-0.805417">
        <ele>367.75</ele>
      </trkpt>
      <trkpt lat="39.37216" lon="-0.805289">
        <ele>367.25</ele>
      </trkpt>
      <trkpt lat="39.3721" lon="-0.805219">
        <ele>367</ele>
      </trkpt>
      <trkpt lat="39.371988" lon="-0.805181">
        <ele>367.75</ele>
      </trkpt>
      <trkpt lat="39.371774" lon="-0.805149">
        <ele>369</ele>
      </trkpt>
      <trkpt lat="39.37155" lon="-0.805117">
        <ele>371.25</ele>
      </trkpt>
      <trkpt lat="39.371318" lon="-0.805053">
        <ele>373.5</ele>
      </trkpt>
      <trkpt lat="39.371152" lon="-0.804473">
        <ele>368.25</ele>
      </trkpt>
      <trkpt lat="39.37112" lon="-0.804333">
        <ele>367</ele>
      </trkpt>
      <trkpt lat="39.370958" lon="-0.804172">
        <ele>367.25</ele>
      </trkpt>
      <trkpt lat="39.370783" lon="-0.803897">
        <ele>368</ele>
      </trkpt>
      <trkpt lat="39.370621" lon="-0.803752">
        <ele>370.25</ele>
      </trkpt>
      <trkpt lat="39.370433" lon="-0.803558">
        <ele>372.25</ele>
      </trkpt>
      <trkpt lat="39.370371" lon="-0.803364">
        <ele>371</ele>
      </trkpt>
      <trkpt lat="39.370271" lon="-0.802864">
        <ele>372.25</ele>
      </trkpt>
      <trkpt lat="39.370159" lon="-0.802638">
        <ele>374.5</ele>
      </trkpt>
      <trkpt lat="39.369997" lon="-0.802508">
        <ele>377.75</ele>
      </trkpt>
      <trkpt lat="39.369759" lon="-0.802008">
        <ele>375.25</ele>
      </trkpt>
      <trkpt lat="39.369722" lon="-0.801798">
        <ele>374.25</ele>
      </trkpt>
      <trkpt lat="39.369672" lon="-0.801394">
        <ele>373</ele>
      </trkpt>
      <trkpt lat="39.369659" lon="-0.801152">
        <ele>372.5</ele>
      </trkpt>
      <trkpt lat="39.36946" lon="-0.800538">
        <ele>370.5</ele>
      </trkpt>
      <trkpt lat="39.369347" lon="-0.800118">
        <ele>370.75</ele>
      </trkpt>
      <trkpt lat="39.369335" lon="-0.799731">
        <ele>370</ele>
      </trkpt>
      <trkpt lat="39.369285" lon="-0.799246">
        <ele>368.75</ele>
      </trkpt>
      <trkpt lat="39.369172" lon="-0.798746">
        <ele>369.25</ele>
      </trkpt>
      <trkpt lat="39.369023" lon="-0.798197">
        <ele>367</ele>
      </trkpt>
      <trkpt lat="39.369085" lon="-0.797696">
        <ele>365.25</ele>
      </trkpt>
      <trkpt lat="39.36906" lon="-0.797405">
        <ele>363.5</ele>
      </trkpt>
      <trkpt lat="39.369023" lon="-0.797147">
        <ele>361.75</ele>
      </trkpt>
      <trkpt lat="39.369148" lon="-0.797034">
        <ele>361.5</ele>
      </trkpt>
      <trkpt lat="39.369347" lon="-0.797018">
        <ele>359.75</ele>
      </trkpt>
      <trkpt lat="39.36951" lon="-0.796969">
        <ele>358</ele>
      </trkpt>
      <trkpt lat="39.36951" lon="-0.796727">
        <ele>357</ele>
      </trkpt>
      <trkpt lat="39.369472" lon="-0.796485">
        <ele>357.25</ele>
      </trkpt>
      <trkpt lat="39.36946" lon="-0.796178">
        <ele>357.25</ele>
      </trkpt>
      <trkpt lat="39.369497" lon="-0.795952">
        <ele>357.5</ele>
      </trkpt>
      <trkpt lat="39.369552" lon="-0.795774">
        <ele>357.5</ele>
      </trkpt>
      <trkpt lat="39.369572" lon="-0.795709">
        <ele>357.5</ele>
      </trkpt>
      <trkpt lat="39.369622" lon="-0.795451">
        <ele>357.5</ele>
      </trkpt>
      <trkpt lat="39.369634" lon="-0.795209">
        <ele>357.5</ele>
      </trkpt>
      <trkpt lat="39.369572" lon="-0.794918">
        <ele>357.5</ele>
      </trkpt>
      <trkpt lat="39.369522" lon="-0.794224">
        <ele>357.25</ele>
      </trkpt>
      <trkpt lat="39.369572" lon="-0.79403">
        <ele>357.5</ele>
      </trkpt>
      <trkpt lat="39.369734" lon="-0.793917">
        <ele>359</ele>
      </trkpt>
      <trkpt lat="39.369765" lon="-0.793594">
        <ele>358.75</ele>
      </trkpt>
      <trkpt lat="39.370014" lon="-0.793593">
        <ele>361</ele>
      </trkpt>
      <trkpt lat="39.369992" lon="-0.792662">
        <ele>360</ele>
      </trkpt>
      <trkpt lat="39.370033" lon="-0.791703">
        <ele>359.25</ele>
      </trkpt>
      <trkpt lat="39.37023" lon="-0.790871">
        <ele>356.25</ele>
      </trkpt>
      <trkpt lat="39.370222" lon="-0.79075">
        <ele>356.75</ele>
      </trkpt>
      <trkpt lat="39.369609" lon="-0.790089">
        <ele>360.5</ele>
      </trkpt>
      <trkpt lat="39.369152" lon="-0.78977">
        <ele>364</ele>
      </trkpt>
      <trkpt lat="39.369056" lon="-0.78982">
        <ele>363.5</ele>
      </trkpt>
      <trkpt lat="39.36881" lon="-0.790092">
        <ele>361</ele>
      </trkpt>
      <trkpt lat="39.368714" lon="-0.790117">
        <ele>360.5</ele>
      </trkpt>
      <trkpt lat="39.368649" lon="-0.790028">
        <ele>360.75</ele>
      </trkpt>
      <trkpt lat="39.368739" lon="-0.789664">
        <ele>364.5</ele>
      </trkpt>
      <trkpt lat="39.36878" lon="-0.789416">
        <ele>366.5</ele>
      </trkpt>
      <trkpt lat="39.368717" lon="-0.789041">
        <ele>370</ele>
      </trkpt>
      <trkpt lat="39.368498" lon="-0.788033">
        <ele>379.25</ele>
      </trkpt>
      <trkpt lat="39.368525" lon="-0.787704">
        <ele>380</ele>
      </trkpt>
      <trkpt lat="39.36884" lon="-0.786904">
        <ele>385.5</ele>
      </trkpt>
      <trkpt lat="39.368906" lon="-0.786631">
        <ele>387.75</ele>
      </trkpt>
      <trkpt lat="39.369242" lon="-0.786408">
        <ele>383.25</ele>
      </trkpt>
      <trkpt lat="39.369353" lon="-0.786218">
        <ele>381</ele>
      </trkpt>
      <trkpt lat="39.36937" lon="-0.786037">
        <ele>380.75</ele>
      </trkpt>
      <trkpt lat="39.369244" lon="-0.785828">
        <ele>383.5</ele>
      </trkpt>
      <trkpt lat="39.36926" lon="-0.785089">
        <ele>376.75</ele>
      </trkpt>
      <trkpt lat="39.369214" lon="-0.784559">
        <ele>374.75</ele>
      </trkpt>
      <trkpt lat="39.369102" lon="-0.784127">
        <ele>371.5</ele>
      </trkpt>
      <trkpt lat="39.36914" lon="-0.783929">
        <ele>371</ele>
      </trkpt>
      <trkpt lat="39.369321" lon="-0.783575">
        <ele>368.5</ele>
      </trkpt>
      <trkpt lat="39.36937" lon="-0.783426">
        <ele>367.75</ele>
      </trkpt>
      <trkpt lat="39.369838" lon="-0.782924">
        <ele>370.75</ele>
      </trkpt>
      <trkpt lat="39.369983" lon="-0.782622">
        <ele>371.25</ele>
      </trkpt>
      <trkpt lat="39.370152" lon="-0.782269">
        <ele>372</ele>
      </trkpt>
      <trkpt lat="39.370232" lon="-0.782053">
        <ele>370.75</ele>
      </trkpt>
      <trkpt lat="39.370508" lon="-0.781809">
        <ele>370.75</ele>
      </trkpt>
      <trkpt lat="39.370651" lon="-0.781629">
        <ele>371.75</ele>
      </trkpt>
      <trkpt lat="39.370886" lon="-0.781572">
        <ele>372.5</ele>
      </trkpt>
      <trkpt lat="39.371305" lon="-0.781533">
        <ele>374</ele>
      </trkpt>
      <trkpt lat="39.371994" lon="-0.78091">
        <ele>368</ele>
      </trkpt>
      <trkpt lat="39.372235" lon="-0.780794">
        <ele>367.25</ele>
      </trkpt>
      <trkpt lat="39.372504" lon="-0.780521">
        <ele>365</ele>
      </trkpt>
      <trkpt lat="39.372657" lon="-0.780273">
        <ele>361.25</ele>
      </trkpt>
      <trkpt lat="39.37284" lon="-0.780142">
        <ele>359.5</ele>
      </trkpt>
      <trkpt lat="39.372873" lon="-0.779902">
        <ele>358.75</ele>
      </trkpt>
      <trkpt lat="39.372846" lon="-0.779183">
        <ele>357</ele>
      </trkpt>
      <trkpt lat="39.372862" lon="-0.779014">
        <ele>357.25</ele>
      </trkpt>
      <trkpt lat="39.37292" lon="-0.778809">
        <ele>358.5</ele>
      </trkpt>
      <trkpt lat="39.373087" lon="-0.778409">
        <ele>363.25</ele>
      </trkpt>
      <trkpt lat="39.373126" lon="-0.778266">
        <ele>364.75</ele>
      </trkpt>
      <trkpt lat="39.373142" lon="-0.778161">
        <ele>365.75</ele>
      </trkpt>
      <trkpt lat="39.373134" lon="-0.778071">
        <ele>366.25</ele>
      </trkpt>
      <trkpt lat="39.373105" lon="-0.778016">
        <ele>365.5</ele>
      </trkpt>
      <trkpt lat="39.373058" lon="-0.777965">
        <ele>364.5</ele>
      </trkpt>
      <trkpt lat="39.372994" lon="-0.777918">
        <ele>363</ele>
      </trkpt>
      <trkpt lat="39.372931" lon="-0.77785">
        <ele>361.5</ele>
      </trkpt>
      <trkpt lat="39.372899" lon="-0.777791">
        <ele>361</ele>
      </trkpt>
      <trkpt lat="39.372811" lon="-0.77747">
        <ele>360.5</ele>
      </trkpt>
      <trkpt lat="39.372781" lon="-0.777319">
        <ele>359.75</ele>
      </trkpt>
      <trkpt lat="39.372746" lon="-0.777186">
        <ele>359</ele>
      </trkpt>
      <trkpt lat="39.37268" lon="-0.77708">
        <ele>357.75</ele>
      </trkpt>
      <trkpt lat="39.372629" lon="-0.776965">
        <ele>356.75</ele>
      </trkpt>
      <trkpt lat="39.372628" lon="-0.776868">
        <ele>357</ele>
      </trkpt>
      <trkpt lat="39.372666" lon="-0.776776">
        <ele>358</ele>
      </trkpt>
      <trkpt lat="39.372804" lon="-0.776623">
        <ele>360.5</ele>
      </trkpt>
      <trkpt lat="39.37283" lon="-0.776517">
        <ele>360</ele>
      </trkpt>
      <trkpt lat="39.372798" lon="-0.77627">
        <ele>356.75</ele>
      </trkpt>
      <trkpt lat="39.372779" lon="-0.775857">
        <ele>352.25</ele>
      </trkpt>
      <trkpt lat="39.372752" lon="-0.775731">
        <ele>351.25</ele>
      </trkpt>
      <trkpt lat="39.372641" lon="-0.775523">
        <ele>350.25</ele>
      </trkpt>
      <trkpt lat="39.37251" lon="-0.775184">
        <ele>350.5</ele>
      </trkpt>
      <trkpt lat="39.372444" lon="-0.774993">
        <ele>350.5</ele>
      </trkpt>
      <trkpt lat="39.372385" lon="-0.774795">
        <ele>351</ele>
      </trkpt>
      <trkpt lat="39.372327" lon="-0.77471">
        <ele>351</ele>
      </trkpt>
      <trkpt lat="39.372157" lon="-0.77454">
        <ele>351</ele>
      </trkpt>
      <trkpt lat="39.372082" lon="-0.774442">
        <ele>351</ele>
      </trkpt>
      <trkpt lat="39.372048" lon="-0.774376">
        <ele>351.25</ele>
      </trkpt>
      <trkpt lat="39.372021" lon="-0.77425">
        <ele>352</ele>
      </trkpt>
      <trkpt lat="39.37203" lon="-0.774123">
        <ele>352.75</ele>
      </trkpt>
      <trkpt lat="39.37205" lon="-0.773998">
        <ele>353.5</ele>
      </trkpt>
      <trkpt lat="39.372086" lon="-0.773862">
        <ele>354.25</ele>
      </trkpt>
      <trkpt lat="39.372133" lon="-0.773734">
        <ele>355.25</ele>
      </trkpt>
      <trkpt lat="39.372198" lon="-0.773617">
        <ele>356.5</ele>
      </trkpt>
      <trkpt lat="39.372259" lon="-0.773481">
        <ele>357.75</ele>
      </trkpt>
      <trkpt lat="39.372307" lon="-0.773334">
        <ele>359</ele>
      </trkpt>
      <trkpt lat="39.372324" lon="-0.773216">
        <ele>360</ele>
      </trkpt>
      <trkpt lat="39.372324" lon="-0.772823">
        <ele>362.25</ele>
      </trkpt>
      <trkpt lat="39.372333" lon="-0.772578">
        <ele>363.75</ele>
      </trkpt>
      <trkpt lat="39.372333" lon="-0.772397">
        <ele>364.75</ele>
      </trkpt>
      <trkpt lat="39.372346" lon="-0.772235">
        <ele>366</ele>
      </trkpt>
      <trkpt lat="39.372379" lon="-0.772089">
        <ele>367.5</ele>
      </trkpt>
      <trkpt lat="39.372409" lon="-0.771906">
        <ele>369.25</ele>
      </trkpt>
      <trkpt lat="39.372418" lon="-0.771784">
        <ele>370.25</ele>
      </trkpt>
      <trkpt lat="39.372411" lon="-0.771671">
        <ele>370.75</ele>
      </trkpt>
      <trkpt lat="39.372386" lon="-0.771621">
        <ele>370.25</ele>
      </trkpt>
      <trkpt lat="39.372325" lon="-0.771557">
        <ele>368.75</ele>
      </trkpt>
      <trkpt lat="39.372252" lon="-0.771523">
        <ele>367</ele>
      </trkpt>
      <trkpt lat="39.372189" lon="-0.77148">
        <ele>365.5</ele>
      </trkpt>
      <trkpt lat="39.372149" lon="-0.771426">
        <ele>364.5</ele>
      </trkpt>
      <trkpt lat="39.372142" lon="-0.771359">
        <ele>364.25</ele>
      </trkpt>
      <trkpt lat="39.372209" lon="-0.77106">
        <ele>365.25</ele>
      </trkpt>
      <trkpt lat="39.372256" lon="-0.770788">
        <ele>365.5</ele>
      </trkpt>
      <trkpt lat="39.372271" lon="-0.770593">
        <ele>363.75</ele>
      </trkpt>
      <trkpt lat="39.372263" lon="-0.770407">
        <ele>362</ele>
      </trkpt>
      <trkpt lat="39.372199" lon="-0.77022">
        <ele>360</ele>
      </trkpt>
      <trkpt lat="39.372102" lon="-0.770109">
        <ele>359.25</ele>
      </trkpt>
      <trkpt lat="39.371975" lon="-0.769986">
        <ele>359.25</ele>
      </trkpt>
      <trkpt lat="39.371866" lon="-0.769852">
        <ele>358.5</ele>
      </trkpt>
      <trkpt lat="39.3718" lon="-0.769758">
        <ele>358.5</ele>
      </trkpt>
      <trkpt lat="39.371706" lon="-0.769656">
        <ele>358.75</ele>
      </trkpt>
      <trkpt lat="39.371598" lon="-0.769553">
        <ele>357.75</ele>
      </trkpt>
      <trkpt lat="39.371525" lon="-0.769459">
        <ele>356.25</ele>
      </trkpt>
      <trkpt lat="39.371508" lon="-0.769385">
        <ele>355.5</ele>
      </trkpt>
      <trkpt lat="39.371501" lon="-0.76935">
        <ele>355.5</ele>
      </trkpt>
      <trkpt lat="39.371494" lon="-0.768997">
        <ele>354.25</ele>
      </trkpt>
      <trkpt lat="39.371477" lon="-0.768806">
        <ele>353.25</ele>
      </trkpt>
      <trkpt lat="39.37145" lon="-0.768642">
        <ele>352.5</ele>
      </trkpt>
      <trkpt lat="39.371414" lon="-0.768472">
        <ele>352</ele>
      </trkpt>
      <trkpt lat="39.371367" lon="-0.768382">
        <ele>352.25</ele>
      </trkpt>
      <trkpt lat="39.371298" lon="-0.768301">
        <ele>352.5</ele>
      </trkpt>
      <trkpt lat="39.371235" lon="-0.768167">
        <ele>353</ele>
      </trkpt>
      <trkpt lat="39.37121" lon="-0.768017">
        <ele>353.25</ele>
      </trkpt>
      <trkpt lat="39.371185" lon="-0.767856">
        <ele>353.75</ele>
      </trkpt>
      <trkpt lat="39.37115" lon="-0.767743">
        <ele>354.5</ele>
      </trkpt>
      <trkpt lat="39.37099" lon="-0.767483">
        <ele>359</ele>
      </trkpt>
      <trkpt lat="39.37085" lon="-0.767219">
        <ele>362.75</ele>
      </trkpt>
      <trkpt lat="39.370645" lon="-0.766984">
        <ele>362.25</ele>
      </trkpt>
      <trkpt lat="39.370512" lon="-0.766813">
        <ele>361.25</ele>
      </trkpt>
      <trkpt lat="39.370376" lon="-0.766666">
        <ele>360</ele>
      </trkpt>
      <trkpt lat="39.370307" lon="-0.766571">
        <ele>360.25</ele>
      </trkpt>
      <trkpt lat="39.37026" lon="-0.766477">
        <ele>360.5</ele>
      </trkpt>
      <trkpt lat="39.370238" lon="-0.766386">
        <ele>361.25</ele>
      </trkpt>
      <trkpt lat="39.3702" lon="-0.766221">
        <ele>362.25</ele>
      </trkpt>
      <trkpt lat="39.370161" lon="-0.765954">
        <ele>364</ele>
      </trkpt>
      <trkpt lat="39.370132" lon="-0.765865">
        <ele>364.5</ele>
      </trkpt>
      <trkpt lat="39.370094" lon="-0.765819">
        <ele>364.75</ele>
      </trkpt>
      <trkpt lat="39.37004" lon="-0.76581">
        <ele>364.5</ele>
      </trkpt>
      <trkpt lat="39.369984" lon="-0.765834">
        <ele>363.75</ele>
      </trkpt>
      <trkpt lat="39.369907" lon="-0.765901">
        <ele>362.75</ele>
      </trkpt>
      <trkpt lat="39.36971" lon="-0.766119">
        <ele>359.5</ele>
      </trkpt>
      <trkpt lat="39.369565" lon="-0.766196">
        <ele>357.5</ele>
      </trkpt>
      <trkpt lat="39.369456" lon="-0.766278">
        <ele>355.75</ele>
      </trkpt>
      <trkpt lat="39.369395" lon="-0.766307">
        <ele>355</ele>
      </trkpt>
      <trkpt lat="39.369306" lon="-0.766304">
        <ele>354.25</ele>
      </trkpt>
      <trkpt lat="39.36923" lon="-0.766265">
        <ele>354.25</ele>
      </trkpt>
      <trkpt lat="39.369167" lon="-0.766196">
        <ele>354.75</ele>
      </trkpt>
      <trkpt lat="39.369118" lon="-0.766115">
        <ele>355.75</ele>
      </trkpt>
      <trkpt lat="39.36907" lon="-0.766052">
        <ele>356.25</ele>
      </trkpt>
      <trkpt lat="39.368983" lon="-0.766028">
        <ele>356.25</ele>
      </trkpt>
      <trkpt lat="39.368896" lon="-0.766033">
        <ele>355.75</ele>
      </trkpt>
      <trkpt lat="39.368731" lon="-0.766134">
        <ele>354.25</ele>
      </trkpt>
      <trkpt lat="39.368652" lon="-0.766169">
        <ele>353.75</ele>
      </trkpt>
      <trkpt lat="39.368633" lon="-0.766168">
        <ele>353.75</ele>
      </trkpt>
      <trkpt lat="39.368594" lon="-0.766166">
        <ele>353.75</ele>
      </trkpt>
      <trkpt lat="39.368512" lon="-0.766131">
        <ele>353.75</ele>
      </trkpt>
      <trkpt lat="39.368454" lon="-0.766082">
        <ele>353.75</ele>
      </trkpt>
      <trkpt lat="39.368402" lon="-0.766014">
        <ele>353.75</ele>
      </trkpt>
      <trkpt lat="39.368182" lon="-0.765684">
        <ele>353.25</ele>
      </trkpt>
      <trkpt lat="39.368102" lon="-0.765344">
        <ele>354.5</ele>
      </trkpt>
      <trkpt lat="39.368082" lon="-0.765236">
        <ele>355</ele>
      </trkpt>
      <trkpt lat="39.368056" lon="-0.76514">
        <ele>355.25</ele>
      </trkpt>
      <trkpt lat="39.368019" lon="-0.765068">
        <ele>355.5</ele>
      </trkpt>
      <trkpt lat="39.367881" lon="-0.764938">
        <ele>354.5</ele>
      </trkpt>
      <trkpt lat="39.367818" lon="-0.764891">
        <ele>354</ele>
      </trkpt>
      <trkpt lat="39.367741" lon="-0.764869">
        <ele>353.25</ele>
      </trkpt>
      <trkpt lat="39.367681" lon="-0.764881">
        <ele>352.75</ele>
      </trkpt>
      <trkpt lat="39.367615" lon="-0.764924">
        <ele>352</ele>
      </trkpt>
      <trkpt lat="39.367557" lon="-0.764979">
        <ele>351.5</ele>
      </trkpt>
      <trkpt lat="39.367508" lon="-0.765041">
        <ele>350.75</ele>
      </trkpt>
      <trkpt lat="39.367492" lon="-0.764973">
        <ele>350.75</ele>
      </trkpt>
      <trkpt lat="39.367519" lon="-0.764876">
        <ele>351</ele>
      </trkpt>
      <trkpt lat="39.367558" lon="-0.7648">
        <ele>351.5</ele>
      </trkpt>
      <trkpt lat="39.367787" lon="-0.764607">
        <ele>353.75</ele>
      </trkpt>
      <trkpt lat="39.367864" lon="-0.764509">
        <ele>354.75</ele>
      </trkpt>
      <trkpt lat="39.367946" lon="-0.764376">
        <ele>355.5</ele>
      </trkpt>
      <trkpt lat="39.368002" lon="-0.764271">
        <ele>356.25</ele>
      </trkpt>
      <trkpt lat="39.368074" lon="-0.764183">
        <ele>357</ele>
      </trkpt>
      <trkpt lat="39.368144" lon="-0.764137">
        <ele>357.75</ele>
      </trkpt>
      <trkpt lat="39.368214" lon="-0.764113">
        <ele>358.5</ele>
      </trkpt>
      <trkpt lat="39.368303" lon="-0.764108">
        <ele>359.5</ele>
      </trkpt>
      <trkpt lat="39.368479" lon="-0.764145">
        <ele>361.75</ele>
      </trkpt>
      <trkpt lat="39.368563" lon="-0.764125">
        <ele>362.75</ele>
      </trkpt>
      <trkpt lat="39.368639" lon="-0.764071">
        <ele>363.75</ele>
      </trkpt>
      <trkpt lat="39.36871" lon="-0.763979">
        <ele>364.5</ele>
      </trkpt>
      <trkpt lat="39.368736" lon="-0.763874">
        <ele>364.75</ele>
      </trkpt>
      <trkpt lat="39.368706" lon="-0.763754">
        <ele>364</ele>
      </trkpt>
      <trkpt lat="39.368688" lon="-0.763613">
        <ele>363.5</ele>
      </trkpt>
      <trkpt lat="39.368725" lon="-0.763459">
        <ele>363.75</ele>
      </trkpt>
      <trkpt lat="39.368826" lon="-0.763307">
        <ele>364.5</ele>
      </trkpt>
      <trkpt lat="39.369016" lon="-0.762949">
        <ele>364.25</ele>
      </trkpt>
      <trkpt lat="39.369106" lon="-0.762807">
        <ele>364.75</ele>
      </trkpt>
      <trkpt lat="39.369194" lon="-0.762702">
        <ele>364.75</ele>
      </trkpt>
      <trkpt lat="39.369284" lon="-0.762571">
        <ele>363</ele>
      </trkpt>
      <trkpt lat="39.369394" lon="-0.762433">
        <ele>361.25</ele>
      </trkpt>
      <trkpt lat="39.369444" lon="-0.762312">
        <ele>360.25</ele>
      </trkpt>
      <trkpt lat="39.369479" lon="-0.762123">
        <ele>359.25</ele>
      </trkpt>
      <trkpt lat="39.369535" lon="-0.761873">
        <ele>358.5</ele>
      </trkpt>
      <trkpt lat="39.369644" lon="-0.76144">
        <ele>358.25</ele>
      </trkpt>
      <trkpt lat="39.369676" lon="-0.761273">
        <ele>358.75</ele>
      </trkpt>
      <trkpt lat="39.36967" lon="-0.761122">
        <ele>359</ele>
      </trkpt>
      <trkpt lat="39.36962" lon="-0.760983">
        <ele>359.25</ele>
      </trkpt>
      <trkpt lat="39.369527" lon="-0.760858">
        <ele>359.25</ele>
      </trkpt>
      <trkpt lat="39.36939" lon="-0.760739">
        <ele>358.5</ele>
      </trkpt>
      <trkpt lat="39.36926" lon="-0.760611">
        <ele>358</ele>
      </trkpt>
      <trkpt lat="39.369149" lon="-0.760481">
        <ele>357.75</ele>
      </trkpt>
      <trkpt lat="39.369032" lon="-0.760367">
        <ele>356.25</ele>
      </trkpt>
      <trkpt lat="39.368947" lon="-0.76022">
        <ele>355.5</ele>
      </trkpt>
      <trkpt lat="39.368814" lon="-0.759898">
        <ele>354.75</ele>
      </trkpt>
      <trkpt lat="39.368772" lon="-0.759742">
        <ele>354.25</ele>
      </trkpt>
      <trkpt lat="39.368759" lon="-0.759565">
        <ele>353.75</ele>
      </trkpt>
      <trkpt lat="39.368766" lon="-0.759374">
        <ele>353.25</ele>
      </trkpt>
      <trkpt lat="39.368708" lon="-0.758994">
        <ele>353.25</ele>
      </trkpt>
      <trkpt lat="39.368695" lon="-0.758847">
        <ele>353.25</ele>
      </trkpt>
      <trkpt lat="39.368704" lon="-0.75864">
        <ele>353.25</ele>
      </trkpt>
      <trkpt lat="39.368756" lon="-0.758275">
        <ele>353.25</ele>
      </trkpt>
      <trkpt lat="39.368734" lon="-0.757995">
        <ele>353.25</ele>
      </trkpt>
      <trkpt lat="39.368646" lon="-0.757673">
        <ele>352.75</ele>
      </trkpt>
      <trkpt lat="39.3686" lon="-0.757532">
        <ele>352.25</ele>
      </trkpt>
      <trkpt lat="39.368541" lon="-0.757462">
        <ele>351.25</ele>
      </trkpt>
      <trkpt lat="39.368468" lon="-0.757438">
        <ele>350.5</ele>
      </trkpt>
      <trkpt lat="39.368132" lon="-0.757512">
        <ele>348.75</ele>
      </trkpt>
      <trkpt lat="39.367983" lon="-0.757491">
        <ele>347.75</ele>
      </trkpt>
      <trkpt lat="39.367877" lon="-0.757434">
        <ele>346.75</ele>
      </trkpt>
      <trkpt lat="39.367784" lon="-0.75735">
        <ele>345.75</ele>
      </trkpt>
      <trkpt lat="39.367626" lon="-0.757111">
        <ele>344.25</ele>
      </trkpt>
      <trkpt lat="39.367477" lon="-0.756852">
        <ele>343.25</ele>
      </trkpt>
      <trkpt lat="39.367298" lon="-0.756501">
        <ele>339.25</ele>
      </trkpt>
      <trkpt lat="39.367266" lon="-0.756407">
        <ele>338</ele>
      </trkpt>
      <trkpt lat="39.367261" lon="-0.756325">
        <ele>337</ele>
      </trkpt>
      <trkpt lat="39.367307" lon="-0.756036">
        <ele>333.5</ele>
      </trkpt>
      <trkpt lat="39.367302" lon="-0.755868">
        <ele>331.25</ele>
      </trkpt>
      <trkpt lat="39.367219" lon="-0.755403">
        <ele>331.25</ele>
      </trkpt>
      <trkpt lat="39.367179" lon="-0.755228">
        <ele>331.25</ele>
      </trkpt>
      <trkpt lat="39.367171" lon="-0.755038">
        <ele>331.25</ele>
      </trkpt>
      <trkpt lat="39.367185" lon="-0.754902">
        <ele>331</ele>
      </trkpt>
      <trkpt lat="39.367176" lon="-0.754732">
        <ele>330.5</ele>
      </trkpt>
      <trkpt lat="39.367142" lon="-0.754575">
        <ele>329.75</ele>
      </trkpt>
      <trkpt lat="39.367035" lon="-0.754234">
        <ele>328.5</ele>
      </trkpt>
      <trkpt lat="39.366983" lon="-0.753962">
        <ele>328.25</ele>
      </trkpt>
      <trkpt lat="39.366956" lon="-0.753789">
        <ele>328.25</ele>
      </trkpt>
      <trkpt lat="39.366924" lon="-0.753675">
        <ele>328.5</ele>
      </trkpt>
      <trkpt lat="39.366869" lon="-0.753544">
        <ele>328.75</ele>
      </trkpt>
      <trkpt lat="39.366812" lon="-0.753428">
        <ele>329</ele>
      </trkpt>
      <trkpt lat="39.366781" lon="-0.753331">
        <ele>329.25</ele>
      </trkpt>
      <trkpt lat="39.366759" lon="-0.752966">
        <ele>330</ele>
      </trkpt>
      <trkpt lat="39.366743" lon="-0.7528">
        <ele>330.25</ele>
      </trkpt>
      <trkpt lat="39.366725" lon="-0.752659">
        <ele>330.5</ele>
      </trkpt>
      <trkpt lat="39.366701" lon="-0.752539">
        <ele>330.75</ele>
      </trkpt>
      <trkpt lat="39.366669" lon="-0.752477">
        <ele>330.75</ele>
      </trkpt>
      <trkpt lat="39.366632" lon="-0.752448">
        <ele>330.25</ele>
      </trkpt>
      <trkpt lat="39.366563" lon="-0.752433">
        <ele>329.75</ele>
      </trkpt>
      <trkpt lat="39.366443" lon="-0.752428">
        <ele>328.75</ele>
      </trkpt>
      <trkpt lat="39.366364" lon="-0.752409">
        <ele>328</ele>
      </trkpt>
      <trkpt lat="39.366338" lon="-0.75237">
        <ele>327.75</ele>
      </trkpt>
      <trkpt lat="39.366247" lon="-0.75198">
        <ele>326.75</ele>
      </trkpt>
      <trkpt lat="39.366121" lon="-0.751555">
        <ele>325.5</ele>
      </trkpt>
      <trkpt lat="39.365882" lon="-0.751065">
        <ele>323</ele>
      </trkpt>
      <trkpt lat="39.36577" lon="-0.750888">
        <ele>321.5</ele>
      </trkpt>
      <trkpt lat="39.365467" lon="-0.750486">
        <ele>315.25</ele>
      </trkpt>
      <trkpt lat="39.365395" lon="-0.750375">
        <ele>314.25</ele>
      </trkpt>
      <trkpt lat="39.365326" lon="-0.75032">
        <ele>314.25</ele>
      </trkpt>
      <trkpt lat="39.365203" lon="-0.750271">
        <ele>314.25</ele>
      </trkpt>
      <trkpt lat="39.364858" lon="-0.750105">
        <ele>313</ele>
      </trkpt>
      <trkpt lat="39.364746" lon="-0.750064">
        <ele>311.75</ele>
      </trkpt>
      <trkpt lat="39.364657" lon="-0.749994">
        <ele>311</ele>
      </trkpt>
      <trkpt lat="39.364507" lon="-0.74982">
        <ele>309.25</ele>
      </trkpt>
      <trkpt lat="39.364318" lon="-0.749585">
        <ele>309</ele>
      </trkpt>
      <trkpt lat="39.364226" lon="-0.74946">
        <ele>309.75</ele>
      </trkpt>
      <trkpt lat="39.363631" lon="-0.749016">
        <ele>310.5</ele>
      </trkpt>
      <trkpt lat="39.363462" lon="-0.748874">
        <ele>309.25</ele>
      </trkpt>
      <trkpt lat="39.363292" lon="-0.748776">
        <ele>308.25</ele>
      </trkpt>
      <trkpt lat="39.363189" lon="-0.748707">
        <ele>307.5</ele>
      </trkpt>
      <trkpt lat="39.363027" lon="-0.748596">
        <ele>306.5</ele>
      </trkpt>
      <trkpt lat="39.362869" lon="-0.748519">
        <ele>305.75</ele>
      </trkpt>
      <trkpt lat="39.362733" lon="-0.748374">
        <ele>305.25</ele>
      </trkpt>
      <trkpt lat="39.362383" lon="-0.747977">
        <ele>300.5</ele>
      </trkpt>
      <trkpt lat="39.362262" lon="-0.747879">
        <ele>299.25</ele>
      </trkpt>
      <trkpt lat="39.362098" lon="-0.747804">
        <ele>298.5</ele>
      </trkpt>
      <trkpt lat="39.361944" lon="-0.747705">
        <ele>297.5</ele>
      </trkpt>
      <trkpt lat="39.36183" lon="-0.747589">
        <ele>297</ele>
      </trkpt>
      <trkpt lat="39.361734" lon="-0.747452">
        <ele>296.25</ele>
      </trkpt>
      <trkpt lat="39.361651" lon="-0.747383">
        <ele>295.5</ele>
      </trkpt>
      <trkpt lat="39.361513" lon="-0.747325">
        <ele>292.5</ele>
      </trkpt>
      <trkpt lat="39.361374" lon="-0.747251">
        <ele>290</ele>
      </trkpt>
      <trkpt lat="39.361332" lon="-0.747178">
        <ele>289</ele>
      </trkpt>
      <trkpt lat="39.361172" lon="-0.746633">
        <ele>286.5</ele>
      </trkpt>
      <trkpt lat="39.361062" lon="-0.746361">
        <ele>285.25</ele>
      </trkpt>
      <trkpt lat="39.36089" lon="-0.746026">
        <ele>284.75</ele>
      </trkpt>
      <trkpt lat="39.360571" lon="-0.745327">
        <ele>281.5</ele>
      </trkpt>
      <trkpt lat="39.360417" lon="-0.745014">
        <ele>280.75</ele>
      </trkpt>
      <trkpt lat="39.360375" lon="-0.74484">
        <ele>280.75</ele>
      </trkpt>
      <trkpt lat="39.360404" lon="-0.744674">
        <ele>280.75</ele>
      </trkpt>
      <trkpt lat="39.360376" lon="-0.744478">
        <ele>280.5</ele>
      </trkpt>
      <trkpt lat="39.360286" lon="-0.744093">
        <ele>280.5</ele>
      </trkpt>
      <trkpt lat="39.360231" lon="-0.743809">
        <ele>279.75</ele>
      </trkpt>
      <trkpt lat="39.360254" lon="-0.74335">
        <ele>277.75</ele>
      </trkpt>
      <trkpt lat="39.36027" lon="-0.743198">
        <ele>277</ele>
      </trkpt>
      <trkpt lat="39.360331" lon="-0.743133">
        <ele>276.25</ele>
      </trkpt>
      <trkpt lat="39.360421" lon="-0.743114">
        <ele>275.75</ele>
      </trkpt>
      <trkpt lat="39.360597" lon="-0.743095">
        <ele>275</ele>
      </trkpt>
      <trkpt lat="39.360743" lon="-0.743063">
        <ele>274.25</ele>
      </trkpt>
      <trkpt lat="39.360786" lon="-0.743019">
        <ele>274</ele>
      </trkpt>
      <trkpt lat="39.360789" lon="-0.742883">
        <ele>273.5</ele>
      </trkpt>
      <trkpt lat="39.360753" lon="-0.742498">
        <ele>272</ele>
      </trkpt>
      <trkpt lat="39.360774" lon="-0.742438">
        <ele>271.75</ele>
      </trkpt>
      <trkpt lat="39.360822" lon="-0.742409">
        <ele>271.25</ele>
      </trkpt>
      <trkpt lat="39.360925" lon="-0.742374">
        <ele>270.5</ele>
      </trkpt>
      <trkpt lat="39.361041" lon="-0.742352">
        <ele>269.75</ele>
      </trkpt>
      <trkpt lat="39.361117" lon="-0.742329">
        <ele>269</ele>
      </trkpt>
      <trkpt lat="39.361198" lon="-0.742264">
        <ele>268.25</ele>
      </trkpt>
      <trkpt lat="39.361287" lon="-0.742048">
        <ele>266.75</ele>
      </trkpt>
      <trkpt lat="39.361434" lon="-0.741606">
        <ele>264.5</ele>
      </trkpt>
      <trkpt lat="39.361517" lon="-0.741648">
        <ele>264.25</ele>
      </trkpt>
      <trkpt lat="39.361695" lon="-0.741463">
        <ele>263.25</ele>
      </trkpt>
      <trkpt lat="39.361917" lon="-0.741191">
        <ele>261</ele>
      </trkpt>
      <trkpt lat="39.36201" lon="-0.740964">
        <ele>260</ele>
      </trkpt>
      <trkpt lat="39.362193" lon="-0.740292">
        <ele>257</ele>
      </trkpt>
      <trkpt lat="39.362243" lon="-0.740072">
        <ele>256.5</ele>
      </trkpt>
      <trkpt lat="39.362267" lon="-0.739733">
        <ele>254.5</ele>
      </trkpt>
      <trkpt lat="39.36233" lon="-0.739499">
        <ele>253</ele>
      </trkpt>
      <trkpt lat="39.3625" lon="-0.739365">
        <ele>252</ele>
      </trkpt>
      <trkpt lat="39.362541" lon="-0.739142">
        <ele>250.75</ele>
      </trkpt>
      <trkpt lat="39.362565" lon="-0.738664">
        <ele>248</ele>
      </trkpt>
      <trkpt lat="39.362516" lon="-0.738582">
        <ele>247.25</ele>
      </trkpt>
      <trkpt lat="39.362431" lon="-0.738543">
        <ele>247.25</ele>
      </trkpt>
      <trkpt lat="39.362234" lon="-0.738565">
        <ele>248</ele>
      </trkpt>
      <trkpt lat="39.36207" lon="-0.738618">
        <ele>248.75</ele>
      </trkpt>
      <trkpt lat="39.3616" lon="-0.738288">
        <ele>249</ele>
      </trkpt>
      <trkpt lat="39.361118" lon="-0.737683">
        <ele>249</ele>
      </trkpt>
      <trkpt lat="39.3608" lon="-0.736836">
        <ele>246.75</ele>
      </trkpt>
      <trkpt lat="39.360459" lon="-0.736263">
        <ele>244</ele>
      </trkpt>
      <trkpt lat="39.360331" lon="-0.735987">
        <ele>243.25</ele>
      </trkpt>
      <trkpt lat="39.359942" lon="-0.735583">
        <ele>242.25</ele>
      </trkpt>
      <trkpt lat="39.359696" lon="-0.734869">
        <ele>237.75</ele>
      </trkpt>
      <trkpt lat="39.359671" lon="-0.734739">
        <ele>237.5</ele>
      </trkpt>
      <trkpt lat="39.359822" lon="-0.733554">
        <ele>233.75</ele>
      </trkpt>
      <trkpt lat="39.359816" lon="-0.733426">
        <ele>233.25</ele>
      </trkpt>
      <trkpt lat="39.359217" lon="-0.732336">
        <ele>229.25</ele>
      </trkpt>
      <trkpt lat="39.359141" lon="-0.731421">
        <ele>225.75</ele>
      </trkpt>
      <trkpt lat="39.359321" lon="-0.731135">
        <ele>223</ele>
      </trkpt>
      <trkpt lat="39.359341" lon="-0.731043">
        <ele>222.25</ele>
      </trkpt>
      <trkpt lat="39.359278" lon="-0.730321">
        <ele>217.25</ele>
      </trkpt>
      <trkpt lat="39.359105" lon="-0.730006">
        <ele>214.75</ele>
      </trkpt>
      <trkpt lat="39.359012" lon="-0.729524">
        <ele>213.25</ele>
      </trkpt>
      <trkpt lat="39.358911" lon="-0.729397">
        <ele>212.5</ele>
      </trkpt>
      <trkpt lat="39.358667" lon="-0.728799">
        <ele>211</ele>
      </trkpt>
      <trkpt lat="39.358646" lon="-0.728608">
        <ele>211</ele>
      </trkpt>
      <trkpt lat="39.35867" lon="-0.728385">
        <ele>211</ele>
      </trkpt>
      <trkpt lat="39.358502" lon="-0.727949">
        <ele>210.25</ele>
      </trkpt>
      <trkpt lat="39.358442" lon="-0.728012">
        <ele>209.75</ele>
      </trkpt>
      <trkpt lat="39.358502" lon="-0.727949">
        <ele>210.25</ele>
      </trkpt>
      <trkpt lat="39.358405" lon="-0.727729">
        <ele>209.5</ele>
      </trkpt>
      <trkpt lat="39.35799" lon="-0.727374">
        <ele>210</ele>
      </trkpt>
      <trkpt lat="39.35787" lon="-0.727285">
        <ele>210.5</ele>
      </trkpt>
      <trkpt lat="39.357715" lon="-0.726496">
        <ele>210.5</ele>
      </trkpt>
      <trkpt lat="39.357722" lon="-0.726291">
        <ele>210</ele>
      </trkpt>
      <trkpt lat="39.35761" lon="-0.725609">
        <ele>208.5</ele>
      </trkpt>
      <trkpt lat="39.357607" lon="-0.725466">
        <ele>208.5</ele>
      </trkpt>
      <trkpt lat="39.357621" lon="-0.725218">
        <ele>208.5</ele>
      </trkpt>
      <trkpt lat="39.357502" lon="-0.724803">
        <ele>208</ele>
      </trkpt>
      <trkpt lat="39.357264" lon="-0.724163">
        <ele>208.25</ele>
      </trkpt>
      <trkpt lat="39.356993" lon="-0.723467">
        <ele>208</ele>
      </trkpt>
      <trkpt lat="39.35667" lon="-0.722944">
        <ele>206.5</ele>
      </trkpt>
      <trkpt lat="39.356237" lon="-0.72228">
        <ele>207.5</ele>
      </trkpt>
      <trkpt lat="39.356161" lon="-0.722243">
        <ele>207.75</ele>
      </trkpt>
      <trkpt lat="39.355821" lon="-0.722336">
        <ele>208.25</ele>
      </trkpt>
      <trkpt lat="39.3556" lon="-0.722388">
        <ele>208.75</ele>
      </trkpt>
      <trkpt lat="39.354434" lon="-0.723392">
        <ele>214</ele>
      </trkpt>
      <trkpt lat="39.354171" lon="-0.723513">
        <ele>216.25</ele>
      </trkpt>
      <trkpt lat="39.353955" lon="-0.723481">
        <ele>217.75</ele>
      </trkpt>
      <trkpt lat="39.353778" lon="-0.723037">
        <ele>217.5</ele>
      </trkpt>
      <trkpt lat="39.353568" lon="-0.722663">
        <ele>217.75</ele>
      </trkpt>
      <trkpt lat="39.353496" lon="-0.722645">
        <ele>218.25</ele>
      </trkpt>
      <trkpt lat="39.35343" lon="-0.722656">
        <ele>218.75</ele>
      </trkpt>
      <trkpt lat="39.353402" lon="-0.722563">
        <ele>218.5</ele>
      </trkpt>
      <trkpt lat="39.353271" lon="-0.722415">
        <ele>218.75</ele>
      </trkpt>
      <trkpt lat="39.35275" lon="-0.722066">
        <ele>218.75</ele>
      </trkpt>
      <trkpt lat="39.352351" lon="-0.72171">
        <ele>218</ele>
      </trkpt>
      <trkpt lat="39.351874" lon="-0.721149">
        <ele>216</ele>
      </trkpt>
      <trkpt lat="39.351694" lon="-0.721087">
        <ele>215.75</ele>
      </trkpt>
      <trkpt lat="39.35137" lon="-0.721146">
        <ele>216.75</ele>
      </trkpt>
      <trkpt lat="39.350749" lon="-0.721085">
        <ele>218</ele>
      </trkpt>
      <trkpt lat="39.350573" lon="-0.721082">
        <ele>217.75</ele>
      </trkpt>
      <trkpt lat="39.350403" lon="-0.72075">
        <ele>216</ele>
      </trkpt>
      <trkpt lat="39.350359" lon="-0.720422">
        <ele>215.25</ele>
      </trkpt>
      <trkpt lat="39.350365" lon="-0.719827">
        <ele>213.5</ele>
      </trkpt>
      <trkpt lat="39.35017" lon="-0.719513">
        <ele>213.25</ele>
      </trkpt>
      <trkpt lat="39.350106" lon="-0.719266">
        <ele>212.75</ele>
      </trkpt>
      <trkpt lat="39.34983" lon="-0.718797">
        <ele>213</ele>
      </trkpt>
      <trkpt lat="39.349832" lon="-0.718644">
        <ele>212.25</ele>
      </trkpt>
      <trkpt lat="39.34994" lon="-0.718255">
        <ele>210.5</ele>
      </trkpt>
      <trkpt lat="39.350083" lon="-0.717968">
        <ele>209.5</ele>
      </trkpt>
      <trkpt lat="39.350315" lon="-0.717461">
        <ele>207.75</ele>
      </trkpt>
      <trkpt lat="39.350349" lon="-0.717048">
        <ele>207.25</ele>
      </trkpt>
      <trkpt lat="39.350492" lon="-0.716549">
        <ele>206.75</ele>
      </trkpt>
      <trkpt lat="39.350743" lon="-0.715817">
        <ele>204.25</ele>
      </trkpt>
      <trkpt lat="39.350745" lon="-0.715667">
        <ele>203.75</ele>
      </trkpt>
      <trkpt lat="39.350423" lon="-0.715299">
        <ele>203.25</ele>
      </trkpt>
      <trkpt lat="39.349887" lon="-0.714771">
        <ele>201.25</ele>
      </trkpt>
      <trkpt lat="39.349599" lon="-0.71457">
        <ele>200.75</ele>
      </trkpt>
      <trkpt lat="39.349167" lon="-0.714291">
        <ele>200.25</ele>
      </trkpt>
      <trkpt lat="39.348697" lon="-0.714001">
        <ele>201</ele>
      </trkpt>
      <trkpt lat="39.348527" lon="-0.713824">
        <ele>201</ele>
      </trkpt>
      <trkpt lat="39.348197" lon="-0.713615">
        <ele>201.5</ele>
      </trkpt>
      <trkpt lat="39.348062" lon="-0.713631">
        <ele>201.5</ele>
      </trkpt>
      <trkpt lat="39.347943" lon="-0.713569">
        <ele>201.5</ele>
      </trkpt>
      <trkpt lat="39.34725" lon="-0.713022">
        <ele>201</ele>
      </trkpt>
      <trkpt lat="39.346971" lon="-0.712829">
        <ele>201.25</ele>
      </trkpt>
      <trkpt lat="39.346572" lon="-0.712531">
        <ele>201.25</ele>
      </trkpt>
      <trkpt lat="39.346435" lon="-0.712384">
        <ele>201.5</ele>
      </trkpt>
      <trkpt lat="39.345976" lon="-0.711925">
        <ele>202</ele>
      </trkpt>
      <trkpt lat="39.345809" lon="-0.71175">
        <ele>203</ele>
      </trkpt>
      <trkpt lat="39.345552" lon="-0.71148">
        <ele>205</ele>
      </trkpt>
      <trkpt lat="39.345418" lon="-0.711075">
        <ele>206.75</ele>
      </trkpt>
      <trkpt lat="39.345292" lon="-0.710654">
        <ele>210</ele>
      </trkpt>
      <trkpt lat="39.345306" lon="-0.710504">
        <ele>210.25</ele>
      </trkpt>
      <trkpt lat="39.345389" lon="-0.710311">
        <ele>209.25</ele>
      </trkpt>
      <trkpt lat="39.34552" lon="-0.710083">
        <ele>207.5</ele>
      </trkpt>
      <trkpt lat="39.345584" lon="-0.709895">
        <ele>207.25</ele>
      </trkpt>
      <trkpt lat="39.345705" lon="-0.709581">
        <ele>207.25</ele>
      </trkpt>
      <trkpt lat="39.345869" lon="-0.709205">
        <ele>207.25</ele>
      </trkpt>
      <trkpt lat="39.346021" lon="-0.708725">
        <ele>206</ele>
      </trkpt>
      <trkpt lat="39.346093" lon="-0.708243">
        <ele>205.5</ele>
      </trkpt>
      <trkpt lat="39.346144" lon="-0.707744">
        <ele>206</ele>
      </trkpt>
      <trkpt lat="39.346196" lon="-0.707567">
        <ele>205.5</ele>
      </trkpt>
      <trkpt lat="39.346248" lon="-0.707264">
        <ele>205.5</ele>
      </trkpt>
      <trkpt lat="39.346339" lon="-0.706969">
        <ele>205</ele>
      </trkpt>
      <trkpt lat="39.346472" lon="-0.706732">
        <ele>203.25</ele>
      </trkpt>
      <trkpt lat="39.346559" lon="-0.706392">
        <ele>202.5</ele>
      </trkpt>
      <trkpt lat="39.346648" lon="-0.705982">
        <ele>202.5</ele>
      </trkpt>
      <trkpt lat="39.346682" lon="-0.705829">
        <ele>202.75</ele>
      </trkpt>
      <trkpt lat="39.34675" lon="-0.705616">
        <ele>202.25</ele>
      </trkpt>
      <trkpt lat="39.347089" lon="-0.705937">
        <ele>199.25</ele>
      </trkpt>
      <trkpt lat="39.347468" lon="-0.706298">
        <ele>196.5</ele>
      </trkpt>
      <trkpt lat="39.347637" lon="-0.70647">
        <ele>196.5</ele>
      </trkpt>
      <trkpt lat="39.347769" lon="-0.706588">
        <ele>196.5</ele>
      </trkpt>
      <trkpt lat="39.347839" lon="-0.706676">
        <ele>196.5</ele>
      </trkpt>
      <trkpt lat="39.347904" lon="-0.706774">
        <ele>196.25</ele>
      </trkpt>
      <trkpt lat="39.347955" lon="-0.706875">
        <ele>196.25</ele>
      </trkpt>
      <trkpt lat="39.347995" lon="-0.706979">
        <ele>196</ele>
      </trkpt>
      <trkpt lat="39.348076" lon="-0.707315">
        <ele>195.75</ele>
      </trkpt>
      <trkpt lat="39.348354" lon="-0.708669">
        <ele>199.75</ele>
      </trkpt>
      <trkpt lat="39.348416" lon="-0.708933">
        <ele>200.25</ele>
      </trkpt>
      <trkpt lat="39.348458" lon="-0.709043">
        <ele>200.5</ele>
      </trkpt>
      <trkpt lat="39.348511" lon="-0.709155">
        <ele>200.75</ele>
      </trkpt>
      <trkpt lat="39.348563" lon="-0.709235">
        <ele>201</ele>
      </trkpt>
      <trkpt lat="39.348625" lon="-0.709307">
        <ele>201</ele>
      </trkpt>
      <trkpt lat="39.348726" lon="-0.709399">
        <ele>201</ele>
      </trkpt>
      <trkpt lat="39.349382" lon="-0.709863">
        <ele>201.25</ele>
      </trkpt>
      <trkpt lat="39.349507" lon="-0.709798">
        <ele>201</ele>
      </trkpt>
      <trkpt lat="39.349635" lon="-0.709648">
        <ele>200.75</ele>
      </trkpt>
      <trkpt lat="39.349781" lon="-0.709138">
        <ele>200.75</ele>
      </trkpt>
      <trkpt lat="39.349893" lon="-0.70894">
        <ele>200.5</ele>
      </trkpt>
      <trkpt lat="39.350096" lon="-0.708924">
        <ele>200.25</ele>
      </trkpt>
      <trkpt lat="39.351494" lon="-0.709637">
        <ele>198.5</ele>
      </trkpt>
      <trkpt lat="39.351714" lon="-0.709729">
        <ele>198.25</ele>
      </trkpt>
      <trkpt lat="39.351793" lon="-0.709677">
        <ele>198</ele>
      </trkpt>
      <trkpt lat="39.352154" lon="-0.709291">
        <ele>196.75</ele>
      </trkpt>
      <trkpt lat="39.352481" lon="-0.708876">
        <ele>194.25</ele>
      </trkpt>
      <trkpt lat="39.352917" lon="-0.708457">
        <ele>191</ele>
      </trkpt>
      <trkpt lat="39.353091" lon="-0.708334">
        <ele>190.25</ele>
      </trkpt>
      <trkpt lat="39.354829" lon="-0.708495">
        <ele>192</ele>
      </trkpt>
      <trkpt lat="39.355227" lon="-0.708623">
        <ele>192.25</ele>
      </trkpt>
      <trkpt lat="39.355447" lon="-0.708817">
        <ele>192</ele>
      </trkpt>
      <trkpt lat="39.355547" lon="-0.709012">
        <ele>192</ele>
      </trkpt>
      <trkpt lat="39.355755" lon="-0.709168">
        <ele>191.25</ele>
      </trkpt>
      <trkpt lat="39.356355" lon="-0.709439">
        <ele>192</ele>
      </trkpt>
      <trkpt lat="39.35672" lon="-0.709557">
        <ele>192.25</ele>
      </trkpt>
      <trkpt lat="39.357031" lon="-0.709691">
        <ele>191.75</ele>
      </trkpt>
      <trkpt lat="39.357301" lon="-0.709702">
        <ele>191</ele>
      </trkpt>
      <trkpt lat="39.357413" lon="-0.709664">
        <ele>190.75</ele>
      </trkpt>
      <trkpt lat="39.357533" lon="-0.709573">
        <ele>190.25</ele>
      </trkpt>
      <trkpt lat="39.357591" lon="-0.709482">
        <ele>190</ele>
      </trkpt>
      <trkpt lat="39.357641" lon="-0.709428">
        <ele>190</ele>
      </trkpt>
      <trkpt lat="39.357749" lon="-0.709374">
        <ele>189.5</ele>
      </trkpt>
      <trkpt lat="39.357808" lon="-0.70937">
        <ele>189.25</ele>
      </trkpt>
      <trkpt lat="39.35845" lon="-0.709326">
        <ele>189.25</ele>
      </trkpt>
      <trkpt lat="39.35867" lon="-0.709187">
        <ele>190.75</ele>
      </trkpt>
      <trkpt lat="39.358807" lon="-0.708865">
        <ele>190.5</ele>
      </trkpt>
      <trkpt lat="39.358993" lon="-0.708033">
        <ele>188.75</ele>
      </trkpt>
      <trkpt lat="39.359263" lon="-0.706746">
        <ele>188</ele>
      </trkpt>
      <trkpt lat="39.359201" lon="-0.706145">
        <ele>187.75</ele>
      </trkpt>
      <trkpt lat="39.359072" lon="-0.705796">
        <ele>188.5</ele>
      </trkpt>
      <trkpt lat="39.358833" lon="-0.70552">
        <ele>190</ele>
      </trkpt>
      <trkpt lat="39.358757" lon="-0.705249">
        <ele>190.5</ele>
      </trkpt>
      <trkpt lat="39.358682" lon="-0.704702">
        <ele>191</ele>
      </trkpt>
      <trkpt lat="39.358402" lon="-0.703967">
        <ele>189.25</ele>
      </trkpt>
      <trkpt lat="39.358025" lon="-0.702943">
        <ele>188.5</ele>
      </trkpt>
      <trkpt lat="39.357834" lon="-0.702613">
        <ele>187.75</ele>
      </trkpt>
      <trkpt lat="39.357534" lon="-0.702277">
        <ele>186.75</ele>
      </trkpt>
      <trkpt lat="39.356923" lon="-0.701738">
        <ele>185.5</ele>
      </trkpt>
      <trkpt lat="39.356819" lon="-0.70155">
        <ele>186</ele>
      </trkpt>
      <trkpt lat="39.356611" lon="-0.701421">
        <ele>186.75</ele>
      </trkpt>
      <trkpt lat="39.356387" lon="-0.701392">
        <ele>186.75</ele>
      </trkpt>
      <trkpt lat="39.35603" lon="-0.701427">
        <ele>186.75</ele>
      </trkpt>
      <trkpt lat="39.355774" lon="-0.70144">
        <ele>186.5</ele>
      </trkpt>
      <trkpt lat="39.355612" lon="-0.701279">
        <ele>186.5</ele>
      </trkpt>
      <trkpt lat="39.355505" lon="-0.701073">
        <ele>187</ele>
      </trkpt>
      <trkpt lat="39.355316" lon="-0.700816">
        <ele>187.25</ele>
      </trkpt>
      <trkpt lat="39.35515" lon="-0.700746">
        <ele>187.25</ele>
      </trkpt>
      <trkpt lat="39.35473" lon="-0.700703">
        <ele>186.25</ele>
      </trkpt>
      <trkpt lat="39.354414" lon="-0.700588">
        <ele>186</ele>
      </trkpt>
      <trkpt lat="39.353877" lon="-0.70037">
        <ele>185.5</ele>
      </trkpt>
      <trkpt lat="39.353459" lon="-0.700062">
        <ele>184.5</ele>
      </trkpt>
      <trkpt lat="39.352877" lon="-0.699373">
        <ele>183</ele>
      </trkpt>
      <trkpt lat="39.352481" lon="-0.698678">
        <ele>181.5</ele>
      </trkpt>
      <trkpt lat="39.352484" lon="-0.698248">
        <ele>181.25</ele>
      </trkpt>
      <trkpt lat="39.352605" lon="-0.697763">
        <ele>181.5</ele>
      </trkpt>
      <trkpt lat="39.352779" lon="-0.697386">
        <ele>182.5</ele>
      </trkpt>
      <trkpt lat="39.35299" lon="-0.696929">
        <ele>183.25</ele>
      </trkpt>
      <trkpt lat="39.353165" lon="-0.696449">
        <ele>182.75</ele>
      </trkpt>
      <trkpt lat="39.353678" lon="-0.695585">
        <ele>181.25</ele>
      </trkpt>
      <trkpt lat="39.353855" lon="-0.695124">
        <ele>180.5</ele>
      </trkpt>
      <trkpt lat="39.35387" lon="-0.695059">
        <ele>180.25</ele>
      </trkpt>
      <trkpt lat="39.353987" lon="-0.694547">
        <ele>180</ele>
      </trkpt>
      <trkpt lat="39.35421" lon="-0.694045">
        <ele>179</ele>
      </trkpt>
      <trkpt lat="39.354294" lon="-0.693716">
        <ele>179</ele>
      </trkpt>
      <trkpt lat="39.354491" lon="-0.693099">
        <ele>179.5</ele>
      </trkpt>
      <trkpt lat="39.354557" lon="-0.69278">
        <ele>180</ele>
      </trkpt>
      <trkpt lat="39.354675" lon="-0.692345">
        <ele>180.5</ele>
      </trkpt>
      <trkpt lat="39.354815" lon="-0.691996">
        <ele>181</ele>
      </trkpt>
      <trkpt lat="39.354806" lon="-0.691856">
        <ele>181.25</ele>
      </trkpt>
      <trkpt lat="39.354739" lon="-0.69179">
        <ele>181.25</ele>
      </trkpt>
      <trkpt lat="39.354618" lon="-0.691736">
        <ele>181.25</ele>
      </trkpt>
      <trkpt lat="39.354553" lon="-0.691704">
        <ele>181.25</ele>
      </trkpt>
      <trkpt lat="39.354681" lon="-0.691221">
        <ele>181</ele>
      </trkpt>
      <trkpt lat="39.354686" lon="-0.690894">
        <ele>180.75</ele>
      </trkpt>
      <trkpt lat="39.354924" lon="-0.690283">
        <ele>178.75</ele>
      </trkpt>
      <trkpt lat="39.355096" lon="-0.689703">
        <ele>179</ele>
      </trkpt>
      <trkpt lat="39.355148" lon="-0.689631">
        <ele>179.25</ele>
      </trkpt>
      <trkpt lat="39.355231" lon="-0.689631">
        <ele>179.5</ele>
      </trkpt>
      <trkpt lat="39.35531" lon="-0.68959">
        <ele>179.5</ele>
      </trkpt>
      <trkpt lat="39.355423" lon="-0.689174">
        <ele>179.25</ele>
      </trkpt>
      <trkpt lat="39.355421" lon="-0.688968">
        <ele>179.25</ele>
      </trkpt>
      <trkpt lat="39.355366" lon="-0.688703">
        <ele>179.5</ele>
      </trkpt>
      <trkpt lat="39.355409" lon="-0.688504">
        <ele>179.5</ele>
      </trkpt>
      <trkpt lat="39.355536" lon="-0.688198">
        <ele>178.75</ele>
      </trkpt>
      <trkpt lat="39.355708" lon="-0.687753">
        <ele>177.25</ele>
      </trkpt>
      <trkpt lat="39.355789" lon="-0.687622">
        <ele>176.5</ele>
      </trkpt>
      <trkpt lat="39.355979" lon="-0.687418">
        <ele>176.25</ele>
      </trkpt>
      <trkpt lat="39.356041" lon="-0.687273">
        <ele>176.5</ele>
      </trkpt>
      <trkpt lat="39.356036" lon="-0.687144">
        <ele>176.75</ele>
      </trkpt>
      <trkpt lat="39.356079" lon="-0.68701">
        <ele>176.75</ele>
      </trkpt>
      <trkpt lat="39.356234" lon="-0.686857">
        <ele>176.75</ele>
      </trkpt>
      <trkpt lat="39.356386" lon="-0.686648">
        <ele>176.5</ele>
      </trkpt>
      <trkpt lat="39.356444" lon="-0.686431">
        <ele>175.75</ele>
      </trkpt>
      <trkpt lat="39.356563" lon="-0.686181">
        <ele>174.5</ele>
      </trkpt>
      <trkpt lat="39.35681" lon="-0.685859">
        <ele>173.25</ele>
      </trkpt>
      <trkpt lat="39.356964" lon="-0.685757">
        <ele>173.5</ele>
      </trkpt>
      <trkpt lat="39.357069" lon="-0.685567">
        <ele>173.75</ele>
      </trkpt>
      <trkpt lat="39.357172" lon="-0.685326">
        <ele>174.25</ele>
      </trkpt>
      <trkpt lat="39.357251" lon="-0.684835">
        <ele>174.75</ele>
      </trkpt>
      <trkpt lat="39.357251" lon="-0.684535">
        <ele>174.5</ele>
      </trkpt>
      <trkpt lat="39.357125" lon="-0.684095">
        <ele>174.5</ele>
      </trkpt>
      <trkpt lat="39.357083" lon="-0.683877">
        <ele>175</ele>
      </trkpt>
      <trkpt lat="39.357051" lon="-0.683633">
        <ele>175.25</ele>
      </trkpt>
      <trkpt lat="39.356979" lon="-0.683424">
        <ele>175</ele>
      </trkpt>
      <trkpt lat="39.356872" lon="-0.683207">
        <ele>174.5</ele>
      </trkpt>
      <trkpt lat="39.356813" lon="-0.682963">
        <ele>174.25</ele>
      </trkpt>
      <trkpt lat="39.356716" lon="-0.682813">
        <ele>173.75</ele>
      </trkpt>
      <trkpt lat="39.356672" lon="-0.682654">
        <ele>173.75</ele>
      </trkpt>
      <trkpt lat="39.356655" lon="-0.682418">
        <ele>174</ele>
      </trkpt>
      <trkpt lat="39.356499" lon="-0.681892">
        <ele>174.5</ele>
      </trkpt>
      <trkpt lat="39.356297" lon="-0.681509">
        <ele>174.75</ele>
      </trkpt>
      <trkpt lat="39.356087" lon="-0.681061">
        <ele>174.5</ele>
      </trkpt>
      <trkpt lat="39.356079" lon="-0.681042">
        <ele>174.5</ele>
      </trkpt>
      <trkpt lat="39.35602" lon="-0.680841">
        <ele>174</ele>
      </trkpt>
      <trkpt lat="39.355152" lon="-0.681217">
        <ele>178.5</ele>
      </trkpt>
      <trkpt lat="39.35492" lon="-0.680712">
        <ele>178.5</ele>
      </trkpt>
      <trkpt lat="39.352431" lon="-0.680788">
        <ele>183.75</ele>
      </trkpt>
      <trkpt lat="39.352147" lon="-0.680997">
        <ele>183.75</ele>
      </trkpt>
      <trkpt lat="39.35218" lon="-0.678911">
        <ele>182.75</ele>
      </trkpt>
      <trkpt lat="39.352092" lon="-0.678613">
        <ele>182.5</ele>
      </trkpt>
      <trkpt lat="39.35176" lon="-0.678089">
        <ele>183.25</ele>
      </trkpt>
      <trkpt lat="39.3517" lon="-0.677898">
        <ele>183.75</ele>
      </trkpt>
      <trkpt lat="39.351898" lon="-0.676771">
        <ele>184.75</ele>
      </trkpt>
      <trkpt lat="39.351889" lon="-0.676175">
        <ele>184</ele>
      </trkpt>
      <trkpt lat="39.351963" lon="-0.675007">
        <ele>180.75</ele>
      </trkpt>
      <trkpt lat="39.351866" lon="-0.674834">
        <ele>181.5</ele>
      </trkpt>
      <trkpt lat="39.351691" lon="-0.67391">
        <ele>183</ele>
      </trkpt>
      <trkpt lat="39.350981" lon="-0.674089">
        <ele>189.5</ele>
      </trkpt>
      <trkpt lat="39.350709" lon="-0.674226">
        <ele>192</ele>
      </trkpt>
      <trkpt lat="39.350497" lon="-0.674202">
        <ele>193.5</ele>
      </trkpt>
      <trkpt lat="39.35046" lon="-0.674143">
        <ele>193.5</ele>
      </trkpt>
      <trkpt lat="39.350214" lon="-0.674173">
        <ele>195.25</ele>
      </trkpt>
      <trkpt lat="39.350115" lon="-0.674185">
        <ele>196.25</ele>
      </trkpt>
      <trkpt lat="39.349981" lon="-0.674043">
        <ele>196.75</ele>
      </trkpt>
      <trkpt lat="39.350074" lon="-0.673749">
        <ele>196</ele>
      </trkpt>
      <trkpt lat="39.350154" lon="-0.673577">
        <ele>195.25</ele>
      </trkpt>
      <trkpt lat="39.349633" lon="-0.673024">
        <ele>200.5</ele>
      </trkpt>
      <trkpt lat="39.349567" lon="-0.67273">
        <ele>202</ele>
      </trkpt>
      <trkpt lat="39.34934" lon="-0.67273">
        <ele>204</ele>
      </trkpt>
      <trkpt lat="39.348939" lon="-0.672161">
        <ele>203.5</ele>
      </trkpt>
      <trkpt lat="39.347978" lon="-0.67128">
        <ele>204.25</ele>
      </trkpt>
      <trkpt lat="39.34763" lon="-0.670624">
        <ele>206</ele>
      </trkpt>
      <trkpt lat="39.347439" lon="-0.670553">
        <ele>208.75</ele>
      </trkpt>
      <trkpt lat="39.347237" lon="-0.669762">
        <ele>209</ele>
      </trkpt>
      <trkpt lat="39.346985" lon="-0.669095">
        <ele>212.25</ele>
      </trkpt>
      <trkpt lat="39.347192" lon="-0.668885">
        <ele>209.75</ele>
      </trkpt>
      <trkpt lat="39.347411" lon="-0.668573">
        <ele>207.5</ele>
      </trkpt>
      <trkpt lat="39.347383" lon="-0.668174">
        <ele>209.25</ele>
      </trkpt>
      <trkpt lat="39.347439" lon="-0.667693">
        <ele>213.25</ele>
      </trkpt>
      <trkpt lat="39.347641" lon="-0.667359">
        <ele>213.25</ele>
      </trkpt>
      <trkpt lat="39.347882" lon="-0.667093">
        <ele>211</ele>
      </trkpt>
      <trkpt lat="39.348034" lon="-0.666924">
        <ele>209.75</ele>
      </trkpt>
      <trkpt lat="39.348843" lon="-0.666814">
        <ele>207.25</ele>
      </trkpt>
      <trkpt lat="39.350626" lon="-0.665435">
        <ele>196.25</ele>
      </trkpt>
      <trkpt lat="39.350881" lon="-0.66517">
        <ele>195.75</ele>
      </trkpt>
      <trkpt lat="39.350889" lon="-0.665057">
        <ele>196.25</ele>
      </trkpt>
      <trkpt lat="39.350691" lon="-0.664613">
        <ele>198.25</ele>
      </trkpt>
      <trkpt lat="39.350326" lon="-0.664017">
        <ele>197.25</ele>
      </trkpt>
      <trkpt lat="39.350282" lon="-0.663635">
        <ele>196.5</ele>
      </trkpt>
      <trkpt lat="39.350289" lon="-0.662671">
        <ele>196.25</ele>
      </trkpt>
      <trkpt lat="39.350355" lon="-0.662576">
        <ele>196.5</ele>
      </trkpt>
      <trkpt lat="39.350589" lon="-0.662576">
        <ele>197.75</ele>
      </trkpt>
      <trkpt lat="39.350728" lon="-0.662312">
        <ele>197.25</ele>
      </trkpt>
      <trkpt lat="39.350816" lon="-0.662265">
        <ele>197.5</ele>
      </trkpt>
      <trkpt lat="39.351027" lon="-0.662265">
        <ele>198.25</ele>
      </trkpt>
      <trkpt lat="39.351422" lon="-0.662038">
        <ele>198.75</ele>
      </trkpt>
      <trkpt lat="39.351079" lon="-0.659773">
        <ele>196</ele>
      </trkpt>
      <trkpt lat="39.350757" lon="-0.658179">
        <ele>194.25</ele>
      </trkpt>
      <trkpt lat="39.350994" lon="-0.657591">
        <ele>195.5</ele>
      </trkpt>
      <trkpt lat="39.351973" lon="-0.656819">
        <ele>194.5</ele>
      </trkpt>
      <trkpt lat="39.352305" lon="-0.655831">
        <ele>186</ele>
      </trkpt>
      <trkpt lat="39.352413" lon="-0.655681">
        <ele>184</ele>
      </trkpt>
      <trkpt lat="39.352529" lon="-0.655392">
        <ele>181.5</ele>
      </trkpt>
      <trkpt lat="39.352587" lon="-0.654909">
        <ele>178.75</ele>
      </trkpt>
      <trkpt lat="39.352736" lon="-0.65493">
        <ele>178</ele>
      </trkpt>
      <trkpt lat="39.353151" lon="-0.654641">
        <ele>174.5</ele>
      </trkpt>
      <trkpt lat="39.352529" lon="-0.653224">
        <ele>165.75</ele>
      </trkpt>
      <trkpt lat="39.352379" lon="-0.653074">
        <ele>163.25</ele>
      </trkpt>
      <trkpt lat="39.351998" lon="-0.653053">
        <ele>162</ele>
      </trkpt>
      <trkpt lat="39.351906" lon="-0.65286">
        <ele>160</ele>
      </trkpt>
      <trkpt lat="39.351808" lon="-0.65209">
        <ele>158.25</ele>
      </trkpt>
      <trkpt lat="39.351608" lon="-0.65183">
        <ele>159.25</ele>
      </trkpt>
      <trkpt lat="39.351201" lon="-0.651915">
        <ele>158.5</ele>
      </trkpt>
      <trkpt lat="39.351077" lon="-0.65183">
        <ele>158.75</ele>
      </trkpt>
      <trkpt lat="39.350936" lon="-0.651155">
        <ele>163.25</ele>
      </trkpt>
      <trkpt lat="39.350314" lon="-0.650468">
        <ele>169.5</ele>
      </trkpt>
      <trkpt lat="39.349907" lon="-0.649846">
        <ele>172.25</ele>
      </trkpt>
      <trkpt lat="39.349807" lon="-0.649567">
        <ele>174.5</ele>
      </trkpt>
      <trkpt lat="39.349807" lon="-0.649245">
        <ele>177.25</ele>
      </trkpt>
      <trkpt lat="39.350098" lon="-0.648237">
        <ele>187</ele>
      </trkpt>
      <trkpt lat="39.35043" lon="-0.647271">
        <ele>187.25</ele>
      </trkpt>
      <trkpt lat="39.350745" lon="-0.645362">
        <ele>177.25</ele>
      </trkpt>
      <trkpt lat="39.35062" lon="-0.644922">
        <ele>175.25</ele>
      </trkpt>
      <trkpt lat="39.350613" lon="-0.644671">
        <ele>175.25</ele>
      </trkpt>
      <trkpt lat="39.350604" lon="-0.644374">
        <ele>175</ele>
      </trkpt>
      <trkpt lat="39.350861" lon="-0.642969">
        <ele>178</ele>
      </trkpt>
      <trkpt lat="39.351541" lon="-0.641799">
        <ele>178.75</ele>
      </trkpt>
      <trkpt lat="39.351649" lon="-0.641156">
        <ele>177.75</ele>
      </trkpt>
      <trkpt lat="39.351293" lon="-0.640533">
        <ele>179.5</ele>
      </trkpt>
      <trkpt lat="39.351143" lon="-0.640029">
        <ele>181.5</ele>
      </trkpt>
      <trkpt lat="39.351126" lon="-0.637959">
        <ele>184.75</ele>
      </trkpt>
      <trkpt lat="39.351193" lon="-0.637755">
        <ele>184.75</ele>
      </trkpt>
      <trkpt lat="39.351196" lon="-0.637596">
        <ele>184.5</ele>
      </trkpt>
      <trkpt lat="39.35121" lon="-0.637025">
        <ele>184.5</ele>
      </trkpt>
      <trkpt lat="39.351151" lon="-0.636081">
        <ele>185.75</ele>
      </trkpt>
      <trkpt lat="39.350863" lon="-0.63483">
        <ele>188.25</ele>
      </trkpt>
      <trkpt lat="39.350809" lon="-0.63464">
        <ele>187.75</ele>
      </trkpt>
      <trkpt lat="39.350564" lon="-0.633661">
        <ele>186</ele>
      </trkpt>
      <trkpt lat="39.3505" lon="-0.633433">
        <ele>185.75</ele>
      </trkpt>
      <trkpt lat="39.350444" lon="-0.633253">
        <ele>185.5</ele>
      </trkpt>
      <trkpt lat="39.350339" lon="-0.63302">
        <ele>184.75</ele>
      </trkpt>
      <trkpt lat="39.349072" lon="-0.630886">
        <ele>181</ele>
      </trkpt>
      <trkpt lat="39.349051" lon="-0.630854">
        <ele>180.75</ele>
      </trkpt>
      <trkpt lat="39.348827" lon="-0.6305">
        <ele>180</ele>
      </trkpt>
      <trkpt lat="39.348807" lon="-0.630477">
        <ele>179.75</ele>
      </trkpt>
      <trkpt lat="39.348621" lon="-0.630272">
        <ele>179</ele>
      </trkpt>
      <trkpt lat="39.348165" lon="-0.629852">
        <ele>177.5</ele>
      </trkpt>
      <trkpt lat="39.34779" lon="-0.629518">
        <ele>177</ele>
      </trkpt>
      <trkpt lat="39.347624" lon="-0.629295">
        <ele>176.75</ele>
      </trkpt>
      <trkpt lat="39.347539" lon="-0.629059">
        <ele>176.25</ele>
      </trkpt>
      <trkpt lat="39.347373" lon="-0.628298">
        <ele>173.5</ele>
      </trkpt>
      <trkpt lat="39.347245" lon="-0.627871">
        <ele>170.5</ele>
      </trkpt>
      <trkpt lat="39.347157" lon="-0.627694">
        <ele>169</ele>
      </trkpt>
      <trkpt lat="39.345506" lon="-0.62514">
        <ele>160</ele>
      </trkpt>
      <trkpt lat="39.344974" lon="-0.624295">
        <ele>156.5</ele>
      </trkpt>
      <trkpt lat="39.343555" lon="-0.622069">
        <ele>148.5</ele>
      </trkpt>
      <trkpt lat="39.343442" lon="-0.621886">
        <ele>148.25</ele>
      </trkpt>
      <trkpt lat="39.34339" lon="-0.621751">
        <ele>148</ele>
      </trkpt>
      <trkpt lat="39.343346" lon="-0.62161">
        <ele>147.75</ele>
      </trkpt>
      <trkpt lat="39.343327" lon="-0.62143">
        <ele>147.75</ele>
      </trkpt>
      <trkpt lat="39.34319" lon="-0.618748">
        <ele>142.75</ele>
      </trkpt>
      <trkpt lat="39.343115" lon="-0.617254">
        <ele>140.25</ele>
      </trkpt>
      <trkpt lat="39.343101" lon="-0.617067">
        <ele>140</ele>
      </trkpt>
      <trkpt lat="39.343055" lon="-0.616209">
        <ele>138</ele>
      </trkpt>
      <trkpt lat="39.34301" lon="-0.615353">
        <ele>135.25</ele>
      </trkpt>
      <trkpt lat="39.343007" lon="-0.615092">
        <ele>134.25</ele>
      </trkpt>
      <trkpt lat="39.342981" lon="-0.614702">
        <ele>133.5</ele>
      </trkpt>
      <trkpt lat="39.342944" lon="-0.614509">
        <ele>133.5</ele>
      </trkpt>
      <trkpt lat="39.342874" lon="-0.614291">
        <ele>133.5</ele>
      </trkpt>
      <trkpt lat="39.342849" lon="-0.614224">
        <ele>133.25</ele>
      </trkpt>
      <trkpt lat="39.342767" lon="-0.613993">
        <ele>133.25</ele>
      </trkpt>
      <trkpt lat="39.342635" lon="-0.613637">
        <ele>132.5</ele>
      </trkpt>
      <trkpt lat="39.342589" lon="-0.6135">
        <ele>132.25</ele>
      </trkpt>
      <trkpt lat="39.342558" lon="-0.613371">
        <ele>131.75</ele>
      </trkpt>
      <trkpt lat="39.342547" lon="-0.613282">
        <ele>131.5</ele>
      </trkpt>
      <trkpt lat="39.342543" lon="-0.613159">
        <ele>131.25</ele>
      </trkpt>
      <trkpt lat="39.342562" lon="-0.613017">
        <ele>131</ele>
      </trkpt>
      <trkpt lat="39.342626" lon="-0.612886">
        <ele>130.25</ele>
      </trkpt>
      <trkpt lat="39.342629" lon="-0.612718">
        <ele>130</ele>
      </trkpt>
      <trkpt lat="39.342604" lon="-0.612589">
        <ele>129.75</ele>
      </trkpt>
      <trkpt lat="39.342592" lon="-0.612565">
        <ele>129.75</ele>
      </trkpt>
      <trkpt lat="39.34257" lon="-0.612491">
        <ele>129.75</ele>
      </trkpt>
      <trkpt lat="39.342566" lon="-0.612412">
        <ele>129.25</ele>
      </trkpt>
      <trkpt lat="39.342579" lon="-0.612335">
        <ele>129</ele>
      </trkpt>
      <trkpt lat="39.342591" lon="-0.612301">
        <ele>128.75</ele>
      </trkpt>
      <trkpt lat="39.342589" lon="-0.612274">
        <ele>128.5</ele>
      </trkpt>
    </trkseg>
  </trk>
</gpx>
